[[{"header":{"parameterUnit":"m.s-1","parameterCategory":1,"la1":30.6,"la2":28.766,"lo1":-90.7593,"lo2":-88.6598,"dy":0.0162,"dx":0.0183,"nx":116,"ny":114,"refTime":"2024-03-28T06:00:00:Z","depth":0,"parameterNumber":2,"parameterNumberName":"U-component_of_WINDS"},"data":[0.0,0.0,0.0,0.0,0.0,0.0,0.0,0.0,0.0,0.0,0.0,0.0,0.0,0.0,0.0,0.0,0.0,0.0,0.0,0.0,0.0,0.0,0.0,0.0,0.0,0.0,0.0,0.0,0.0,0.0,0.0,0.0,0.0,0.0,0.0,0.0,0.0,0.0,0.0,0.0,0.0,0.0,0.0,0.0,0.0,0.0,0.0,0.0,0.0,0.0,0.0,0.0,0.0,0.0,0.0,0.0,0.0,0.0,0.0,0.0,0.0,0.0,0.0,0.0,0.0,0.0,0.0,0.0,0.0,0.0,0.0,0.0,0.0,0.0,0.0,0.0,0.0,0.0,0.0,0.0,0.0,0.0,0.0,0.0,0.0,0.0,0.0,0.0,0.0,0.0,0.0,0.0,0.0,0.0,0.0,0.0,0.0,0.0,0.0,0.0,0.0,0.0,0.0,0.0,0.0,0.0,0.0,0.0,0.0,0.0,0.0,0.0,0.0,0.0,0.0,0.0,0.0,0.0,0.0,0.0,0.0,0.0,0.0,0.0,0.0,0.0,0.0,0.0,0.0,0.0,0.0,0.0,0.0,0.0,0.0,0.0,0.0,0.0,0.0,0.0,0.0,0.0,0.0,0.0,0.0,0.0,0.0,0.0,0.0,0.0,0.0,0.0,0.0,0.0,0.0,0.0,0.0,0.0,0.0,0.0,0.0,0.0,0.0,0.0,0.0,0.0,0.0,0.0,0.0,0.0,0.0,0.0,0.0,0.0,0.0,0.0,0.0,0.0,0.0,0.0,0.0,0.0,0.0,0.0,0.0,0.0,0.0,0.0,0.0,0.0,0.0,0.0,0.0,0.0,0.0,0.0,0.0,0.0,0.0,0.0,0.0,0.0,0.0,0.0,0.0,0.0,0.0,0.0,0.0,0.0,0.0,0.0,0.0,0.0,0.0,0.0,0.0,0.0,0.0,0.0,0.0,0.0,0.0,0.0,0.0,0.0,0.0,0.0,0.0,0.0,0.0,0.0,0.0,0.0,0.0,0.0,0.0,0.0,0.0,0.0,0.0,0.0,0.0,0.0,0.0,0.0,0.0,0.0,0.0,0.0,0.0,0.0,0.0,0.0,0.0,0.0,0.0,0.0,0.0,0.0,0.0,0.0,0.0,0.0,0.0,0.0,0.0,0.0,0.0,0.0,0.0,0.0,0.0,0.0,0.0,0.0,0.0,0.0,0.0,0.0,0.0,0.0,0.0,0.0,0.0,0.0,0.0,0.0,0.0,0.0,0.0,0.0,0.0,0.0,0.0,0.0,0.0,0.0,0.0,0.0,0.0,0.0,0.0,0.0,0.0,0.0,0.0,0.0,0.0,0.0,0.0,0.0,0.0,0.0,0.0,0.0,0.0,0.0,0.0,0.0,0.0,0.0,0.0,0.0,0.0,0.0,0.0,0.0,0.0,0.0,0.0,0.0,0.0,0.0,0.0,0.0,0.0,0.0,0.0,0.0,0.0,0.0,0.0,0.0,0.0,0.0,0.0,0.0,0.0,0.0,0.0,0.0,0.0,0.0,0.0,0.0,0.0,0.0,0.0,0.0,0.0,0.0,0.0,0.0,0.0,0.0,0.0,0.0,0.0,0.0,0.0,0.0,0.0,0.0,0.0,0.0,0.0,0.0,0.0,0.0,0.0,0.0,0.0,0.0,0.0,0.0,0.0,0.0,0.0,0.0,0.0,0.0,0.0,0.0,0.0,0.0,0.0,0.0,0.0,0.0,0.0,0.0,0.0,0.0,0.0,0.0,0.0,0.0,0.0,0.0,0.0,0.0,0.0,0.0,0.0,0.0,0.0,0.0,0.0,0.0,0.0,0.0,0.0,0.0,0.0,0.0,0.0,0.0,0.0,0.0,0.0,0.0,0.0,0.0,0.0,0.0,0.0,0.0,0.0,0.0,0.0,0.0,0.0,0.0,0.0,0.0,0.0,0.0,0.0,0.0,0.0,0.0,0.0,0.0,0.0,0.0,0.0,0.0,0.0,0.0,0.0,0.0,0.0,0.0,0.0,0.0,0.0,0.0,0.0,0.0,0.0,0.0,0.0,0.0,0.0,0.0,0.0,0.0,0.0,0.0,0.0,0.0,0.0,0.0,0.0,0.0,0.0,0.0,0.0,0.0,0.0,0.0,0.0,0.0,0.0,0.0,0.0,0.0,0.0,0.0,0.0,0.0,0.0,0.0,0.0,0.0,0.0,0.0,0.0,0.0,0.0,0.0,0.0,0.0,0.0,0.0,0.0,0.0,0.0,0.0,0.0,0.0,0.0,0.0,0.0,0.0,0.0,0.0,0.0,0.0,0.0,0.0,0.0,0.0,0.0,0.0,0.0,0.0,0.0,0.0,0.0,0.0,0.0,0.0,0.0,0.0,0.0,0.0,0.0,0.0,0.0,0.0,0.0,0.0,0.0,0.0,0.0,0.0,0.0,0.0,0.0,0.0,0.0,0.0,0.0,0.0,0.0,0.0,0.0,0.0,0.0,0.0,0.0,0.0,0.0,0.0,0.0,0.0,0.0,0.0,0.0,0.0,0.0,0.0,0.0,0.0,0.0,0.0,0.0,0.0,0.0,0.0,0.0,0.0,0.0,0.0,0.0,0.0,0.0,0.0,0.0,0.0,0.0,0.0,0.0,0.0,0.0,0.0,0.0,0.0,0.0,0.0,0.0,0.0,0.0,0.0,0.0,0.0,0.0,0.0,0.0,0.0,0.0,0.0,0.0,0.0,0.0,0.0,0.0,0.0,0.0,0.0,0.0,0.0,0.0,0.0,0.0,0.0,0.0,0.0,0.0,0.0,0.0,0.0,0.0,0.0,0.0,0.0,0.0,0.0,0.0,0.0,0.0,0.0,0.0,0.0,0.0,0.0,0.0,0.0,0.0,0.0,0.0,0.0,0.0,0.0,0.0,0.0,0.0,0.0,0.0,0.0,0.0,0.0,0.0,0.0,0.0,0.0,0.0,0.0,0.0,0.0,0.0,0.0,0.0,0.0,0.0,0.0,0.0,0.0,0.0,0.0,0.0,0.0,0.0,0.0,0.0,0.0,0.0,0.0,0.0,0.0,0.0,0.0,0.0,0.0,0.0,0.0,0.0,0.0,0.0,0.0,0.0,0.0,0.0,0.0,0.0,0.0,0.0,0.0,0.0,0.0,0.0,0.0,0.0,0.0,0.0,0.0,0.0,0.0,0.0,0.0,0.0,0.0,0.0,0.0,0.0,0.0,0.0,0.0,0.0,0.0,0.0,0.0,0.0,0.0,0.0,0.0,0.0,0.0,0.0,0.0,0.0,0.0,0.0,0.0,0.0,0.0,0.0,0.0,0.0,0.0,0.0,0.0,0.0,0.0,0.0,0.0,0.0,0.0,0.0,0.0,0.0,0.0,0.0,0.0,0.0,0.0,0.0,0.0,0.0,0.0,0.0,0.0,0.0,0.0,0.0,0.0,0.0,0.0,0.0,0.0,0.0,0.0,0.0,0.0,0.0,0.0,0.0,0.0,0.0,0.0,0.0,0.0,0.0,0.0,0.0,0.0,0.0,0.0,0.0,0.0,0.0,0.0,0.0,0.0,0.0,0.0,0.0,0.0,0.0,0.0,0.0,0.0,0.0,0.0,0.0,0.0,0.0,0.0,0.0,0.0,0.0,0.0,0.0,0.0,0.0,0.0,0.0,0.0,0.0,0.0,0.0,0.0,0.0,0.0,0.0,0.0,0.0,0.0,0.0,0.0,0.0,0.0,0.0,0.0,0.0,0.0,0.0,0.0,0.0,0.0,0.0,0.0,0.0,0.0,0.0,0.0,0.0,0.0,0.0,0.0,0.0,0.0,0.0,0.0,0.0,0.0,0.0,0.0,0.0,0.0,0.0,0.0,0.0,0.0,0.0,0.0,0.0,0.0,0.0,0.0,0.0,0.0,0.0,0.0,0.0,0.0,0.0,0.0,0.0,0.0,0.0,0.0,0.0,0.0,0.0,0.0,0.0,0.0,0.0,0.0,0.0,0.0,0.0,0.0,0.0,0.0,0.0,0.0,0.0,0.0,0.0,0.0,0.0,0.0,0.0,0.0,0.0,0.0,0.0,0.0,0.0,0.0,0.0,0.0,0.0,0.0,0.0,0.0,0.0,0.0,0.0,0.0,0.0,0.0,0.0,0.0,0.0,0.0,0.0,0.0,0.0,0.0,0.0,0.0,0.0,0.0,0.0,0.0,0.0,0.0,0.0,0.0,0.0,0.0,0.0,0.0,0.0,0.0,0.0,0.0,0.0,0.0,0.0,0.0,0.0,0.0,0.0,0.0,0.0,0.0,0.0,0.0,0.0,0.0,0.0,0.0,0.0,0.0,0.0,0.0,0.0,0.0,0.0,0.0,0.0,0.0,0.0,0.0,0.0,0.0,0.0,0.0,0.0,0.0,0.0,0.0,0.0,0.0,0.0,0.0,0.0,0.0,0.0,0.0,0.0,0.0,0.0,0.0,0.0,0.0,0.0,0.0,0.0,0.0,0.0,0.0,0.0,0.0,0.0,0.0,0.0,0.0,0.0,0.0,0.0,0.0,0.0,0.0,0.0,0.0,0.0,0.0,0.0,0.0,0.0,0.0,0.0,0.0,0.0,0.0,0.0,0.0,0.0,0.0,0.0,0.0,0.0,0.0,0.0,0.0,0.0,0.0,0.0,0.0,0.0,0.0,0.0,0.0,0.0,0.0,0.0,0.0,0.0,0.0,0.0,0.0,0.0,0.0,0.0,0.0,0.0,0.0,0.0,0.0,0.0,0.0,0.0,0.0,0.0,0.0,0.0,0.0,0.0,0.0,0.0,0.0,0.0,0.0,0.0,0.0,0.0,0.0,0.0,0.0,0.0,0.0,0.0,0.0,0.0,0.0,0.0,0.0,0.0,0.0,0.0,0.0,0.0,0.0,0.0,0.0,0.0,0.0,0.0,0.0,0.0,0.0,0.0,0.0,0.0,0.0,0.0,0.0,0.0,0.0,0.0,0.0,0.0,0.0,0.0,0.0,0.0,0.0,0.0,0.0,0.0,0.0,0.0,0.0,0.0,0.0,0.0,0.0,0.0,0.0,0.0,0.0,0.0,0.0,0.0,0.0,0.0,0.0,0.0,0.0,0.0,0.0,0.0,0.0,0.0,0.0,0.0,0.0,0.0,0.0,0.0,0.0,0.0,0.0,0.0,0.0,0.0,0.0,0.0,0.0,0.0,0.0,0.0,0.0,0.0,0.0,0.0,0.0,0.0,0.0,0.0,0.0,0.0,0.0,0.0,0.0,0.0,0.0,0.0,0.0,0.0,0.0,0.0,0.0,0.0,0.0,0.0,0.0,0.0,0.0,0.0,0.0,0.0,0.0,0.0,0.0,0.0,0.0,0.0,0.0,0.0,0.0,0.0,0.0,0.0,0.0,0.0,0.0,0.0,0.0,0.0,0.0,0.0,0.0,0.0,0.0,0.0,0.0,0.0,0.0,0.0,0.0,0.0,0.0,0.0,0.0,0.0,0.0,0.0,0.0,0.0,0.0,0.0,0.0,0.0,0.0,0.0,0.0,0.0,0.0,0.0,0.0,0.0,0.0,0.0,0.0,0.0,0.0,0.0,0.0,0.0,0.0,0.0,0.0,0.0,0.0,0.0,0.0,0.0,0.0,0.0,0.0,0.0,0.0,0.0,0.0,0.0,0.0,0.0,0.0,0.0,0.0,0.0,0.0,0.0,0.0,0.0,0.0,0.0,0.0,0.0,0.0,0.0,0.0,0.0,0.0,0.0,0.0,0.0,0.0,0.0,0.0,0.0,0.0,0.0,0.0,0.0,0.0,0.0,0.0,0.0,0.0,0.0,0.0,0.0,0.0,0.0,0.0,0.0,0.0,0.0,0.0,0.0,0.0,0.0,0.0,0.0,0.0,0.0,0.0,0.0,0.0,0.0,0.0,0.0,0.0,0.0,0.0,0.0,0.0,0.0,0.0,0.0,0.0,0.0,0.0,0.0,0.0,0.0,0.0,0.0,0.0,0.0,0.0,0.0,0.0,0.0,0.0,0.0,0.0,0.0,0.0,0.0,0.0,2.2852,0.0,0.0,0.0,0.0,0.0,0.0,0.0,0.0,0.0,0.0,0.0,0.0,0.0,0.0,0.0,0.0,0.0,0.0,0.0,0.0,0.0,0.0,0.0,0.0,1.5298,1.5298,1.5298,1.5298,1.5298,1.5298,0.0,0.0,0.0,0.0,0.0,2.0273,2.035,2.0389,2.0389,2.0089,1.9679,1.9282,2.0514,2.071,2.0031,0.0,0.0,0.0,0.0,0.0,0.0,0.0,0.0,0.0,0.0,0.0,0.0,0.0,0.0,0.0,0.0,0.0,0.0,0.0,0.0,0.0,0.0,0.0,0.0,0.0,0.0,0.0,0.0,0.0,0.0,0.0,0.0,0.0,0.0,0.0,0.0,0.0,0.0,0.0,0.0,0.0,0.0,0.0,0.0,0.0,0.0,0.0,0.0,0.0,0.0,0.0,0.0,0.0,0.0,0.0,0.0,0.0,0.0,0.0,0.0,0.0,0.0,0.0,0.0,0.0,0.0,0.0,0.0,0.0,0.0,0.0,2.3125,0.0,0.0,0.0,0.0,0.0,0.0,0.0,0.0,0.0,0.0,0.0,0.0,0.0,0.0,0.0,0.0,0.0,0.0,0.0,0.0,0.0,1.5427,1.5516,1.5548,1.5628,1.5745,1.5628,1.5548,1.5548,1.6701,0.0,0.0,1.9109,1.9973,2.0312,2.0389,2.0342,2.0173,1.9585,1.9492,1.9883,2.1269,2.1434,2.0587,2.1151,0.0,0.0,0.0,0.0,0.0,0.0,0.0,0.0,0.0,0.0,0.0,0.0,0.0,0.0,0.0,0.0,0.0,0.0,0.0,0.0,0.0,0.0,0.0,0.0,0.0,0.0,0.0,0.0,0.0,0.0,0.0,0.0,0.0,0.0,0.0,0.0,0.0,0.0,0.0,0.0,0.0,0.0,0.0,0.0,0.0,0.0,0.0,0.0,0.0,0.0,0.0,0.0,0.0,0.0,0.0,0.0,0.0,0.0,0.0,0.0,0.0,0.0,0.0,0.0,2.75,2.75,2.75,2.7187,2.6641,2.7226,2.5195,2.1719,0.0,0.0,0.0,0.0,0.0,0.0,0.0,0.0,0.0,0.0,0.0,0.0,0.0,0.0,0.0,0.0,0.0,0.0,0.0,0.0,1.5664,1.6445,1.6522,1.6835,1.7577,1.6952,1.6522,1.6522,1.5974,1.6286,1.7722,1.7973,1.8737,2.0273,2.0389,2.0028,1.9252,1.9296,2.0391,2.25,2.2732,2.2972,2.3256,2.2198,2.1791,2.1918,0.0,0.0,0.0,0.0,0.0,0.0,0.0,0.0,0.0,0.0,0.0,0.0,0.0,0.0,0.0,0.0,0.0,0.0,0.0,0.0,0.0,0.0,0.0,0.0,0.0,0.0,0.0,0.0,0.0,0.0,0.0,0.0,0.0,0.0,0.0,0.0,0.0,0.0,0.0,0.0,0.0,2.3476,2.4141,0.0,0.0,0.0,0.0,0.0,0.0,0.0,0.0,0.0,0.0,0.0,0.0,0.0,0.0,2.5657,2.5657,2.7419,3.0937,3.3437,3.4648,3.4648,3.4648,3.3008,3.0391,3.3359,0.0,2.5078,2.5508,0.0,0.0,0.0,0.0,0.0,0.0,0.0,0.0,0.0,0.0,0.0,0.0,0.0,0.0,0.0,0.0,0.0,0.0,0.0,0.0,0.0,1.7812,1.8086,1.8008,1.8516,1.8437,1.75,1.793,1.8299,1.8499,1.893,1.9526,2.0273,2.0389,2.0249,1.9922,2.1445,2.2461,2.3047,2.4481,2.4996,2.4689,2.4503,2.3809,2.2776,2.1894,0.0,0.0,0.0,0.0,0.0,0.0,0.0,0.0,0.0,0.0,0.0,0.0,0.0,0.0,0.0,0.0,0.0,0.0,0.0,0.0,0.0,0.0,0.0,0.0,0.0,0.0,0.0,0.0,0.0,0.0,0.0,0.0,0.0,0.0,0.0,0.0,0.0,0.0,0.0,2.4417,2.4648,2.4922,2.4844,2.5,0.0,0.0,0.0,0.0,0.0,0.0,0.0,0.0,0.0,2.5466,2.7426,2.948,3.1484,3.1484,3.2266,3.3789,3.5273,3.7031,3.8906,3.8906,3.7031,3.3867,3.5351,3.4297,3.1172,2.7305,2.5703,2.5703,0.0,0.0,0.0,0.0,0.0,2.5703,0.0,0.0,0.0,0.0,0.0,0.0,0.0,0.0,0.0,0.0,0.0,0.0,1.8477,1.8945,1.9216,1.9305,2.0034,2.0078,1.9062,1.9531,1.9708,1.9439,1.9795,2.0073,2.0312,2.0605,2.1134,2.1914,2.3789,2.4805,2.4961,2.666,2.7163,2.6692,2.6897,2.5979,2.419,2.2737,2.2696,2.3472,0.0,0.0,0.0,0.0,0.0,0.0,0.0,0.0,0.0,0.0,0.0,0.0,0.0,0.0,0.0,0.0,0.0,0.0,0.0,0.0,0.0,0.0,0.0,0.0,0.0,0.0,0.0,0.0,0.0,0.0,0.0,0.0,0.0,0.0,0.0,0.0,0.0,2.5116,2.5625,2.5391,2.5195,2.5273,0.0,0.0,0.0,0.0,0.0,0.0,2.9303,3.0477,2.9383,2.5684,2.9341,3.3283,3.7305,3.7344,3.7344,3.7344,3.7344,3.8672,4.1211,4.1211,3.9297,3.6016,3.6016,3.6016,3.5547,2.9492,2.6484,2.5703,2.5703,2.5703,0.0,2.6719,2.7031,2.7148,0.0,0.0,0.0,0.0,0.0,0.0,0.0,0.0,0.0,0.0,0.0,1.6719,2.0039,1.9609,2.0124,2.2611,2.1422,2.0859,2.1641,1.9414,1.872,2.0258,1.9596,1.9511,2.0265,2.1246,2.2968,2.543,2.5586,2.7226,3.0195,2.9497,2.9509,3.011,2.9113,2.7857,2.6323,2.4491,2.3388,2.2946,2.2799,0.0,0.0,0.0,0.0,0.0,0.0,0.0,0.0,0.0,0.0,0.0,0.0,0.0,0.0,0.0,0.0,0.0,0.0,0.0,0.0,0.0,0.0,0.0,0.0,0.0,0.0,0.0,0.0,0.0,0.0,0.0,0.0,0.0,0.0,0.0,0.0,0.0,0.0,2.457,2.6602,0.0,0.0,0.0,0.0,2.5703,2.5742,2.7265,3.0624,3.3822,3.2545,2.5896,3.0624,3.5742,4.0898,4.0937,4.0937,4.0937,4.0937,4.1016,4.1211,4.1211,3.9297,3.6016,3.6016,3.6016,3.5703,3.2109,2.8672,2.5703,2.5703,2.5703,2.6094,2.9414,3.0625,3.1094,0.0,0.0,0.0,0.0,0.0,1.5391,1.5391,1.5898,1.6523,1.7344,1.8164,1.933,2.1071,2.2405,2.3357,2.3813,2.4273,2.4258,2.3555,2.2148,2.1574,2.2107,2.1297,2.1488,2.2893,2.4371,2.5898,2.7383,2.8418,2.9776,3.1418,3.1056,3.129,3.2006,3.1609,3.0533,2.8824,2.5274,2.4058,2.4316,2.213,2.1579,0.0,0.0,0.0,0.0,0.0,0.0,0.0,0.0,0.0,0.0,0.0,0.0,0.0,0.0,0.0,0.0,0.0,0.0,0.0,0.0,0.0,0.0,0.0,0.0,0.0,0.0,0.0,0.0,0.0,0.0,0.0,0.0,0.0,0.0,0.0,0.0,0.0,2.9336,3.0703,0.0,3.1484,2.8984,2.7851,2.8945,3.3164,3.668,3.9023,3.7839,3.6623,3.5703,3.5273,3.8086,4.4414,4.4492,4.4492,4.4492,4.4492,4.332,4.1211,4.1211,4.0508,3.9336,3.9336,3.9336,3.9062,3.5625,3.3437,3.2344,3.2344,3.3501,3.5136,3.4435,3.418,3.4375,0.0,0.0,0.0,0.0,1.5391,1.5508,1.5781,1.6328,1.6992,1.7773,1.9127,2.055,2.1965,2.3801,2.5129,2.5531,2.6065,2.5937,2.4922,2.3516,2.2724,2.2654,2.2372,2.3186,2.5195,2.6953,2.8437,2.9609,3.0939,3.1994,3.276,3.2377,3.2609,3.3314,3.3045,3.2275,3.1044,2.783,2.588,2.4764,2.271,2.2467,2.3256,0.0,0.0,0.0,0.0,0.0,0.0,0.0,0.0,0.0,0.0,0.0,0.0,0.0,0.0,0.0,0.0,0.0,0.0,0.0,0.0,0.0,0.0,0.0,0.0,0.0,0.0,0.0,0.0,0.0,0.0,0.0,0.0,0.0,0.0,0.0,3.1875,3.332,3.4726,3.5703,3.5976,3.3594,3.2226,3.2578,3.9023,4.3398,4.4531,4.2031,4.1328,4.2851,4.0664,4.168,4.625,4.6289,4.6289,4.6289,4.6289,4.5117,4.293,4.293,4.293,4.2851,4.1719,4.1211,4.1016,3.8711,3.7734,3.7734,3.7734,3.886,4.026,3.8268,3.762,3.7737,0.0,0.0,0.0,1.5388,1.5391,1.5703,1.6562,1.6719,1.7031,1.7812,1.8673,2.0148,2.2575,2.363,2.5214,2.7812,2.6481,2.5547,2.5703,2.332,2.1875,2.1875,2.2773,2.4453,2.6953,2.8789,3.0547,3.2266,3.2976,3.3761,3.4505,3.3519,3.3493,3.4237,3.3391,3.3006,3.2968,3.2199,2.8983,2.4446,2.4874,2.4001,2.2497,0.0,0.0,0.0,0.0,0.0,0.0,0.0,0.0,0.0,0.0,0.0,0.0,0.0,0.0,0.0,0.0,0.0,0.0,0.0,0.0,0.0,0.0,0.0,0.0,0.0,0.0,0.0,0.0,0.0,0.0,0.0,0.0,0.0,2.8551,3.2148,3.5156,3.6055,3.8437,3.9687,3.8828,3.9258,3.8633,3.6406,4.25,4.6289,4.6289,4.6289,4.6289,4.6289,4.6289,4.6289,4.6289,4.6289,4.6289,4.6289,4.6289,4.6289,4.6289,4.6289,4.6289,4.6093,4.2772,4.1288,4.1171,4.1171,4.1249,4.1322,4.1219,4.0908,4.0508,4.0508,4.0793,4.1116,0.0,0.0,1.5323,1.531,1.5352,1.5703,1.6562,1.7187,1.7656,1.7852,2.02,2.1852,2.1867,2.4356,2.6282,2.7086,2.6203,2.5625,2.5703,2.332,2.2422,2.3633,2.5742,2.7773,2.9766,3.1484,3.2891,3.4023,3.4113,3.4592,3.5339,3.4339,3.4661,3.6007,3.5776,3.5661,3.5661,3.543,3.3681,3.0814,2.794,2.6091,2.4911,0.0,0.0,0.0,0.0,0.0,0.0,0.0,0.0,0.0,0.0,0.0,0.0,0.0,0.0,0.0,0.0,0.0,0.0,0.0,0.0,0.0,0.0,0.0,0.0,0.0,0.0,0.0,0.0,0.0,0.0,0.0,0.0,3.1569,3.195,3.5195,3.8086,3.9609,4.1484,4.2578,4.2305,4.2812,4.2734,4.1641,4.4492,4.6289,4.6289,4.6289,4.6289,4.6289,4.6289,4.6289,4.6289,4.6289,4.6289,4.6289,4.6289,4.6289,4.6289,4.6289,4.6123,4.5725,4.4783,4.2962,4.0688,4.0688,4.216,4.4137,4.1639,4.06,4.0508,4.0508,4.06,4.0677,0.0,1.5234,1.5289,1.5296,1.5343,1.5703,1.6562,1.7383,1.777,1.7407,2.0585,2.2552,2.1598,2.429,2.6179,2.6248,2.583,2.5195,2.418,2.2734,2.2969,2.5391,2.7305,2.9609,3.2422,3.3789,3.5117,3.6328,3.6191,3.6363,3.6776,3.6175,3.6367,3.7238,3.7238,3.7238,3.7238,3.7238,3.6297,3.456,3.202,2.9956,2.8222,2.6859,2.6617,2.6879,2.6134,2.6251,2.6656,2.5725,0.0,0.0,0.0,0.0,0.0,0.0,0.0,0.0,0.0,0.0,0.0,0.0,0.0,0.0,0.0,0.0,0.0,0.0,0.0,0.0,0.0,0.0,0.0,0.0,3.2594,3.4983,3.6913,3.8906,4.0859,4.2578,4.3984,4.4922,4.5312,4.5664,4.5547,4.4844,4.5742,4.6289,4.6289,4.6289,4.6289,4.6289,4.6289,4.6289,4.6289,4.6289,4.6289,4.6289,4.6289,4.6289,4.6289,4.6114,4.5859,0.0,4.5586,4.447,4.2624,4.2624,4.3816,0.0,0.0,0.0,0.0,0.0,4.1393,4.2624,0.0,1.5234,1.5272,1.5311,1.5343,1.5703,1.6562,1.7305,1.7478,1.6711,2.0115,2.2197,2.1197,2.34,2.5057,2.5194,2.5195,2.4297,2.2187,2.2148,2.3672,2.6992,2.8164,3.0664,3.4766,3.5703,3.6953,3.8594,3.8476,3.8385,3.8325,3.8257,3.8176,3.8161,3.8161,3.8277,3.843,3.843,3.7868,3.6939,3.6477,3.4545,3.1681,3.0047,3.0012,3.0603,2.8909,2.8299,2.8018,2.6835,0.0,0.0,0.0,0.0,0.0,0.0,0.0,0.0,0.0,0.0,0.0,0.0,0.0,0.0,0.0,0.0,0.0,0.0,0.0,0.0,0.0,0.0,0.0,0.0,3.6013,3.8867,4.2226,4.2773,4.3437,4.5117,4.5976,4.6797,4.7656,4.7734,4.7461,4.6758,4.6562,4.6601,4.6875,0.0,0.0,0.0,0.0,4.668,4.668,4.6523,4.6445,4.6445,4.6367,4.6289,4.6289,4.5879,4.5624,4.5586,4.5586,4.5586,4.5586,4.5586,4.5586,4.5586,4.5586,4.3624,4.0816,4.1008,4.3008,0.0,0.0,1.5189,1.5234,1.5272,1.5304,1.5625,1.6562,1.6797,1.6774,1.6635,1.9053,2.0185,1.8593,2.0804,2.2692,2.3436,2.2969,2.2695,2.2852,2.3516,2.5156,2.793,3.0234,3.2812,3.5703,3.6601,3.7578,3.8594,3.8476,3.8396,3.8375,3.8313,3.8599,3.9138,3.9138,3.9869,4.1085,4.1085,4.1017,4.0858,3.9535,3.6483,3.2692,3.2109,3.1274,3.03,2.9936,2.9922,2.987,2.8433,2.8457,2.8758,2.683,2.585,0.0,0.0,0.0,0.0,0.0,0.0,0.0,0.0,0.0,0.0,0.0,0.0,0.0,0.0,0.0,0.0,0.0,0.0,0.0,3.591,3.8591,4.1289,4.4101,4.5117,4.5937,4.6953,4.7266,4.7695,4.8555,4.8633,4.875,4.9023,4.8203,4.8476,5.0312,4.9141,0.0,4.8398,4.8828,4.9023,4.9023,4.793,4.7344,4.7344,0.0,0.0,4.6289,4.6189,4.595,4.5586,4.5586,4.5586,4.5586,4.5586,4.5586,4.5586,4.5586,4.4355,4.2739,4.4124,4.5009,4.5586,0.0,1.5234,1.5234,1.5272,1.5304,1.5469,1.5977,1.6367,1.6584,1.6586,1.8762,1.9834,1.8523,1.9994,2.1047,2.1092,2.1172,2.2109,2.4219,2.5156,2.6953,3.0039,3.2226,3.4648,3.7226,3.8164,3.9023,3.9883,3.9844,3.9766,3.9687,3.9658,3.9799,4.0122,4.0535,4.1123,4.1931,4.2277,4.2297,4.2033,4.1227,3.9127,3.6279,3.4963,3.3802,3.2797,3.2366,3.1672,3.0789,2.9623,2.9093,2.8683,2.7149,2.6343,2.5938,0.0,0.0,0.0,0.0,0.0,0.0,0.0,0.0,0.0,0.0,0.0,0.0,0.0,0.0,2.9295,3.1476,0.0,3.5611,3.918,4.1175,4.3086,4.5312,4.6016,4.6445,4.6914,4.7344,4.793,4.8828,4.9297,4.9844,5.0508,5.0039,5.0195,5.1328,5.0625,4.9883,4.9336,4.957,4.957,4.9297,4.8594,4.8047,4.7578,4.6638,4.6152,4.6104,4.5989,4.5834,4.5586,4.5586,4.5586,4.5586,4.5586,4.5586,4.5586,4.5586,4.5086,4.4432,4.5278,4.4509,4.3278,0.0,1.5234,1.5234,1.5272,1.5304,1.5312,1.5391,1.5937,1.6355,1.6337,1.8234,1.9319,1.8682,1.9219,1.9507,1.9218,2.0156,2.2108,2.5377,2.6661,2.8767,3.2087,3.406,3.625,3.875,3.9531,4.0312,4.1211,4.1367,4.1367,4.1289,4.1445,4.1472,4.1377,4.2,4.2391,4.2508,4.3124,4.3081,4.2561,4.241,4.1427,3.99,3.7624,3.6343,3.5615,3.4548,3.2914,3.1064,3.0083,2.8989,2.7923,2.711,2.6851,2.6708,2.587,2.5552,0.0,0.0,0.0,0.0,0.0,0.0,0.0,0.0,0.0,2.8307,2.9845,3.1021,3.2659,3.5591,3.7128,3.8953,4.198,4.3363,4.4563,4.6054,4.625,4.6289,4.6289,4.707,4.8008,4.9062,4.9805,5.0547,5.1328,5.1406,5.1406,5.1406,5.1406,5.0976,5.0078,5.0039,4.9805,4.9375,4.9219,4.8711,4.7851,4.6678,4.6065,4.5911,4.568,4.5586,4.5586,4.5586,4.5586,4.5586,4.5586,4.5586,4.5586,4.5586,4.5586,4.5586,4.5586,4.3855,4.1854,0.0,1.5234,1.5234,1.5272,1.5304,1.5312,1.5391,1.543,1.5455,1.5471,1.6328,1.6888,1.6804,1.6875,1.7538,1.9062,2.0664,2.2706,2.5335,2.7721,3.0243,3.2928,3.549,3.7695,3.9531,3.9805,4.0312,4.1211,4.1914,4.2266,4.2266,4.3047,4.3359,4.3279,4.3393,4.3739,4.4218,4.4295,4.4343,4.4221,4.3492,4.2277,4.0781,3.9093,3.7645,3.6347,3.4699,3.2723,3.0751,2.9308,2.8736,2.8526,2.795,2.7736,2.7582,2.6708,2.5957,2.5412,2.5415,2.55,2.5977,2.7459,2.7894,2.8466,0.0,0.0,3.2557,3.3455,3.4985,3.6489,3.756,3.9707,4.1733,4.2909,4.4486,4.5671,4.6053,4.6133,4.6172,4.6289,4.707,4.8242,4.9883,5.0156,5.0547,5.1328,5.1406,5.1406,5.1406,5.1406,5.1328,5.1211,5.1211,5.1172,5.1133,5.0391,4.9609,4.8711,4.7066,4.6142,4.5911,4.568,4.5586,4.5586,4.5586,4.5586,4.5586,4.5586,4.5586,4.5586,4.5586,4.5586,4.5586,4.5586,4.5355,4.5086,0.0,0.0,1.5272,1.5349,1.5343,1.5312,1.5391,1.5364,1.5517,1.6,1.6305,1.6516,1.6516,1.6459,1.6999,1.8332,2.0223,2.2487,2.5091,2.8099,3.0945,3.3547,3.6323,3.841,3.9687,4.0312,4.0859,4.1211,4.1523,4.1953,4.2383,4.2305,4.2734,4.3672,4.3633,4.4008,4.4713,4.5075,4.4863,4.4204,4.3564,4.1965,3.9764,3.8486,3.6565,3.446,3.3867,3.1822,0.0,2.8515,2.8224,2.8133,2.7369,2.7121,2.7082,2.6697,2.6015,2.5412,2.5499,2.6591,2.7913,2.8618,3.0276,3.1976,3.2916,3.4169,3.5522,3.6895,3.8124,3.9522,4.1338,4.2569,4.3744,0.0,4.5665,4.6046,4.6657,4.6367,4.592,4.5467,4.6111,4.735,4.9258,4.9883,5.0547,5.1328,5.1406,5.1406,5.1406,5.1406,5.1406,5.1406,5.1836,5.1797,5.1289,5.1445,5.0781,4.9258,4.8526,4.7447,4.6103,4.5757,4.5586,4.5586,4.5586,4.5586,4.5586,4.5586,4.5586,4.5586,4.5586,4.5586,4.5586,4.5586,4.5586,4.5586,0.0,0.0,0.0,1.5388,1.5343,1.5352,1.5391,1.539,1.5598,1.6154,1.6181,1.6125,1.6087,1.624,1.6687,1.7638,1.935,2.1626,2.4486,2.758,3.0609,3.3478,3.6113,3.8151,3.9648,4.0391,4.0937,4.1211,4.1406,4.1836,4.2383,4.2031,4.2656,4.4062,4.4023,4.4414,4.5155,4.5403,4.4909,4.3953,4.3102,4.1054,3.8376,3.6922,3.4427,3.1773,3.2142,3.0338,2.7744,2.734,2.7198,2.7121,2.6736,2.6774,2.6928,2.6697,2.6043,2.5541,2.613,2.7965,2.9836,3.05,3.3031,3.5445,3.5849,3.7256,3.8892,4.0372,4.1152,4.2124,4.397,4.4316,4.4739,4.6047,4.6009,4.6061,4.6722,4.6364,4.5786,4.5195,4.5397,4.6356,4.8304,4.9055,4.9883,5.0976,5.1055,5.1172,5.1406,5.1406,5.1361,5.1352,5.1854,5.1932,5.1492,5.1932,5.1425,4.9976,5.0026,4.8718,4.626,4.5817,4.5586,4.5586,4.5586,4.5586,4.5586,4.5586,4.5586,4.5586,4.5586,4.5586,4.5586,4.5586,4.5586,4.5586,0.0,0.0,0.0,0.0,1.5382,1.5391,1.5391,1.5351,1.5296,1.535,1.5272,1.5171,1.506,1.5683,1.6459,1.7235,1.8145,2.0077,2.3327,2.5957,2.8964,3.2488,3.4428,3.6697,3.9531,3.9687,4.0234,4.1211,4.1992,4.2383,4.2422,4.3242,4.4101,4.4961,4.4961,4.5351,4.6015,4.5117,4.4455,4.3838,4.2068,3.9629,3.6806,3.4358,3.1391,2.8648,2.9419,2.8288,2.6263,2.5608,2.5418,2.562,2.6351,2.7208,2.7796,2.6851,2.6082,2.588,2.7577,2.9289,3.1206,3.3547,3.6098,3.8415,3.9954,4.1662,4.3162,4.397,4.4162,4.4201,4.4278,4.4316,4.4316,4.4355,4.5047,4.5648,4.5815,4.5804,4.5796,4.5868,4.5192,4.5463,0.0,4.7483,4.8242,5.0117,5.0234,5.0586,5.1367,5.1406,5.1336,5.1221,5.1241,5.1588,5.2277,5.1568,5.1183,5.1145,5.128,4.9567,4.6263,4.5819,4.5586,4.5586,4.5586,4.5586,4.5586,4.5586,4.5586,4.5586,4.5586,4.5586,4.5586,4.5586,4.5586,4.5586,0.0,0.0,0.0,0.0,0.0,1.5391,1.5391,1.5397,1.5336,1.5322,1.5177,0.0,0.0,0.0,0.0,0.0,1.7892,1.9453,2.2321,2.4874,2.7382,2.9823,3.2313,3.4438,3.6121,3.6813,3.7344,3.7695,3.8594,3.927,3.979,4.072,4.1914,4.3203,4.3242,4.3711,4.4453,4.3507,4.2346,4.0954,3.8898,3.6463,3.3849,3.1675,2.9513,2.757,0.0,2.6526,2.5359,2.4773,2.4928,2.5341,2.5156,2.5646,2.6284,2.5967,2.6969,2.8404,2.9487,3.2278,3.5321,3.7217,3.9583,4.1706,4.2777,4.347,4.3816,4.3547,4.2162,4.0969,4.0969,4.0969,4.1546,4.3239,4.4278,4.5257,4.6375,4.6579,4.6201,4.5107,4.568,0.0,0.0,0.0,0.0,5.0039,5.0195,5.0547,5.1367,5.1953,5.196,5.1222,5.2262,5.2569,5.2179,5.2141,5.17,5.0875,5.0914,5.0317,4.9125,4.6701,4.5586,4.5586,4.5586,4.5586,4.5586,4.5586,4.5586,4.5586,4.5586,4.5586,4.5586,4.5586,4.5586,4.5586,0.0,0.0,0.0,0.0,0.0,0.0,0.0,0.0,0.0,0.0,0.0,0.0,0.0,0.0,0.0,0.0,0.0,1.8104,2.0463,2.2136,2.4153,2.6636,2.8198,3.01,3.2454,3.2824,3.3375,3.4062,3.5,3.5689,3.6175,3.7118,3.8414,3.9988,4.0027,4.0698,4.1758,4.0468,3.8974,3.721,3.5156,3.2788,3.0343,2.8738,2.7487,0.0,2.5779,2.5367,2.5122,2.4755,2.4992,2.5352,2.4895,2.5084,2.5622,2.6285,2.7883,2.9847,3.1888,3.5095,3.8323,4.0219,4.236,4.4047,4.4239,4.4085,4.347,4.2047,3.9931,3.82,3.7584,3.7469,3.8315,4.0854,4.203,4.353,4.6086,4.6201,4.5893,4.5414,4.6009,4.6201,0.0,0.0,0.0,4.9023,4.9805,5.0537,5.1296,5.2146,5.2286,5.1549,5.2512,5.2743,5.2028,5.2354,5.1893,5.0702,5.0702,5.0702,5.0625,4.8394,4.7432,4.7432,4.7432,4.674,4.5586,4.5586,4.5586,4.5586,4.5586,4.5586,4.5586,4.5586,4.5586,4.5586,0.0,0.0,0.0,0.0,0.0,0.0,0.0,0.0,0.0,0.0,0.0,0.0,0.0,0.0,0.0,0.0,0.0,0.0,1.7927,1.807,1.9596,2.3016,2.2502,2.4193,2.861,2.7945,2.8466,3.039,3.1328,3.1757,3.1797,3.2668,3.396,3.5476,3.5515,3.6477,3.7968,3.6169,3.4489,3.289,3.1076,2.8878,2.6565,2.5685,2.5367,2.5274,2.4529,2.4791,2.5418,2.5399,2.5476,2.558,2.5619,2.5658,2.6062,2.786,2.9017,3.0611,3.4788,3.7746,4.0241,4.2646,4.4432,4.5355,4.4432,4.3547,4.2162,3.9623,3.7623,3.5853,0.0,0.0,3.4943,3.7507,3.8777,4.0893,4.5086,4.497,4.5124,0.0,0.0,0.0,0.0,0.0,0.0,4.7454,0.0,5.0459,5.1201,5.2082,5.241,5.2125,5.2125,5.2087,5.1895,5.2241,5.1818,5.0702,5.0702,5.0702,5.0702,5.0702,5.0702,5.0702,5.051,4.8586,4.5586,4.5586,4.5586,4.5586,4.5586,4.5586,4.5586,4.5586,4.5701,4.5855,0.0,0.0,0.0,0.0,0.0,0.0,0.0,0.0,0.0,0.0,0.0,0.0,0.0,0.0,0.0,0.0,0.0,0.0,1.7142,1.7779,1.8551,1.9625,2.0664,2.1834,2.3198,2.3717,2.4237,2.4749,2.6459,2.7206,2.7161,2.9351,3.0616,3.0994,3.1689,3.2275,3.2608,3.1476,3.0406,2.9269,2.7499,2.6012,2.475,2.3823,2.3501,2.355,2.399,2.4266,2.4557,2.5305,2.6028,2.6712,2.7377,2.8041,2.8899,3.0648,3.3063,3.5621,3.7901,4.0838,4.3457,4.4662,4.5278,4.5201,4.3739,4.1777,3.9546,3.7007,3.3596,3.097,0.0,0.0,0.0,3.66,3.9384,0.0,4.6047,4.6894,0.0,4.774,0.0,4.8279,4.7855,4.8297,0.0,0.0,4.8973,4.9828,5.1917,5.2838,5.2931,5.2125,5.2723,5.2684,5.1933,5.2241,5.1818,5.0702,5.0702,5.0702,5.0702,5.0702,5.0702,5.0548,4.8009,4.6394,4.5586,4.5586,4.5586,4.5586,4.5586,4.5586,4.5586,4.5586,4.7201,4.9394,0.0,0.0,0.0,0.0,0.0,0.0,0.0,0.0,0.0,0.0,0.0,0.0,0.0,0.0,0.0,0.0,0.0,0.0,0.0,1.6128,1.6608,1.7075,1.7668,1.8378,1.9287,1.9888,2.025,2.0417,2.2583,2.3272,2.2584,2.5147,2.6337,2.6397,2.7231,2.783,2.8153,2.7279,2.6195,0.0,0.0,2.3108,2.2332,2.2275,2.2689,2.3348,2.3546,2.3852,2.4378,2.5717,2.7039,2.8281,2.918,3.0273,3.168,3.3828,3.5931,3.8166,4.0559,4.2766,4.4607,4.5393,4.5316,4.4393,4.197,3.9762,3.7156,3.348,3.0573,2.8494,2.7739,2.8681,0.0,0.0,0.0,0.0,4.574,4.674,4.7432,0.0,4.9086,0.0,4.8702,4.9528,5.0221,0.0,5.0339,5.0913,5.2694,5.361,5.3776,5.3164,5.3646,5.3338,5.2125,5.1818,5.1318,5.0702,5.0702,5.0702,5.0702,5.0702,5.0702,5.0587,0.0,4.7817,4.7702,4.6201,4.5586,4.5586,4.5586,4.6509,4.7817,4.7817,4.9048,5.0702,0.0,0.0,0.0,0.0,0.0,0.0,0.0,0.0,0.0,0.0,1.4903,0.0,0.0,0.0,0.0,0.0,0.0,0.0,0.0,0.0,1.4477,1.5175,1.4531,1.4899,1.6481,1.6507,1.6678,1.7063,1.9421,1.9926,1.8697,2.0953,2.2073,2.2261,2.2817,2.3525,2.4266,2.3434,2.2273,2.0951,2.0927,2.0564,2.016,0.0,2.2209,2.3534,2.3116,2.3514,2.4576,2.6445,2.8193,2.9766,3.0898,3.2461,3.4414,3.7031,3.8362,3.9664,4.2765,4.4013,4.4662,4.5432,4.4778,4.3124,3.9877,3.7563,3.4808,3.0033,2.8357,2.7295,2.5783,2.6315,2.8402,3.2677,0.0,3.8108,4.4855,4.5778,4.6663,4.9125,4.9586,4.9702,4.9586,5.0471,5.1318,5.201,5.2413,5.2854,5.3486,5.4237,5.4605,5.4511,5.428,5.3549,5.2356,5.1241,5.0702,5.0702,5.0702,5.0702,5.0702,5.0702,5.0702,5.0702,0.0,0.0,5.0471,4.7509,4.6278,4.6278,4.6278,4.7817,5.0087,5.051,5.0702,5.0702,0.0,0.0,0.0,0.0,0.0,0.0,0.0,0.0,0.0,0.0,1.4753,1.349,0.0,0.0,0.0,0.0,0.0,0.0,0.0,0.0,0.0,1.4161,1.404,1.409,1.4431,1.4544,1.4635,1.4684,1.6547,1.7411,1.7352,1.9101,2.0039,2.0271,2.0189,2.0327,2.0649,2.007,1.9778,1.9686,1.9462,1.981,2.0443,1.9938,0.0,0.0,2.2369,2.3342,2.4572,2.7063,2.861,2.9922,3.2226,3.4648,3.7148,3.9766,4.1561,4.2971,4.4221,4.5047,4.5603,4.5719,4.397,4.153,3.893,3.5383,3.184,2.8883,2.7073,2.5938,2.5639,2.6875,2.9331,3.3582,3.556,3.8735,4.4927,4.6278,4.7355,0.0,5.0625,5.1202,5.0548,0.0,0.0,0.0,0.0,0.0,5.4318,5.4472,5.4511,5.4511,5.3087,5.2241,5.201,5.1125,5.0702,5.0702,5.0702,5.0702,5.0702,5.0702,5.0702,5.0702,0.0,0.0,5.0625,5.0048,4.9817,4.9817,4.9817,4.8432,4.6817,4.9663,5.0702,5.0702,0.0,0.0,0.0,0.0,0.0,0.0,0.0,1.5485,1.5457,1.6175,1.5825,1.5166,1.4183,1.4123,1.4108,0.0,0.0,0.0,0.0,0.0,0.0,1.3736,1.3743,1.3754,1.3754,1.4238,1.4339,1.4016,0.0,1.6377,1.6088,1.7665,1.8492,1.8609,1.8885,1.9073,1.9151,1.8906,1.8889,1.8972,1.8819,1.9106,1.955,0.0,0.0,0.0,2.207,2.2977,2.3803,2.5986,2.7647,2.9396,3.2968,3.5547,3.7891,4.0937,4.2344,4.3273,4.4937,4.5582,4.5819,4.5791,4.3453,4.0406,3.7494,3.3929,3.0381,2.7412,2.6204,2.5654,2.5654,2.67,2.8672,3.207,3.3571,3.6557,4.298,4.4512,4.607,4.9048,5.0894,5.1741,0.0,0.0,0.0,0.0,0.0,0.0,5.4511,5.4511,5.4511,5.4511,5.3703,5.3049,5.2587,5.1933,5.1279,5.0702,4.9779,4.9817,5.0702,5.0702,5.0702,5.0702,5.0702,0.0,5.0702,5.0702,5.0702,5.0702,5.0702,4.9702,4.8432,5.0087,5.0702,5.0702,0.0,0.0,0.0,0.0,0.0,0.0,1.5763,1.5515,1.5465,1.6388,1.6704,1.6695,1.6249,1.5221,1.4315,0.0,0.0,0.0,0.0,0.0,0.0,0.0,0.0,1.3539,1.3539,0.0,0.0,0.0,1.5186,0.0,0.0,0.0,0.0,0.0,0.0,1.8565,1.8603,1.8487,1.8452,0.0,0.0,1.8557,0.0,0.0,0.0,0.0,0.0,2.2373,2.2785,2.4803,2.6413,2.8256,3.234,3.5195,3.7617,4.0703,4.207,4.304,4.5101,4.5735,4.5775,4.5616,4.2783,3.926,3.6159,3.2722,2.9295,2.6262,2.5652,2.5703,2.5703,2.625,2.7656,0.0,3.1367,3.4105,4.0861,4.2607,4.4651,0.0,5.0933,0.0,5.1933,0.0,0.0,0.0,0.0,0.0,5.478,5.4434,5.4395,5.4741,5.4395,5.3895,5.3203,5.2587,5.1741,5.0664,4.9317,4.8971,4.9625,5.0356,5.0702,5.0702,5.0702,0.0,0.0,5.0702,5.0702,5.0702,5.0702,5.0702,5.0702,5.0702,5.0702,5.0779,0.0,0.0,0.0,0.0,0.0,0.0,1.4908,1.5025,1.5594,1.7279,1.6254,1.5885,1.7125,1.5941,1.4422,0.0,0.0,0.0,0.0,0.0,0.0,0.0,0.0,0.0,0.0,0.0,0.0,0.0,0.0,0.0,0.0,0.0,0.0,0.0,0.0,0.0,0.0,1.81,0.0,0.0,0.0,0.0,0.0,0.0,0.0,0.0,0.0,2.1309,2.1855,2.4581,2.5623,2.6256,2.9137,3.2851,3.6484,3.8398,4.1133,4.3774,4.4639,4.5406,4.5714,4.497,4.1536,3.7709,3.5255,3.1446,2.7903,2.6069,2.5703,2.5703,2.5703,2.5781,2.6914,3.0351,3.0859,3.3188,3.9963,4.2237,4.4456,4.7817,0.0,0.0,5.1972,0.0,0.0,0.0,0.0,0.0,0.0,5.4164,5.401,5.5549,5.4126,5.328,5.3203,5.2356,5.1548,5.0702,5.0548,4.8933,4.6163,4.9279,5.0702,5.0702,0.0,0.0,0.0,5.0702,5.0702,5.0702,5.0702,5.0702,5.0702,5.0702,5.0702,5.1125,0.0,0.0,0.0,0.0,0.0,0.0,1.4714,1.4947,1.5636,1.7368,1.6934,1.6336,1.5939,1.5428,1.4657,1.351,0.0,0.0,0.0,0.0,0.0,0.0,0.0,0.0,0.0,0.0,1.3049,1.2759,0.0,0.0,0.0,0.0,0.0,0.0,0.0,0.0,0.0,0.0,0.0,0.0,0.0,0.0,0.0,0.0,0.0,0.0,0.0,0.0,2.1502,2.2794,2.3888,2.4962,2.6129,2.8711,3.2109,3.5937,3.875,4.1125,4.3355,4.4954,4.568,4.4282,4.0663,3.6872,3.4434,3.0547,2.7133,2.5936,2.5703,2.5703,2.5703,2.5703,2.6328,2.8242,2.8516,3.031,3.5555,3.7683,4.0471,4.5303,4.8395,0.0,0.0,0.0,0.0,0.0,0.0,0.0,0.0,5.3087,5.2972,5.4164,5.3049,5.251,5.2702,5.1702,5.101,5.0702,5.001,4.9317,4.8702,4.9356,5.0048,5.0702,0.0,0.0,0.0,5.0702,5.0702,5.0702,5.0702,5.0702,5.0702,5.0702,5.1972,5.3895,0.0,0.0,0.0,0.0,0.0,1.2726,1.3878,1.4548,1.5278,1.626,1.6317,1.5933,1.4996,1.425,1.3854,1.3906,1.3211,0.0,0.0,0.0,0.0,0.0,0.0,0.0,0.0,0.0,1.2983,1.2915,1.3198,0.0,0.0,0.0,0.0,0.0,0.0,0.0,0.0,0.0,0.0,0.0,0.0,0.0,0.0,0.0,0.0,0.0,0.0,0.0,0.0,0.0,0.0,2.3953,2.4293,2.5859,2.8398,3.2812,3.5898,3.8357,4.0872,4.3024,4.409,4.2061,3.8912,3.5605,3.2907,2.9531,2.6758,2.5898,2.5703,2.5703,2.5703,2.5703,2.6055,2.7187,2.7383,2.8945,3.3398,3.5228,3.805,0.0,0.0,0.0,0.0,0.0,0.0,0.0,0.0,0.0,0.0,5.201,5.2164,5.3549,5.251,5.2125,5.2626,5.1587,5.0933,5.0702,4.9625,4.9663,5.0664,4.951,4.9625,5.0702,0.0,0.0,0.0,5.1241,5.1164,5.0702,5.0702,5.0702,5.0702,5.0702,5.2818,5.5703,0.0,0.0,0.0,0.0,0.0,0.0,1.2126,1.358,1.4462,1.3717,1.376,1.4099,1.4811,1.2464,1.1669,1.3719,1.3594,0.0,0.0,0.0,0.0,0.0,0.0,0.0,0.0,0.0,1.323,1.3673,1.3936,1.4854,1.6298,1.6298,0.0,0.0,0.0,0.0,0.0,0.0,0.0,0.0,0.0,0.0,1.6876,0.0,0.0,0.0,0.0,0.0,0.0,0.0,0.0,0.0,0.0,2.5,2.625,2.8906,3.2695,3.6172,3.6953,3.906,4.0419,3.7827,3.5831,3.3652,3.0406,2.8281,2.6758,2.5898,2.5703,2.5703,2.5703,2.5703,2.6289,2.8008,2.8281,3.0039,3.5078,3.6477,3.8529,0.0,0.0,0.0,0.0,0.0,0.0,0.0,0.0,0.0,0.0,5.1164,5.1856,5.4395,5.2818,5.2318,5.3164,5.2318,5.151,5.0702,4.9817,4.9856,5.0664,4.951,4.9625,0.0,0.0,0.0,0.0,5.2472,5.2202,5.0702,5.0702,5.0702,5.0702,5.0702,5.2818,5.5703,0.0,0.0,0.0,0.0,0.0,0.0,1.2111,1.3095,1.3802,1.3634,1.3163,1.2944,1.3175,1.2113,1.1659,1.2292,1.2043,0.0,0.0,0.0,0.0,0.0,0.0,0.0,0.0,1.3007,1.3124,1.3099,1.4024,1.5026,1.5947,1.6186,1.6864,1.7805,0.0,0.0,0.0,0.0,0.0,0.0,0.0,1.6696,1.6825,0.0,0.0,0.0,0.0,0.0,0.0,0.0,0.0,0.0,0.0,0.0,0.0,2.668,2.957,3.2812,3.4141,3.5994,3.7109,3.504,3.3257,3.1456,2.9216,2.7344,2.6016,2.5742,2.5703,2.5703,2.5703,2.5703,2.6289,2.8008,2.8789,3.0156,3.2969,3.5523,0.0,4.2024,0.0,0.0,0.0,0.0,0.0,0.0,0.0,0.0,0.0,0.0,5.1318,5.2702,5.1664,5.1471,5.2318,5.151,5.0933,5.0702,4.9817,4.9548,4.9779,4.8817,0.0,0.0,0.0,0.0,0.0,5.251,5.2895,5.251,5.3664,5.2702,5.0971,5.328,5.478,5.5703,0.0,0.0,0.0,0.0,0.0,0.0,1.1278,1.2281,1.2854,1.2304,1.2059,1.1891,1.1907,1.1241,1.1032,1.1481,1.102,0.0,0.0,0.0,0.0,0.0,0.0,0.0,1.2594,1.2842,1.31,1.3374,1.4406,1.5405,1.637,1.6729,1.7199,1.7772,1.732,1.7101,0.0,0.0,0.0,0.0,1.6382,1.6543,1.6644,0.0,0.0,0.0,0.0,0.0,0.0,0.0,0.0,0.0,0.0,0.0,0.0,0.0,2.7226,2.9297,3.0976,3.2734,3.3662,3.1844,3.0642,2.9453,2.7734,2.6484,2.5703,2.5703,2.5703,2.5703,2.5703,2.5703,2.6289,2.8008,2.875,2.9922,3.2305,0.0,0.0,0.0,0.0,0.0,0.0,0.0,0.0,0.0,0.0,0.0,0.0,0.0,5.0933,5.1433,5.0971,5.1087,5.1895,5.1087,5.051,5.0202,4.9317,4.8894,4.8856,4.7702,0.0,0.0,0.0,0.0,0.0,5.201,5.301,5.3626,5.4664,5.4049,5.2702,5.351,5.4587,5.5703,0.0,0.0,0.0,0.0,0.0,0.0,0.0,1.1229,1.1693,1.0268,1.0619,1.1019,1.1006,1.0046,0.9918,1.116,1.0523,0.0,0.0,0.0,0.0,0.0,0.0,0.0,1.2614,1.2659,1.3209,1.4249,1.5005,1.6,1.7254,1.7725,1.7896,1.7749,1.7141,1.6811,0.0,0.0,0.0,0.0,1.6485,1.6596,0.0,0.0,0.0,0.0,0.0,0.0,0.0,0.0,0.0,0.0,0.0,0.0,0.0,0.0,0.0,0.0,0.0,2.9296,3.0115,2.8514,2.8085,2.7695,2.6054,2.5703,0.0,2.5703,2.5703,2.5703,2.5781,2.5781,2.6367,2.8203,2.8555,2.9766,3.3125,3.5273,0.0,0.0,0.0,0.0,0.0,0.0,0.0,0.0,0.0,0.0,0.0,0.0,5.0625,5.0702,5.0587,5.0933,5.1818,5.101,5.024,4.9471,4.8509,4.8048,4.8048,4.6355,0.0,0.0,0.0,0.0,0.0,5.1202,5.2702,5.3933,5.3972,5.4664,5.5203,5.2164,5.2933,5.5549,0.0,0.0,0.0,0.0,0.0,0.0,0.0,0.0,0.0,0.0,1.0481,1.0168,1.0187,0.9704,0.9514,0.0,0.0,0.0,0.0,0.0,0.0,0.0,0.0,0.0,1.2922,1.3199,1.3505,1.378,1.5821,1.6703,1.6482,1.8507,1.8887,1.7783,1.7713,1.7042,0.0,0.0,0.0,0.0,1.6246,1.6543,0.0,0.0,0.0,0.0,1.8879,1.9361,0.0,0.0,0.0,0.0,0.0,0.0,0.0,0.0,2.506,2.5648,2.6038,0.0,2.673,2.6335,2.6201,2.6038,0.0,2.5572,2.5625,0.0,0.0,2.5898,2.6562,2.668,2.7461,2.9883,3.0859,3.2226,3.5,0.0,0.0,0.0,0.0,0.0,0.0,0.0,0.0,0.0,0.0,0.0,0.0,0.0,5.001,5.0664,4.9394,4.9433,5.0971,5.0125,4.9933,5.0356,4.8202,4.7509,4.8048,4.6355,0.0,0.0,0.0,0.0,4.8586,5.0933,5.251,5.3433,5.3857,5.4164,5.4395,5.4472,5.4203,5.3972,0.0,0.0,0.0,0.0,0.0,0.0,0.0,0.0,0.0,0.0,1.0233,0.9906,0.9906,0.9555,0.9429,0.0,0.0,0.0,0.0,0.0,0.0,0.0,0.0,1.3121,1.3013,1.3225,1.3573,1.409,1.5582,1.6637,1.7263,1.8406,1.8775,1.8278,1.768,1.6808,0.0,0.0,0.0,1.5856,1.6328,0.0,0.0,0.0,0.0,0.0,1.8895,1.9386,0.0,2.1615,2.1889,2.1842,0.0,0.0,0.0,0.0,2.429,2.4948,2.4948,2.5251,2.5569,2.5534,2.5528,2.5498,2.5498,2.5529,2.557,2.5584,0.0,2.582,2.6328,2.6719,2.7734,2.9922,3.1016,3.2891,0.0,0.0,0.0,0.0,0.0,0.0,0.0,0.0,0.0,0.0,0.0,0.0,0.0,0.0,4.9279,5.0087,4.8817,4.874,5.0087,4.924,4.8856,4.8933,4.7548,4.6932,4.6932,4.6009,0.0,0.0,0.0,0.0,4.8279,5.0433,5.1856,5.2664,5.3356,5.3626,5.3703,5.4318,5.4472,5.4357,0.0,0.0,0.0,0.0,0.0,0.0,0.0,0.0,0.0,0.0,0.0,0.0,0.0,0.0,0.0,0.0,0.0,0.0,0.0,0.0,0.0,0.0,1.3413,1.3345,1.3233,1.3133,1.3648,1.4853,1.5364,1.653,1.8294,1.843,1.8684,1.8915,1.7485,1.6485,0.0,0.0,0.0,1.5942,1.6591,0.0,0.0,0.0,0.0,0.0,0.0,0.0,0.0,2.1953,2.2102,2.1782,2.3471,0.0,0.0,0.0,0.0,0.0,2.4216,2.4819,2.5466,2.5484,2.5466,2.5466,2.5466,2.5466,2.5506,2.5556,0.0,2.5623,2.5818,2.6718,0.0,2.9531,0.0,0.0,0.0,0.0,0.0,0.0,0.0,0.0,0.0,0.0,0.0,0.0,0.0,0.0,0.0,0.0,0.0,4.9202,4.824,4.8125,4.9009,4.8279,4.7625,4.7086,4.6817,4.6394,4.5778,4.5663,0.0,0.0,0.0,0.0,4.824,4.9817,5.1048,5.1972,5.2587,5.2895,5.301,5.3164,5.4087,5.5164,0.0,0.0,0.0,0.0,0.0,0.0,0.0,0.0,0.0,0.0,0.0,0.0,0.0,0.0,0.0,0.0,0.0,0.0,0.0,0.0,0.0,1.3379,1.3413,1.365,1.4255,1.3649,1.4035,1.5476,1.6761,1.7558,1.7962,2.0441,2.0841,1.9313,1.7889,1.685,1.6246,1.6543,0.0,1.6301,1.6952,0.0,0.0,0.0,0.0,0.0,0.0,0.0,0.0,2.1155,2.1502,2.1696,2.2705,0.0,0.0,0.0,0.0,0.0,2.393,2.46,2.536,2.5399,2.539,2.5341,2.5341,2.539,2.5409,2.5443,0.0,0.0,0.0,2.7995,2.9453,0.0,0.0,0.0,0.0,0.0,0.0,0.0,0.0,0.0,0.0,0.0,0.0,0.0,0.0,0.0,0.0,0.0,0.0,4.8431,4.6835,4.6394,4.7278,4.7163,4.7355,4.7894,4.6471,4.6124,4.6701,4.5932,4.5586,0.0,0.0,4.7355,4.8202,4.9163,5.051,5.1856,5.1279,5.151,5.2202,5.2933,5.3356,5.3741,0.0,0.0,0.0,0.0,0.0,0.0,0.0,0.0,0.0,0.0,0.0,0.0,0.0,0.0,0.0,0.0,0.0,0.0,0.0,0.0,1.2891,1.3379,1.3413,1.3735,1.4461,1.4174,1.4919,1.6779,1.749,1.8437,1.9655,2.0636,2.0049,1.8277,1.7617,1.7027,1.6596,1.6722,1.6696,1.6591,0.0,0.0,0.0,0.0,0.0,0.0,0.0,0.0,0.0,0.0,2.1626,2.2125,2.2508,0.0,0.0,0.0,0.0,0.0,2.3099,2.411,2.516,2.516,2.5252,2.5303,2.5303,2.5303,2.5351,2.539,0.0,0.0,0.0,0.0,3.1008,0.0,0.0,0.0,0.0,0.0,0.0,0.0,0.0,0.0,0.0,0.0,0.0,0.0,0.0,0.0,0.0,0.0,0.0,0.0,4.6373,4.5855,4.6201,4.6201,4.6394,4.674,4.597,4.5817,4.6163,4.5778,4.5586,4.5624,0.0,4.6932,4.8125,4.8548,4.9702,5.1202,5.0818,5.0933,5.1433,5.3049,5.401,5.4664,0.0,0.0,0.0,0.0,0.0,0.0,0.0,0.0,0.0,0.0,0.0,0.0,0.0,0.0,0.0,0.0,0.0,0.0,0.0,1.2957,1.3007,1.3362,1.3413,1.3853,1.4749,1.4596,1.5677,1.8065,1.8065,1.9147,2.1204,2.0442,1.9234,1.7647,1.7482,1.7224,1.6901,1.6977,1.6977,1.6952,0.0,0.0,0.0,0.0,0.0,0.0,0.0,0.0,0.0,0.0,0.0,0.0,0.0,0.0,0.0,2.1863,2.2021,2.235,2.2664,2.3838,2.4979,2.4981,2.5149,2.5341,2.5572,2.5774,2.6015,0.0,0.0,0.0,0.0,2.9006,0.0,0.0,0.0,0.0,0.0,0.0,0.0,0.0,0.0,0.0,0.0,0.0,0.0,0.0,0.0,0.0,0.0,0.0,0.0,0.0,4.6116,4.5757,4.5586,4.5586,4.5586,4.5586,4.5586,4.5586,4.5586,4.5586,4.5586,4.5586,4.5586,4.6547,4.8086,4.8086,4.9125,5.0702,5.0702,5.0933,5.1471,5.3203,5.4626,5.5703,0.0,0.0,0.0,0.0,0.0,0.0,0.0,0.0,0.0,0.0,0.0,0.0,0.0,0.0,0.0,0.0,0.0,0.0,0.0,1.2366,1.267,1.3379,1.3413,1.4091,1.5494,1.4851,1.5933,1.8809,1.8809,1.9621,2.1204,2.069,1.9842,1.8751,1.8053,1.7589,1.7296,1.7612,1.7566,1.732,1.7893,0.0,0.0,0.0,0.0,0.0,0.0,0.0,0.0,0.0,0.0,0.0,0.0,0.0,2.1493,2.3141,2.2993,2.2488,2.3229,2.4208,2.4955,2.4861,2.5068,2.5495,2.6313,2.719,0.0,2.867,0.0,0.0,0.0,0.0,0.0,0.0,0.0,0.0,0.0,0.0,0.0,0.0,0.0,0.0,0.0,0.0,0.0,0.0,0.0,0.0,0.0,0.0,0.0,0.0,0.0,4.5757,4.5586,4.5586,4.5586,4.5586,4.5586,4.5586,4.5586,4.5586,4.5586,4.5586,4.5586,4.6547,4.8086,4.8086,4.9125,5.0702,5.0702,5.1664,5.3049,5.3203,5.428,5.5703,0.0,0.0,0.0,0.0,0.0,0.0,0.0,0.0,0.0,0.0,0.0,1.1746,1.2343,0.0,0.0,0.0,0.0,0.0,0.0,1.2973,1.3108,1.3379,1.3413,1.4091,1.5561,1.5325,1.6489,1.9155,1.9784,2.0164,2.0269,1.9911,1.9302,1.8469,1.7997,1.7726,1.7635,1.7927,1.7992,1.7893,1.8293,1.8467,0.0,0.0,0.0,0.0,0.0,0.0,0.0,0.0,2.0706,2.1314,2.1881,2.1896,2.1812,2.264,2.2876,2.3011,2.3376,2.4233,2.4993,2.4847,2.5056,0.0,0.0,2.7285,2.7873,2.7582,2.9286,0.0,0.0,0.0,0.0,0.0,0.0,0.0,0.0,0.0,0.0,0.0,0.0,0.0,0.0,0.0,0.0,0.0,0.0,0.0,0.0,0.0,0.0,0.0,0.0,4.5834,4.5719,4.5624,4.5586,4.5586,4.5586,4.5586,4.5586,4.5586,4.5586,4.5586,4.5586,4.6547,4.8086,4.8086,4.9125,5.0702,5.0702,5.2049,5.3933,5.3395,5.4241,5.5703,0.0,0.0,0.0,0.0,0.0,0.0,0.0,0.0,1.1113,0.0,0.0,0.0,0.0,1.2854,0.0,0.0,0.0,0.0,1.3105,1.326,1.3413,1.3413,1.3413,1.4023,1.5358,1.5624,1.689,1.9312,2.0414,2.054,1.9714,1.9514,1.9003,1.8205,1.7927,1.7794,1.7816,1.81,1.8205,1.8246,1.8603,1.8734,0.0,0.0,0.0,0.0,0.0,0.0,0.0,0.0,2.0283,2.0885,2.1267,2.1498,2.1809,2.2811,2.2989,2.2996,2.3469,2.4094,2.4612,2.4498,0.0,0.0,2.7121,2.8082,2.8698,2.8621,3.0467,0.0,0.0,0.0,0.0,0.0,0.0,0.0,0.0,0.0,0.0,0.0,0.0,0.0,0.0,0.0,0.0,0.0,0.0,0.0,0.0,0.0,0.0,0.0,0.0,0.0,4.5372,4.5278,4.524,4.5201,4.547,4.5624,4.5663,4.5663,4.568,4.568,4.568,4.6604,4.8163,4.8125,4.9125,5.0702,5.0702,5.2087,5.401,5.3433,5.4241,5.5703,0.0,0.0,0.0,0.0,0.0,0.0,0.0,0.0,1.0538,1.1408,1.0707,0.0,0.0,0.0,0.0,0.0,0.0,0.0,1.2491,1.3037,1.3413,1.3413,1.3413,1.3887,1.4885,1.5624,1.7086,1.9277,2.0621,2.0741,1.9679,1.9775,1.923,1.8205,1.7927,1.7828,1.7816,1.81,1.8225,1.8266,1.8789,1.9019,1.8893,0.0,0.0,0.0,0.0,0.0,0.0,0.0,1.9993,2.0269,2.1733,2.1573,2.1353,2.3992,2.3476,2.2301,2.3474,2.3797,2.3835,2.3835,0.0,0.0,2.8736,2.9813,3.0968,3.2583,3.2891,3.2891,3.2929,0.0,0.0,0.0,0.0,0.0,0.0,0.0,0.0,0.0,0.0,0.0,0.0,0.0,0.0,0.0,0.0,0.0,0.0,0.0,0.0,0.0,0.0,0.0,4.4482,4.4509,4.4414,4.4316,4.5201,4.568,4.5796,4.5796,4.5834,4.5911,4.5834,4.6758,4.8277,4.8163,4.9125,5.0702,5.0702,5.1741,5.3203,5.3203,5.4241,5.5703,0.0,0.0,0.0,0.0,0.0,0.0,0.0,0.0,1.1163,1.146,1.1741,0.0,0.0,0.0,0.0,0.0,0.0,0.0,1.329,1.3435,1.3493,1.3379,1.3413,1.3854,1.4796,1.6376,1.7807,1.9109,1.9647,1.9713,1.9427,1.9867,1.9613,1.8788,1.9054,1.8898,1.8353,1.8659,1.8825,1.8925,1.9286,1.9427,1.9361,0.0,0.0,0.0,0.0,0.0,0.0,0.0,0.0,0.0,2.1287,2.1779,2.2173,2.3004,2.3663,2.4056,2.385,2.4334,2.4952,2.5423,0.0,0.0,0.0,2.9775,0.0,0.0,3.3314,3.3276,3.4507,0.0,0.0,0.0,0.0,0.0,0.0,0.0,0.0,0.0,0.0,0.0,0.0,0.0,0.0,0.0,0.0,0.0,0.0,0.0,0.0,0.0,0.0,0.0,4.3885,4.437,4.4564,4.4453,4.5355,4.5796,4.5796,4.5796,4.5843,4.5914,4.5875,4.6447,4.7468,4.8566,5.001,5.151,5.0933,5.2087,5.4049,5.3433,5.4241,5.5703,0.0,0.0,0.0,0.0,0.0,0.0,1.0194,1.0595,1.0933,1.0978,1.1397,1.1575,0.0,0.0,0.0,1.1968,1.3015,0.0,1.3398,1.3519,1.3586,1.3589,1.3462,1.3749,1.452,1.683,1.823,1.8629,1.9063,1.9323,1.9308,1.9936,1.9758,1.9038,1.9536,1.9349,1.8622,1.9237,1.9372,1.925,1.9847,1.9894,1.9569,0.0,0.0,0.0,0.0,0.0,0.0,0.0,0.0,0.0,2.1043,2.157,2.1992,2.244,2.2962,2.3396,2.3395,2.387,0.0,2.5631,2.6902,2.8352,3.0044,0.0,0.0,0.0,0.0,3.3853,0.0,0.0,0.0,0.0,0.0,0.0,0.0,0.0,0.0,0.0,0.0,0.0,0.0,0.0,0.0,0.0,0.0,0.0,0.0,0.0,0.0,0.0,0.0,0.0,4.3086,4.3526,4.3679,4.3581,4.4823,4.524,4.4953,4.5624,4.5984,4.6064,4.631,4.6628,4.7101,4.8374,4.9663,5.0856,5.0356,5.151,5.3395,5.2895,5.378,5.5164,0.0,0.0,1.0272,1.0209,0.0,0.0,1.0194,1.0241,1.0296,1.0202,1.0194,1.0412,0.0,0.0,0.0,1.2188,1.2768,1.3148,1.31,1.3433,1.3739,1.3899,1.362,1.3736,1.428,1.7007,1.834,1.8163,1.8926,1.9323,1.9308,1.9953,1.9848,1.9181,1.9629,1.9463,1.8839,1.9759,1.9839,1.9457,2.035,2.0331,1.9708,1.939,0.0,0.0,0.0,0.0,0.0,0.0,0.0,0.0,2.1033,2.1134,2.1204,2.214,2.1817,2.1365,2.2393,2.2812,2.3312,2.5005,2.6851,0.0,3.0275,3.2429,3.4314,3.5199,0.0,0.0,0.0,0.0,0.0,0.0,0.0,0.0,0.0,0.0,0.0,0.0,0.0,0.0,0.0,0.0,0.0,0.0,0.0,0.0,0.0,0.0,0.0,0.0,0.0,0.0,4.2187,4.2266,4.2251,0.0,4.3824,4.4243,4.3649,4.5355,4.6169,4.6328,4.6865,4.7054,4.7062,4.772,4.8548,4.9394,4.9394,5.0433,5.1895,5.1895,5.2972,5.428,0.0,0.0,1.0273,1.0194,0.0,0.0,1.0306,1.0737,1.0933,1.0271,1.0194,1.0477,1.1169,1.1717,0.0,1.3133,1.3797,1.4101,1.393,1.4033,1.4024,1.3913,1.3969,1.4588,1.5802,1.676,1.7705,1.8641,1.9104,1.9323,1.9308,2.0067,2.0327,2.018,2.0293,2.0259,2.0094,1.9825,2.008,2.0653,2.0304,2.0407,2.069,1.9951,1.9508,0.0,0.0,0.0,0.0,0.0,0.0,0.0,2.1201,2.134,2.1276,2.1499,2.188,2.2174,2.1741,2.271,0.0,2.589,2.8621,3.116,3.216,3.2776,3.343,3.4314,0.0,0.0,0.0,0.0,0.0,0.0,0.0,0.0,0.0,0.0,0.0,0.0,0.0,0.0,0.0,0.0,0.0,0.0,0.0,0.0,0.0,0.0,0.0,0.0,0.0,4.1445,4.1445,4.207,4.2343,0.0,4.3376,4.3803,4.3649,4.5355,4.6169,4.6289,4.6203,4.655,4.7178,4.7181,4.8048,4.9394,4.9394,5.0433,5.1895,5.1895,5.2587,5.3433,0.0,0.0,0.0,0.0,0.0,0.0,0.0,0.0,1.1296,1.0866,1.0795,1.0899,1.1277,1.1933,0.0,0.0,1.374,1.4025,1.4344,1.4257,1.4118,1.3997,1.4232,1.4935,1.6175,1.6666,1.7424,1.8467,1.8515,1.8812,1.9323,2.0115,2.0283,1.9932,2.0319,2.0283,1.9947,2.0493,2.0889,2.1103,2.1189,2.1168,2.1015,2.0123,1.9612,1.9331,1.9701,0.0,0.0,0.0,0.0,0.0,0.0,0.0,2.068,2.068,2.0985,2.1329,2.1329,2.2077,0.0,2.5466,0.0,3.0198,3.1429,3.1698,3.2045,3.3314,0.0,0.0,0.0,0.0,0.0,0.0,0.0,0.0,0.0,0.0,0.0,0.0,0.0,0.0,0.0,0.0,0.0,0.0,0.0,0.0,0.0,0.0,0.0,0.0,4.0156,4.0156,4.0586,4.0976,4.1172,4.1172,4.247,4.3279,4.3704,4.4967,4.5624,4.5703,4.5913,4.6202,4.6583,4.645,4.7317,4.8779,4.8779,4.9817,5.1318,5.1318,5.1856,5.251,0.0,0.0,0.0,0.0,0.0,0.0,0.0,0.0,0.0,1.1735,1.1671,1.1671,1.1757,1.2256,1.2903,0.0,0.0,0.0,1.4451,1.4332,1.4232,1.4193,1.4368,1.4964,1.5991,1.6468,1.7055,1.7766,1.7772,1.8224,1.9051,1.9847,1.9957,1.9528,2.0079,2.0021,1.9678,2.1198,2.1655,2.1441,2.225,2.2076,2.124,2.0361,1.9763,1.9419,1.9713,1.9832,1.9888,2.0199,0.0,0.0,0.0,0.0,1.9993,1.9993,1.9993,2.0146,2.0871,2.1493,2.2504,2.4726,2.6621,0.0,2.966,2.9967,3.0352,0.0,0.0,0.0,0.0,0.0,0.0,0.0,0.0,0.0,0.0,0.0,0.0,0.0,0.0,0.0,0.0,0.0,0.0,0.0,0.0,0.0,0.0,0.0,3.8945,3.9648,3.8984,3.8945,3.9687,3.9687,3.9687,3.9687,4.1238,4.2442,4.3281,4.4297,4.4844,4.5039,4.5781,4.6008,4.5896,4.583,4.6624,4.7894,4.7894,4.8856,5.0279,5.0433,5.0894,5.1395,0.0,0.0,0.0,0.0,0.0,0.0,0.0,0.0,0.0,0.0,1.2625,1.2892,1.3541,1.3536,1.3777,1.4651,1.4468,1.4389,1.4488,0.0,0.0,1.4453,1.4476,1.4903,1.5747,1.5821,1.6041,1.6358,1.7481,1.7994,1.7935,1.881,1.9606,2.0319,1.9711,1.9893,2.0648,2.1054,2.168,2.2435,2.2671,2.2604,2.2299,2.1289,2.045,1.975,1.9797,1.9861,2.0022,2.0233,2.0312,0.0,0.0,0.0,1.9993,1.9993,1.9993,2.0031,2.0146,0.0,2.4014,0.0,2.6621,2.7967,0.0,0.0,2.8313,0.0,0.0,0.0,0.0,0.0,0.0,0.0,0.0,0.0,0.0,0.0,0.0,0.0,0.0,0.0,0.0,0.0,0.0,0.0,0.0,0.0,0.0,3.8594,3.8633,3.8789,3.8672,3.8672,3.8789,3.8789,3.8789,3.8789,3.9759,4.0697,4.1601,4.3164,4.4297,4.5039,4.5781,4.6023,4.589,4.5827,4.6278,4.7048,4.7048,4.7625,4.8548,4.9317,4.9625,4.9817,0.0,0.0,0.0,0.0,0.0,0.0,0.0,0.0,0.0,0.0,0.0,1.362,1.3947,1.4245,1.4532,1.492,1.4804,1.4736,1.4736,1.4589,1.4533,1.4622,1.4545,1.4866,1.5674,1.527,1.5747,1.7202,1.7198,1.7672,0.0,1.8866,1.9319,1.9822,1.9932,2.004,2.0229,2.1795,2.25,2.2609,2.2728,2.2441,2.1786,2.0847,1.9888,1.9156,1.9763,2.0017,2.0098,2.0233,2.0312,2.0312,2.0312,0.0,0.0,0.0,2.0078,2.0161,2.0161,2.1393,2.2735,0.0,2.412,2.5274,2.6236,0.0,0.0,0.0,0.0,0.0,0.0,0.0,0.0,0.0,0.0,0.0,0.0,0.0,0.0,0.0,0.0,0.0,0.0,0.0,0.0,0.0,0.0,0.0,3.5664,3.6133,3.6641,3.7148,3.7148,3.7383,3.7851,3.7851,3.8359,3.9336,3.9726,4.0351,4.125,4.2422,4.3437,4.4336,4.5664,4.6127,4.6006,4.5905,4.6296,4.695,4.6894,4.7394,4.8163,4.8548,4.8663,4.8817,0.0,0.0,0.0,0.0,0.0,0.0,0.0,0.0,0.0,0.0,0.0,1.4351,1.4337,0.0,0.0,0.0,1.4933,1.4904,1.4904,1.4695,1.4611,1.4688,1.4578,1.4793,1.538,1.4829,1.549,1.7509,1.69,1.7424,1.9014,1.9041,1.915,0.0,2.0178,2.0226,1.9825,2.2476,2.308,2.2345,2.267,2.2114,2.0948,2.0041,1.9249,1.8734,1.9495,0.0,0.0,0.0,0.0,0.0,0.0,2.0312,0.0,0.0,0.0,2.0304,2.0241,0.0,2.1504,2.1504,2.2158,2.312,0.0,0.0,0.0,0.0,0.0,0.0,0.0,0.0,0.0,0.0,0.0,0.0,0.0,0.0,0.0,0.0,0.0,0.0,0.0,0.0,0.0,0.0,0.0,0.0,3.3398,3.4023,3.4687,3.5312,3.5351,3.5742,3.6641,3.6875,3.7734,3.9258,3.9453,4.0039,4.0898,4.1914,4.2891,4.3789,4.5312,4.6016,4.6092,4.5975,4.6205,4.6698,4.6586,4.6932,4.7509,4.7702,4.7817,4.7932,0.0,0.0,0.0,0.0,0.0,0.0,0.0,0.0,0.0,0.0,0.0,1.5295,1.5229,1.5151,1.5076,1.5002,1.4933,1.4904,1.4904,1.4785,1.4678,1.4688,1.4578,0.0,1.4561,1.4524,1.494,1.5821,1.6528,1.7298,1.817,1.8941,1.9308,1.9323,2.0359,2.0412,1.996,0.0,2.2929,2.165,2.2466,2.1812,2.0249,1.9219,1.8901,1.8943,0.0,0.0,0.0,0.0,0.0,0.0,0.0,0.0,0.0,0.0,0.0,0.0,0.0,2.0736,0.0,2.1504,2.2158,2.2812,0.0,0.0,0.0,0.0,0.0,0.0,0.0,0.0,0.0,0.0,0.0,0.0,0.0,0.0,0.0,0.0,0.0,0.0,0.0,0.0,0.0,0.0,0.0,0.0,3.3359,3.3437,3.3476,3.3516,3.3555,3.3945,3.4844,3.5664,3.6523,3.7461,3.8281,3.9101,4.0039,4.1641,4.2891,4.375,4.4687,4.5469,4.6093,4.5956,4.5893,4.5834,4.5701,4.5701,4.5817,4.6663,4.6971,4.7086,0.0,0.0,0.0,0.0,0.0,0.0,0.0,0.0,0.0,0.0,0.0,0.0,0.0,1.5272,1.5222,1.5191,1.5033,1.5232,1.5871,1.5258,1.4841,1.4841,1.4678,1.46,1.4499,1.5013,1.5674,1.6468,1.7275,1.8096,1.8867,1.9161,1.9323,1.9323,2.0344,2.0749,2.0788,2.2913,0.0,2.2371,2.2073,2.1004,1.9504,1.9081,0.0,0.0,0.0,0.0,0.0,0.0,0.0,0.0,0.0,0.0,0.0,0.0,0.0,0.0,0.0,0.0,0.0,2.0719,2.0966,2.1312,2.185,0.0,0.0,0.0,0.0,0.0,0.0,0.0,0.0,0.0,0.0,0.0,0.0,0.0,0.0,0.0,0.0,0.0,0.0,0.0,0.0,0.0,0.0,0.0,3.1797,3.2344,3.2617,3.2617,3.3125,3.3828,3.4687,3.5,3.5898,3.7305,3.8164,3.9062,3.9922,4.1094,4.207,4.2891,4.3789,4.4961,4.6211,4.6083,4.5957,4.5873,4.5757,4.568,4.5624,4.5932,4.6086,4.6201,0.0,0.0,0.0,1.1905,0.0,1.3274,1.3274,1.3983,1.4727,1.5312,0.0,0.0,0.0,0.0,1.5337,1.5311,1.5415,1.5676,1.6035,1.5636,1.5228,1.4963,1.5038,1.4945,1.4578,1.5037,1.5821,1.6908,1.7422,1.8243,1.9323,1.9323,1.9323,1.9323,2.0141,2.0539,0.0,0.0,0.0,2.1987,0.0,2.0696,1.9434,0.0,0.0,0.0,0.0,0.0,0.0,0.0,0.0,0.0,0.0,0.0,0.0,0.0,0.0,0.0,1.9863,0.0,0.0,0.0,1.985,1.9735,2.085,0.0,0.0,0.0,0.0,0.0,0.0,0.0,0.0,0.0,0.0,0.0,0.0,0.0,0.0,0.0,0.0,0.0,0.0,0.0,0.0,0.0,0.0,0.0,3.0469,3.1016,3.1445,3.1758,3.2578,3.3281,3.3867,3.4414,3.5273,3.6445,3.7617,3.8633,3.9492,4.0351,4.1367,4.2422,4.3008,4.4258,4.5898,4.6016,4.602,4.5873,4.5808,4.5719,4.5586,4.5586,4.5586,4.5663,1.2714,1.2728,1.2743,1.273,1.3448,1.3998,1.3998,1.4753,1.539,1.543,0.0,0.0,0.0,0.0,0.0,1.5426,1.608,1.6195,1.5388,1.5962,1.5949,1.5109,1.5631,1.5567,1.48,1.4652,1.5343,1.6945,1.6945,1.7752,1.9323,1.9323,1.9323,1.9301,1.9663,1.9809,1.9983,0.0,2.262,2.0419,0.0,2.1004,2.0119,0.0,0.0,0.0,1.9484,1.9214,0.0,0.0,0.0,0.0,0.0,0.0,0.0,0.0,0.0,0.0,0.0,0.0,0.0,0.0,0.0,0.0,1.985,0.0,0.0,0.0,0.0,0.0,0.0,0.0,0.0,0.0,0.0,0.0,0.0,0.0,0.0,0.0,0.0,0.0,0.0,0.0,0.0,0.0,0.0,2.8672,2.9531,2.9609,3.0039,3.0859,3.1719,3.2187,3.2187,3.3828,3.4687,3.4726,3.6484,3.7734,3.8594,3.9492,4.0781,4.2344,4.2383,4.3359,4.5039,4.5742,4.5991,4.5909,4.5843,4.5719,4.5586,4.5586,4.5586,4.5586,1.3464,1.3618,1.3623,1.3633,1.3831,1.399,1.399,1.426,1.4928,0.0,0.0,0.0,1.7539,1.7376,1.744,1.7992,1.7671,1.7594,1.7933,1.756,1.7171,1.6872,1.6426,1.6272,1.65,1.6421,1.6842,1.7766,1.8353,1.8867,1.9323,1.9323,1.9323,1.9301,1.9663,1.9809,1.9908,2.1531,0.0,2.2143,2.1065,2.0542,0.0,0.0,0.0,0.0,0.0,1.9705,1.9302,0.0,1.9686,1.9212,0.0,0.0,0.0,0.0,0.0,0.0,1.9934,0.0,0.0,0.0,0.0,0.0,1.8311,1.8703,0.0,0.0,0.0,0.0,0.0,0.0,0.0,0.0,0.0,0.0,0.0,0.0,0.0,0.0,0.0,0.0,0.0,0.0,0.0,0.0,2.793,2.8672,2.9531,3.0195,3.0664,3.0898,3.1133,3.1562,3.2187,3.3242,3.4062,3.4726,3.6484,3.7422,3.7695,3.9219,4.0156,4.0664,4.1875,4.3047,4.4101,4.4961,4.5584,4.6027,4.5918,4.5834,4.5719,4.5624,4.5586,4.5586,1.4343,1.4464,1.4503,1.448,1.4518,1.4634,1.4979,1.5094,1.5618,0.0,0.0,0.0,1.793,1.8594,1.8899,1.8625,1.8428,1.8381,1.8496,1.835,1.8066,1.7662,1.7469,1.7347,1.7356,1.7218,1.7535,1.8291,1.866,1.9022,1.9427,1.9353,1.9323,1.9301,1.9663,1.9809,1.987,0.0,0.0,0.0,2.1633,0.0,0.0,2.0158,1.9934,0.0,0.0,0.0,1.9252,1.9722,1.936,0.0,0.0,0.0,0.0,0.0,0.0,0.0,0.0,0.0,0.0,0.0,0.0,0.0,1.7626,1.7818,1.8196,0.0,0.0,0.0,0.0,0.0,0.0,0.0,0.0,0.0,0.0,0.0,0.0,0.0,0.0,0.0,0.0,0.0,0.0,0.0,2.6914,2.7734,2.8984,2.9883,3.0508,3.0898,3.0898,3.1133,3.1641,3.2812,3.3633,3.418,3.5937,3.6953,3.7344,3.8359,3.9219,3.9961,4.0937,4.2031,4.3242,4.4101,4.5117,4.6092,4.5939,4.5866,4.5796,4.5624,4.5586,4.5586,0.0,1.5266,1.5349,1.5349,1.5426,1.5734,1.6503,1.6651,1.6982,0.0,1.8153,1.8203,1.8281,1.9609,1.9883,1.832,1.8841,1.8903,1.8136,1.8766,1.8819,1.8003,1.8513,1.854,1.7865,1.7535,1.7836,1.8736,1.8414,1.8726,1.9582,1.9398,1.9323,1.9301,1.9663,1.9809,1.987,0.0,0.0,2.1581,2.241,2.2774,0.0,0.0,2.0936,0.0,2.0758,1.9873,1.9104,1.9114,1.8604,0.0,0.0,0.0,0.0,0.0,1.984,0.0,0.0,0.0,0.0,0.0,0.0,0.0,1.7311,1.7003,1.7048,0.0,0.0,0.0,0.0,0.0,0.0,0.0,0.0,0.0,0.0,0.0,0.0,0.0,0.0,0.0,0.0,0.0,2.5703,2.5703,2.5781,2.6523,2.8086,2.9062,2.9961,3.0742,3.0859,3.0898,3.0898,3.2461,3.332,3.3437,3.5078,3.6328,3.7148,3.7266,3.8203,3.9766,3.9844,4.0859,4.2461,4.3359,4.4609,4.5976,4.5942,4.5902,4.5796,4.568,4.5586,4.5586,1.5189,1.5772,1.6234,1.6234,1.6772,1.7273,1.7426,1.7528,1.7895,1.8814,1.9614,2.0078,2.0078,2.0391,2.043,2.0039,2.0151,2.0101,1.9827,1.9965,1.9965,1.9812,1.9265,1.9134,1.9535,1.884,1.8837,1.9583,1.9388,1.9406,1.9582,1.9398,1.9323,1.9301,1.9663,1.9809,1.987,0.0,0.0,2.1504,2.1756,0.0,2.1899,2.0847,2.0533,2.0695,2.0419,1.9796,1.9081,0.0,1.8975,1.9001,0.0,0.0,0.0,0.0,0.0,0.0,0.0,0.0,0.0,0.0,0.0,0.0,1.5965,1.6619,1.7395,0.0,0.0,0.0,0.0,0.0,0.0,0.0,0.0,0.0,0.0,0.0,0.0,0.0,0.0,0.0,0.0,0.0,2.5703,2.5703,2.6367,2.6875,2.7226,2.875,2.9687,2.9844,3.0547,3.0898,3.0898,3.1914,3.2773,3.3398,3.4453,3.5391,3.6289,3.6992,3.7851,3.8906,3.9609,4.0859,4.2461,4.3359,4.4297,4.5273,4.5855,4.5982,4.5873,4.5796,4.568,4.5586,1.5604,1.6084,1.6512,1.6926,1.7392,1.7856,1.828,1.8388,1.8734,1.9641,2.0224,2.0542,0.0,0.0,0.0,2.0508,2.0898,2.1127,2.1064,2.1391,2.1589,2.1589,2.0743,2.0595,2.1387,2.0098,1.9793,2.0642,1.9951,1.9688,1.9809,1.9545,1.924,1.8949,2.0047,2.031,2.0017,0.0,2.1927,2.1573,2.1641,0.0,2.1661,2.0794,2.0466,2.0427,2.035,2.0035,1.9635,1.9219,1.9619,0.0,0.0,1.9996,2.0296,0.0,2.0365,2.0373,0.0,0.0,0.0,1.8728,0.0,0.0,0.0,1.7157,1.787,1.8307,0.0,0.0,0.0,0.0,0.0,0.0,0.0,0.0,0.0,0.0,0.0,0.0,0.0,0.0,0.0,0.0,2.5703,2.5703,2.6094,2.6719,2.7617,2.8476,2.9336,3.0234,3.0664,3.0898,3.0898,3.2148,3.3008,3.3437,3.4726,3.5586,3.6016,3.6445,3.7344,3.8633,3.9062,4.0234,4.1914,4.3164,4.3711,4.3867,4.5469,4.6066,4.5969,4.5827,4.5757,4.568,1.626,1.6633,1.7009,1.764,1.8007,1.8427,1.9126,1.9242,1.9511,2.0196,2.0572,0.0,0.0,0.0,0.0,0.0,2.0742,2.1289,2.1758,2.2215,2.2523,2.2675,2.209,2.1966,2.2312,2.1148,2.0871,2.1504,2.0433,2.0099,2.0489,1.99,1.9489,1.9307,2.0494,2.0871,0.0,0.0,0.0,2.1611,0.0,2.1726,2.1623,2.0788,2.055,2.0627,2.0389,2.0312,2.0235,1.9665,0.0,2.1273,1.9896,2.0542,0.0,0.0,0.0,0.0,0.0,0.0,0.0,0.0,0.0,1.9126,0.0,0.0,0.0,1.9579,0.0,0.0,0.0,0.0,0.0,0.0,0.0,0.0,0.0,0.0,0.0,0.0,0.0,0.0,0.0,0.0,2.5703,2.5703,2.5703,2.6406,2.7969,2.8203,2.9023,3.0586,3.082,3.0898,3.0898,3.2422,3.3242,3.3437,3.5,3.5859,3.6016,3.6016,3.6953,3.8594,3.8594,3.9609,4.1328,4.2812,4.3125,4.2891,4.5234,4.6016,4.5857,4.588,4.5812,4.5796,1.7112,1.7899,1.8525,1.864,1.9394,2.0042,2.0158,2.0158,2.0196,2.0312,0.0,0.0,0.0,0.0,0.0,0.0,0.0,0.0,2.1641,0.0,2.1078,2.1803,2.2466,2.2128,2.0619,2.1902,2.2209,2.1504,2.1244,2.1526,2.2255,2.0558,2.0526,2.1809,2.0657,0.0,0.0,0.0,2.1611,0.0,2.1685,2.1756,0.0,2.0779,2.0875,2.1459,2.0589,2.0312,2.0389,0.0,2.135,2.1466,0.0,2.1889,2.235,0.0,0.0,0.0,0.0,0.0,0.0,0.0,1.9682,0.0,0.0,0.0,1.8789,1.8119,0.0,0.0,0.0,0.0,0.0,0.0,0.0,0.0,0.0,0.0,0.0,0.0,0.0,0.0,0.0,0.0,0.0,2.5703,2.5703,2.6133,2.7109,2.7891,2.875,2.9726,3.0508,3.0898,3.0898,3.1875,3.2695,3.3398,3.4375,3.5234,3.6016,3.6016,3.6953,3.8594,3.8594,3.9609,4.1289,4.2187,4.293,4.3711,4.5547,4.5742,4.5039,4.5776,4.5966,4.5796,1.7845,1.8316,1.8848,1.9292,2.0269,2.1004,2.1004,2.1427,2.1658,2.138,2.201,0.0,0.0,0.0,0.0,0.0,0.0,2.1406,0.0,0.0,0.0,2.3929,2.3814,2.3592,2.3248,2.2516,2.2167,2.2235,2.112,2.1025,2.1933,2.1079,2.1096,2.1817,2.1684,0.0,2.2048,0.0,2.238,0.0,0.0,0.0,0.0,2.0935,2.0598,2.0828,2.0427,2.0312,2.0427,0.0,2.185,0.0,0.0,0.0,0.0,0.0,0.0,0.0,0.0,0.0,0.0,0.0,0.0,0.0,0.0,0.0,1.9919,0.0,0.0,0.0,0.0,0.0,0.0,0.0,0.0,0.0,0.0,0.0,0.0,0.0,0.0,0.0,0.0,0.0,0.0,0.0,0.0,2.6094,2.6953,2.7812,2.8711,2.957,3.0469,3.1133,3.1641,3.2031,3.2851,3.4141,3.4531,3.5156,3.6016,3.6016,3.6953,3.8594,3.8594,3.9609,4.125,4.207,4.2617,4.3125,4.4844,4.5586,4.5703,4.5976,4.6045,4.595,1.8545,1.8764,1.9103,1.9696,2.0738,2.162,2.2004,2.2697,2.3004,2.2573,2.2983,0.0,2.21,2.2275,0.0,0.0,2.1552,2.1992,0.0,0.0,2.3906,2.457,2.4666,0.0,2.4433,2.3287,2.2838,2.3176,2.178,2.1626,2.2534,2.1953,2.2,2.2543,0.0,2.262,2.2303,0.0,0.0,2.2722,2.2722,2.2602,2.2223,2.1163,2.0392,1.9965,2.0196,2.0312,2.0465,2.1504,2.2274,0.0,2.2812,0.0,0.0,0.0,0.0,0.0,2.1996,0.0,0.0,0.0,0.0,0.0,0.0,0.0,0.0,0.0,0.0,0.0,0.0,0.0,0.0,0.0,0.0,0.0,0.0,0.0,0.0,0.0,0.0,0.0,0.0,0.0,0.0,0.0,2.5703,0.0,2.6953,2.7812,2.8711,2.957,3.0469,3.1211,3.1836,3.2305,3.3125,3.4336,3.4844,3.5391,3.6016,3.625,3.7187,3.8594,3.8867,3.9805,4.125,4.207,4.2539,4.2891,4.4414,4.5547,4.6289,4.6172,4.6118,4.609,1.9286,1.9511,1.9771,1.9809,2.0738,2.1966,2.3303,2.3812,2.3937,2.3611,0.0,0.0,0.0,0.0,0.0,0.0,0.0,1.918,2.1758,0.0,2.1992,2.2031,2.4336,2.4492,0.0,2.4193,2.4985,2.4182,2.4023,2.4389,2.5149,2.3505,2.362,2.5111,2.3505,2.3244,2.3975,2.3217,2.2431,2.1745,2.1803,2.1294,2.0589,0.0,2.0496,1.9165,2.0004,0.0,0.0,2.2197,2.2774,0.0,0.0,0.0,0.0,0.0,0.0,0.0,0.0,0.0,0.0,2.1735,0.0,0.0,0.0,0.0,2.1675,0.0,0.0,0.0,0.0,0.0,0.0,0.0,0.0,0.0,0.0,0.0,0.0,0.0,0.0,0.0,0.0,0.0,0.0,2.5703,2.5703,2.6094,2.6953,2.7812,2.8711,2.957,3.0469,3.0898,3.0937,3.2539,3.3398,3.3476,3.5156,3.5976,3.6016,3.6875,3.7734,3.8633,3.9492,4.0351,4.125,4.207,4.2891,4.375,4.4648,4.5547,4.6289,4.6289,4.6218,4.6065,1.9323,1.9585,1.9972,2.055,2.1515,2.2805,2.4486,2.4812,2.4851,0.0,0.0,0.0,0.0,0.0,2.333,0.0,0.0,2.1484,2.1875,2.2383,0.0,0.0,0.0,2.5,0.0,0.0,0.0,2.4188,2.3611,2.3726,2.4505,2.3937,2.4235,2.5264,2.4159,2.3543,0.0,0.0,0.0,0.0,0.0,2.1558,2.1218,0.0,0.0,1.9713,2.0134,2.0608,0.0,2.2363,2.3167,2.3744,2.4274,2.4841,2.5034,2.362,2.3629,0.0,0.0,0.0,2.359,2.3283,0.0,0.0,0.0,0.0,0.0,0.0,0.0,0.0,0.0,0.0,0.0,0.0,0.0,0.0,0.0,0.0,0.0,0.0,0.0,0.0,0.0,0.0,0.0,2.5703,2.5703,2.582,0.0,2.75,2.8437,2.8711,3.0156,3.1445,3.2539,3.2578,3.3437,3.5117,3.5117,3.5742,3.6875,3.7187,3.8086,3.9492,3.9766,4.0391,4.125,4.207,4.2891,4.3789,4.4648,4.5547,4.6289,4.6289,4.6285,4.6214,2.0131,2.0367,2.0525,2.0552,0.0,2.3495,2.5062,0.0,0.0,0.0,2.539,0.0,2.5303,0.0,2.4582,0.0,2.292,2.2535,2.2344,2.2812,0.0,2.3164,2.4492,0.0,0.0,0.0,0.0,0.0,0.0,2.4034,2.4543,2.4543,2.4812,2.5264,2.4774,2.3928,2.2871,0.0,2.2354,0.0,0.0,2.1247,0.0,0.0,2.0546,2.0489,0.0,2.0812,2.1369,2.2637,2.3475,2.408,2.4525,2.493,2.505,2.4244,2.4206,2.4456,2.4495,2.4543,0.0,2.4168,2.3706,0.0,2.3347,0.0,0.0,0.0,0.0,0.0,0.0,0.0,0.0,0.0,0.0,0.0,0.0,2.2205,0.0,0.0,0.0,0.0,0.0,0.0,2.5699,2.5658,2.5696,2.5703,0.0,0.0,2.8281,2.8281,3.0,3.1562,3.2969,3.2734,3.3594,3.5547,3.5273,3.5898,3.7305,3.7617,3.8555,3.9922,4.0234,4.0859,4.168,4.2539,4.3398,4.4258,4.5117,4.582,4.6289,4.6289,4.6289,4.6207,2.162,2.1821,2.1353,0.0,2.1907,0.0,0.0,0.0,2.5303,0.0,2.5303,2.5303,2.5303,2.462,2.4149,2.4197,2.2753,0.0,2.3047,2.3125,0.0,0.0,2.3984,2.4023,2.3125,0.0,0.0,0.0,0.0,2.5399,2.539,2.5341,2.5303,2.5303,2.5303,0.0,2.2812,2.2936,2.201,2.0412,2.0451,2.046,2.0587,2.1061,0.0,2.1374,2.1128,2.1079,2.1381,2.2965,2.3664,2.385,2.365,2.4246,2.4839,2.4064,2.4407,2.5053,2.5224,2.5303,2.512,2.436,0.0,0.0,0.0,0.0,2.4229,0.0,0.0,0.0,0.0,0.0,0.0,0.0,0.0,0.0,0.0,0.0,0.0,0.0,0.0,0.0,0.0,2.5703,2.5673,2.562,2.5675,2.5663,0.0,0.0,0.0,2.8281,3.0039,3.1367,3.2266,3.3047,3.3906,3.4766,3.5664,3.6523,3.7383,3.8281,3.9141,4.0,4.0859,4.1641,4.2461,4.3359,4.4219,4.5078,4.5976,4.6289,4.6289,4.6289,4.6211,4.6092,2.1784,2.1821,2.1738,0.0,2.3378,2.4957,0.0,0.0,0.0,0.0,2.5303,2.5303,2.5303,2.512,2.4764,2.4197,2.3793,0.0,0.0,0.0,0.0,2.3203,2.457,2.4648,2.3125,2.457,0.0,2.4297,0.0,0.0,2.539,2.5341,2.5303,2.5303,2.5303,2.4389,2.2812,2.2936,2.2034,2.0583,2.1165,2.1675,0.0,0.0,2.2509,2.2817,2.2135,2.2311,2.293,2.3537,2.4251,2.4907,2.4864,2.4924,2.4953,2.4751,2.4839,2.4991,2.5077,2.5192,2.5264,2.5043,2.4543,2.4245,0.0,0.0,0.0,0.0,0.0,0.0,0.0,0.0,0.0,0.0,0.0,0.0,0.0,0.0,0.0,0.0,0.0,0.0,2.5703,2.5703,2.5673,2.562,2.5622,0.0,0.0,0.0,0.0,2.8281,3.0625,3.2266,3.3086,3.3945,3.4805,3.5664,3.6562,3.7422,3.8281,3.918,4.0039,4.0898,4.1094,4.1641,4.2461,4.3359,4.4219,4.5078,4.5976,4.6289,4.6289,4.6289,4.6289,4.6209,2.2758,2.2832,0.0,2.305,0.0,0.0,2.5303,0.0,0.0,2.5303,2.5303,0.0,2.5303,2.5303,2.5149,2.4706,2.437,0.0,0.0,0.0,0.0,2.4297,2.4844,2.4492,2.3164,2.4453,0.0,2.3828,0.0,0.0,2.5505,2.539,2.5341,2.5341,2.5303,2.4582,2.336,2.3079,2.2501,2.1718,2.1708,0.0,0.0,2.2631,2.2989,2.3575,2.3295,2.3309,2.3585,2.4081,2.4636,2.5171,2.5103,2.4993,2.4917,2.4917,2.4864,2.4799,2.4955,2.5088,2.5203,2.5293,2.4966,2.4736,2.5187,2.4966,2.4812,0.0,0.0,0.0,0.0,0.0,0.0,0.0,0.0,0.0,0.0,0.0,0.0,0.0,2.5644,0.0,2.5664,2.5664,2.5654,2.5629,0.0,0.0,0.0,0.0,0.0,2.8281,3.1172,3.293,3.3398,3.4648,3.5703,3.6562,3.707,3.7969,3.918,3.9687,4.0391,4.1211,4.1562,4.2187,4.3047,4.3906,4.4766,4.5625,4.6094,4.6289,4.6289,4.6289,4.6289,4.6328,2.4043,0.0,0.0,0.0,0.0,0.0,0.0,2.5303,0.0,2.5303,0.0,2.5303,2.5303,2.5303,2.5303,2.539,0.0,2.4648,2.5535,2.4882,2.4844,2.5664,2.4961,2.4141,2.3203,2.4102,0.0,0.0,0.0,0.0,2.5597,2.5455,2.5418,2.539,2.5341,0.0,0.0,2.3326,2.3064,2.3116,2.2332,2.2456,2.312,2.2915,2.3301,2.4029,2.4452,2.4227,2.3825,2.4511,2.4864,2.4993,2.4823,2.479,2.476,2.476,2.4639,2.4575,2.4904,2.4967,2.5065,2.5234,2.5303,2.5303,2.5303,2.5303,2.5303,2.5303,2.5274,0.0,0.0,0.0,0.0,0.0,0.0,0.0,0.0,0.0,0.0,0.0,0.0,0.0,0.0,2.5664,2.5664,0.0,0.0,0.0,0.0,0.0,0.0,0.0,3.168,0.0,3.3906,0.0,3.6562,3.7656,3.7539,3.832,3.9883,4.0039,4.0547,4.1406,4.2109,4.2969,4.3945,4.4687,4.5508,4.6289,4.6289,4.6289,4.6289,4.6289,4.6289,4.6406,0.0,0.0,0.0,0.0,0.0,2.4623,2.5203,2.5303,2.5303,2.5303,2.5303,2.5303,2.5303,2.5303,2.5303,2.5303,2.5226,0.0,0.0,0.0,0.0,2.5625,2.5508,2.4766,2.3242,2.4687,2.4727,0.0,0.0,0.0,2.5611,2.5507,2.5452,2.539,2.5466,0.0,2.4217,2.3435,0.0,2.3157,2.3576,2.376,2.3814,2.452,2.4777,2.4801,2.5061,2.4989,2.4715,2.4579,2.4752,2.4993,2.4823,2.4685,2.4543,2.4543,2.451,2.4543,2.479,2.4917,2.5065,2.5234,2.5303,2.5303,2.5303,2.5303,2.5303,2.5303,2.4774,2.4514,2.5091,0.0,0.0,0.0,0.0,0.0,0.0,0.0,0.0,0.0,0.0,0.0,0.0,0.0,0.0,0.0,0.0,0.0,0.0,0.0,0.0,0.0,0.0,0.0,0.0,0.0,0.0,3.9453,3.8711,3.8906,3.9922,4.0625,4.1406,4.2187,4.2344,4.3281,4.4766,4.4922,4.5508,4.6289,4.6289,4.6289,4.6289,4.6289,4.6289,4.6406,0.0,0.0,0.0,0.0,0.0,0.0,0.0,2.5303,0.0,2.5303,2.5303,2.5303,2.5303,2.5303,2.5303,2.5303,2.5341,2.5351,2.539,2.5473,2.5511,2.5559,2.5562,0.0,2.3789,2.5,2.5039,2.3828,0.0,0.0,2.5664,2.5576,2.5522,2.5515,2.5522,2.5313,0.0,0.0,0.0,2.4409,2.427,2.4396,2.4667,2.4658,2.4889,2.516,2.508,2.5018,2.4967,2.4799,2.4853,2.4993,2.4823,2.4654,2.4476,2.4476,2.4476,2.4526,2.4746,2.4904,2.5065,2.5234,2.5303,2.5303,2.5303,2.5303,2.5303,2.5303,2.5005,2.4851,2.5313,2.5182,0.0,0.0,0.0,0.0,0.0,0.0,0.0,0.0,0.0,0.0,0.0,0.0,0.0,0.0,0.0,0.0,0.0,0.0,0.0,0.0,0.0,0.0,0.0,0.0,0.0,3.9219,3.8789,3.9297,4.0586,4.1445,4.2031,4.2461,4.3359,4.4219,4.5039,4.5508,4.5937,4.6289,4.6289,4.6289,4.6289,4.6289,4.6289,4.6484,0.0,2.419,0.0,0.0,2.4678,0.0,2.5138,2.5182,2.5224,2.5303,2.5303,2.5303,2.5303,2.5303,2.5303,2.5303,2.5303,2.5303,2.539,2.539,2.5434,2.5479,2.5485,2.5104,2.4315,2.5148,2.5193,0.0,0.0,0.0,0.0,2.5664,0.0,0.0,0.0,0.0,0.0,0.0,2.5556,2.5505,2.4745,2.4812,2.5313,2.462,2.4736,2.5273,2.493,2.4917,2.4979,2.4905,2.4879,2.4891,2.4731,2.4559,2.4445,2.4445,2.4445,2.4513,2.4731,2.4864,2.5018,2.5224,2.5303,2.5303,2.5303,2.5303,2.5303,2.5303,2.5303,2.5303,2.539,2.5496,0.0,0.0,0.0,0.0,0.0,0.0,0.0,0.0,0.0,0.0,0.0,0.0,0.0,0.0,0.0,0.0,0.0,0.0,0.0,0.0,0.0,3.4883,3.5781,0.0,3.8008,0.0,3.9062,3.9687,4.1211,4.2031,4.25,4.2773,4.4336,4.5117,4.5312,4.6016,4.6289,4.6289,4.6289,4.6289,4.6289,4.6289,4.6406,4.6797,0.0,0.0,0.0,0.0,0.0,0.0,0.0,2.4823,2.503,2.5283,2.5303,2.5303,2.5303,2.5303,2.5303,2.5303,2.5303,2.5303,2.5303,2.539,2.5399,2.5418,2.5466,2.5081,2.4224,2.5051,2.5122,0.0,0.0,0.0,0.0,0.0,0.0,0.0,0.0,0.0,0.0,2.5597,2.5505,2.5428,2.5313,2.5313,2.5303,2.5226,2.5226,2.5293,2.5065,2.4979,2.4943,2.4632,2.4543,2.451,2.4303,2.4247,2.4228,2.4228,2.4228,2.4303,2.47,2.4818,2.4915,2.5203,2.5303,2.5303,2.5303,2.5303,2.5303,2.5303,2.5303,2.5303,2.539,2.5428,2.5466,0.0,0.0,0.0,0.0,0.0,0.0,0.0,0.0,0.0,0.0,0.0,0.0,0.0,0.0,0.0,0.0,0.0,0.0,3.0742,0.0,3.543,3.9375,3.8008,0.0,4.2031,4.0508,4.0273,4.1211,4.2031,4.2812,4.3633,4.4609,4.5469,4.6172,4.6289,4.6289,4.6289,4.6289,4.6289,4.6289,4.6289,4.6797,4.7617,0.0,0.0,0.0,0.0,0.0,0.0,0.0,2.4864,2.5053,2.5283,2.5303,2.5303,2.5303,2.5303,2.5303,2.5303,2.5303,2.5303,2.5303,2.5341,2.5341,2.5341,2.539,2.5226,2.4947,2.5249,2.5335,0.0,0.0,0.0,0.0,0.0,0.0,0.0,0.0,2.5658,2.5582,2.5543,2.5505,2.539,2.5351,2.5303,2.5303,2.5303,2.5224,2.5088,2.493,2.4795,2.4663,2.4428,2.441,2.4442,2.4266,2.419,2.419,2.419,2.4303,2.4428,2.4575,2.4752,2.4956,2.5088,2.5214,2.5303,2.5303,2.5303,2.5303,2.5303,2.5736,2.5928,2.5418,2.5784,2.6043,0.0,0.0,0.0,0.0,0.0,0.0,0.0,0.0,0.0,0.0,0.0,0.0,0.0,0.0,0.0,0.0,0.0,0.0,3.1601,0.0,3.5,3.832,3.7656,3.8516,4.0898,4.0234,4.0625,4.1953,4.2812,4.3945,4.5273,4.5625,4.5976,4.6289,4.6289,4.6289,4.6289,4.6289,4.6601,4.707,4.707,4.7617,4.8516,2.419,0.0,2.419,0.0,2.4303,2.4479,2.4591,2.4809,2.4956,2.4968,2.5171,2.5303,2.5303,2.5303,2.5303,2.5303,2.5303,2.5303,2.5303,2.5303,2.5303,2.5303,2.5303,0.0,2.539,2.539,2.5428,2.5582,2.5554,0.0,0.0,0.0,0.0,0.0,2.5685,2.5644,2.5567,2.5495,2.5428,2.539,2.5303,2.5303,2.5303,2.5224,2.5111,2.4955,2.4766,2.4623,2.4479,2.4284,2.4266,2.4393,2.4247,2.419,2.419,2.419,2.4284,2.4428,2.4459,2.4708,2.5006,2.5323,2.5324,2.538,2.561,2.5495,2.5303,2.5303,2.6005,2.6351,2.5457,2.6053,2.641,2.5543,0.0,0.0,0.0,0.0,0.0,0.0,2.5582,2.562,2.5505,0.0,0.0,0.0,0.0,0.0,0.0,0.0,0.0,0.0,0.0,0.0,0.0,3.793,3.8828,4.0273,4.0508,4.125,4.2422,4.3555,4.4883,4.6289,4.6289,4.6289,4.6289,4.6289,4.6289,4.6289,4.6289,4.668,4.7266,4.75,4.8164,4.9023,2.419,2.419,2.419,2.419,2.419,2.419,2.4209,2.4543,2.4654,2.4284,2.485,2.5303,2.5303,2.5303,2.5303,2.5303,2.5303,2.5303,2.5303,2.5303,2.5303,0.0,0.0,2.5303,2.5303,2.5303,2.539,2.5505,0.0,0.0,2.5703,0.0,2.5703,2.5703,2.5635,2.5569,2.5517,2.5412,2.5351,2.5303,2.5303,2.5303,2.5293,2.5088,2.4991,2.4943,2.4601,2.4493,2.4479,2.4284,2.419,2.419,2.419,2.419,2.419,2.419,2.419,2.4247,2.4462,2.4654,2.5036,2.6047,2.5784,2.5534,2.639,2.5928,2.5303,2.5303,2.6005,2.6351,2.5457,2.6005,2.6351,2.5543,0.0,0.0,0.0,0.0,0.0,0.0,2.612,2.6313,2.5582,0.0,0.0,0.0,0.0,0.0,0.0,0.0,0.0,3.2148,3.3828,0.0,3.8555,3.9453,4.0312,4.1172,4.1992,4.2383,4.2461,4.418,4.5469,4.6289,4.6289,4.6289,4.6289,4.6289,4.6289,4.6289,4.6289,4.6328,4.6406,4.7266,4.8164,4.9023,2.419,2.419,2.419,2.419,2.419,2.4266,2.4445,2.4654,2.4847,2.493,2.516,2.5303,2.5303,2.5303,2.5303,0.0,2.5303,2.5303,0.0,2.5303,2.5303,2.5303,2.5303,2.5303,2.5303,2.5303,2.5341,2.5428,0.0,0.0,0.0,2.5703,2.5679,2.5635,2.5618,2.5447,2.5224,2.5203,2.5141,2.5099,2.5099,2.5099,2.5088,2.5003,2.4839,2.4632,2.4526,2.441,2.4303,2.4228,2.419,2.419,2.419,2.419,2.419,2.419,2.4593,2.4946,2.4611,2.5426,2.642,2.6314,2.6703,2.7159,2.7428,2.7274,2.689,2.6313,2.7313,2.7852,2.6467,2.689,2.7198,2.6351,0.0,0.0,0.0,0.0,0.0,0.0,0.0,2.6533,0.0,2.7147,0.0,0.0,0.0,0.0,0.0,0.0,0.0,0.0,3.4687,0.0,3.8594,3.9453,4.0351,4.1211,4.2031,4.3008,4.4219,4.5351,4.6055,4.6289,4.6289,4.6289,4.6289,4.6289,4.6289,4.6367,4.6953,4.7539,4.8164,4.9062,4.9883,5.0742,2.4112,2.419,2.419,2.419,2.419,2.4266,2.4428,2.476,2.5068,2.5283,2.5303,2.5303,2.5303,2.5303,0.0,2.5303,2.5303,2.5303,2.5303,2.5303,2.5303,2.5303,2.5303,2.5303,2.5303,0.0,0.0,2.5351,2.5473,2.5609,2.5703,2.5676,2.564,2.5582,2.5543,2.5362,2.5095,2.5082,2.4994,2.493,2.493,2.493,2.493,2.4864,2.4678,2.4476,2.4428,2.4321,2.419,2.419,2.419,2.419,2.419,2.419,2.4263,2.4557,2.5017,2.5368,2.5301,2.6221,2.7198,2.7144,2.751,2.789,2.789,2.789,2.7736,2.7198,2.8159,2.8698,2.7351,2.7544,2.7621,2.6736,0.0,2.5303,2.5303,0.0,0.0,0.0,0.0,0.0,0.0,2.8307,0.0,0.0,0.0,0.0,0.0,0.0,0.0,3.4297,3.5742,0.0,3.9062,3.9961,4.082,4.1641,4.2812,4.4101,4.5508,4.6055,4.6289,4.6289,4.6289,4.6289,4.6289,4.6289,4.6289,4.6367,4.6914,4.7656,4.8516,4.9375,5.0234,5.1133,2.3955,2.419,0.0,0.0,2.419,0.0,2.419,2.4823,2.5303,2.5303,2.5303,2.5303,2.5303,2.5303,2.5303,2.5303,0.0,0.0,0.0,2.5303,2.5303,2.5303,2.5303,0.0,2.5303,2.5303,2.5303,2.5303,2.5499,2.5624,2.5663,2.5628,2.5582,2.5582,2.5457,2.5275,2.5082,2.5019,2.4904,2.4775,2.4775,2.4775,2.476,2.4559,2.4476,2.4462,2.4284,2.419,2.419,2.419,2.419,2.419,2.419,2.419,2.4373,2.5164,2.5458,2.5642,2.6413,2.6991,2.7528,2.8331,2.8286,2.8082,2.8082,2.8082,2.8044,2.8005,2.8621,2.8929,2.8121,2.7928,2.7621,2.6813,2.5928,2.5303,2.5303,0.0,0.0,0.0,0.0,0.0,0.0,2.9725,3.0131,0.0,0.0,0.0,0.0,0.0,3.3672,3.5937,3.6953,3.8242,3.9883,4.082,4.1719,4.2617,4.4219,4.5469,4.6289,4.6289,4.6289,4.6289,4.6289,4.6289,4.6289,4.6289,4.6289,4.6328,4.6445,4.6992,4.7812,4.8711,4.9648,5.0625,0.0,0.0,2.419,2.419,2.419,2.419,2.419,2.4823,2.5303,2.5303,2.5303,2.5303,2.5303,2.5303,2.5303,2.5303,2.5303,2.5303,2.5303,2.5303,2.5303,2.5303,2.5303,2.5303,2.5303,2.5303,2.5341,2.539,2.549,2.5531,2.5566,2.5569,2.5543,2.5457,2.5241,2.5057,2.487,2.47,2.4607,2.4559,2.4559,2.4559,2.4559,2.451,2.441,2.4266,2.4209,2.419,2.419,2.419,2.419,2.419,2.419,2.419,2.4373,2.5164,2.5841,2.6397,2.6726,2.7847,2.8858,2.8761,2.9283,2.9813,2.9813,2.9813,2.9621,2.8929,2.9506,2.9813,2.8967,2.8313,2.7813,2.7621,2.6313,2.5303,2.5303,2.589,0.0,0.0,2.8506,2.9802,2.984,3.1391,3.2328,0.0,0.0,0.0,0.0,0.0,3.6641,3.6016,3.8125,3.9492,3.9883,4.1367,4.2891,4.4375,4.4805,4.5469,4.6289,4.6289,4.6289,4.6289,4.6289,4.6289,4.6289,4.6289,4.6289,4.6445,4.7773,4.8398,4.8789,5.0273,5.1367,5.2266,2.4036,2.419,2.419,2.419,2.419,2.419,2.419,2.4823,2.5303,2.5303,2.5303,2.5303,2.5303,2.5303,2.5303,2.5303,2.5303,2.5303,2.5303,2.5303,2.5303,2.5303,2.5303,2.5303,2.5303,2.5303,2.5341,2.539,2.5437,2.546,2.5489,2.5506,2.5466,2.538,2.518,2.4942,2.479,2.4575,2.4462,2.4357,2.4357,2.4357,2.4357,2.4357,2.4321,2.419,2.419,2.419,2.419,2.419,2.419,2.419,2.419,2.419,2.441,2.5585,2.6245,2.6707,2.7184,2.8326,2.94,2.9376,2.9883,3.0494,3.0891,3.0698,3.0467,3.0775,3.0929,3.0852,3.039,2.9621,2.8775,2.8005,2.7121,2.6351,2.5967,2.6659,0.0,2.8236,2.9583,3.0852,3.2006,3.3019,3.3786,3.4246,0.0,0.0,3.7046,3.8341,3.8672,3.7812,3.9883,4.1055,4.1055,4.2734,4.4062,4.5,4.5391,4.5859,4.6289,4.6289,4.6289,4.6289,4.6289,4.6289,4.6328,4.6719,4.6875,4.7031,4.8359,4.9141,4.9609,5.0508,5.1641,5.2812,2.419,2.419,2.419,2.419,2.419,2.4247,2.4357,2.4891,2.5303,2.5303,2.5303,2.5303,2.5303,2.5764,2.5841,2.5341,2.5303,2.5303,2.5303,2.5303,2.5303,2.5303,2.5457,2.5495,2.5303,2.5303,2.5341,2.539,2.539,2.5412,2.5457,2.5404,2.538,2.5311,2.5091,2.4891,2.4746,2.4526,2.4357,2.419,2.419,2.419,2.419,2.419,2.419,2.419,2.419,2.419,2.419,2.419,2.4263,2.4373,2.4373,2.4447,2.4814,2.6209,2.6686,2.6979,2.775,2.8688,2.9608,3.0228,3.0496,3.0814,3.1698,3.1314,3.1198,3.2622,3.2352,3.1891,3.1891,3.1083,2.9967,2.8659,2.8159,2.7659,2.7044,0.0,2.8852,3.0429,3.0917,3.2083,3.4353,3.4737,3.5161,3.593,3.7052,0.0,0.0,3.9935,4.0543,4.0469,4.1719,4.2539,4.2773,4.4258,4.5078,4.5195,4.5937,4.6289,4.6289,4.6289,4.6289,4.6328,4.6445,4.6484,4.6562,4.7422,4.7812,4.7891,4.875,4.9531,5.0234,5.0469,5.1562,5.3008,2.419,2.419,2.419,2.419,2.419,2.4391,2.5018,2.5214,2.5303,2.5303,2.5303,2.5303,2.5303,2.7879,2.8456,2.5534,2.5303,2.5303,2.5303,2.5303,2.5303,2.5303,2.6226,2.6303,2.5303,2.5303,2.5303,2.5303,2.539,2.537,2.533,2.537,2.529,2.5053,2.4891,2.4731,2.4526,2.4321,2.4228,2.419,2.419,2.419,2.419,2.419,2.419,2.419,2.419,2.419,2.419,2.419,2.463,2.5201,2.5201,2.5658,2.6282,2.6539,2.709,2.7787,2.8594,2.9241,3.0052,3.1759,3.1851,3.1698,3.2545,3.2622,3.2583,3.2852,3.2814,3.2699,3.2699,3.1468,3.0583,3.1044,2.9313,2.8082,2.8621,0.0,3.039,3.1391,3.3391,3.5122,3.6199,3.7007,3.7507,3.7714,3.9143,4.0114,4.0413,4.2549,4.3533,4.3047,4.2617,4.3125,4.457,4.4844,4.5351,4.6094,4.625,4.6289,4.6289,4.6289,4.6289,4.6328,4.707,4.7383,4.7461,4.8359,4.8711,4.8789,4.9648,5.0078,5.0351,5.1797,5.293,5.3906,2.419,2.419,2.419,2.419,2.4543,2.4904,2.5273,2.6841,2.7379,2.5534,2.6879,2.8033,2.8033,2.9456,2.9033,2.561,2.5303,2.5303,2.5303,2.7033,2.7225,2.538,2.6697,2.6813,2.5341,2.5774,2.5774,2.5303,2.5341,2.5341,2.5303,2.5241,2.5126,2.4979,2.4737,2.4575,2.4513,2.4303,2.419,2.419,2.419,2.419,2.419,2.419,2.419,2.419,2.419,2.419,2.4263,2.4704,2.509,2.5495,2.5915,2.6319,2.6686,2.7126,2.7824,2.8631,2.9439,3.0325,3.1278,3.2158,3.2378,3.2699,3.4007,3.393,3.4007,3.5353,3.5276,3.4814,3.4391,3.3276,3.2275,3.1775,3.0314,0.0,0.0,3.1237,3.2237,3.3583,3.5584,3.7353,3.8623,3.9123,3.9738,4.0716,4.1101,4.1754,4.2744,4.3515,4.4176,4.4832,4.4083,4.4287,4.558,4.56,4.5781,4.6172,4.6289,4.6289,4.6289,4.6289,4.6562,4.7031,4.7422,4.7851,4.8359,4.9258,4.9609,4.9687,5.0508,5.1133,5.1641,5.2422,5.3555,5.4765,2.4459,2.4321,2.4266,2.4408,2.4917,2.5303,2.5303,2.7533,2.8264,2.5649,2.8264,3.0379,3.0379,3.0379,2.934,2.6726,2.6495,2.6495,2.6495,2.8917,2.9033,2.6043,2.7313,2.7467,2.611,2.6428,2.6159,2.5303,2.5303,2.5293,2.5224,2.5077,2.493,2.4761,2.457,2.4425,2.432,2.421,2.419,2.419,2.419,2.419,2.419,2.419,2.419,2.4226,2.441,2.4483,2.4593,2.5401,2.5825,2.6082,2.6686,2.7126,2.7567,2.8191,2.9072,2.9989,3.0673,3.148,3.2278,3.2977,3.3293,3.3876,3.5685,3.5545,3.5622,3.7584,3.7469,3.6815,3.6199,3.5353,3.4353,3.3083,0.0,0.0,0.0,3.3468,3.4661,3.6199,3.7853,3.9469,4.0969,4.1085,4.1662,4.3008,4.2771,4.3079,4.4372,4.4107,4.453,4.5834,4.534,4.5379,4.6103,4.6083,4.6117,4.6133,4.625,4.6401,4.6557,4.6597,4.707,4.7851,4.8086,4.8594,4.9258,5.0117,5.0469,5.0547,5.1172,5.1914,5.2734,5.293,5.3984,5.5312,2.5203,2.4663,2.4445,2.5115,2.5244,2.5303,2.5303,2.5495,2.5572,2.5341,2.8264,3.0379,3.0379,3.0379,3.0302,3.0033,3.0033,3.0033,3.0033,3.0263,2.9583,2.7775,2.8313,2.8571,2.8456,2.7236,2.6159,2.5303,2.5303,2.5203,2.5003,2.4991,2.4653,2.4082,2.4371,2.4211,2.3795,2.4056,2.419,2.419,2.419,2.419,2.419,2.419,2.419,2.43,2.5054,2.5311,2.5421,2.6245,2.7016,2.764,2.7677,2.8741,2.9953,3.0026,3.1127,3.239,3.2706,3.2337,3.2489,3.5305,3.5467,3.5436,3.7386,3.7777,3.7777,3.7969,3.7969,3.7892,3.7815,3.7084,3.6469,3.6353,0.0,0.0,3.5199,3.6622,3.7969,3.8892,4.0508,4.1893,4.2816,4.2893,4.297,4.3085,4.3739,4.4162,4.4316,4.5009,4.5547,4.5796,4.5789,4.5917,4.6103,4.6095,4.6141,4.6289,4.6289,4.667,4.7332,4.7435,4.7891,4.8672,4.9609,5.0039,5.0156,5.0976,5.1328,5.1328,5.1367,5.1914,5.2812,5.3594,5.4492,5.543,2.5303,2.5053,2.4968,2.5234,2.5303,2.5303,2.5303,2.711,2.7687,2.5572,2.8264,2.9571,2.7456,2.911,3.0379,3.0379,3.0379,3.0379,3.0379,3.0379,3.0121,2.9467,2.8967,2.8687,2.8687,2.7852,2.6967,2.612,2.612,2.574,2.503,2.5411,2.5045,2.4025,2.4229,2.4351,2.4454,2.4823,2.5217,2.5695,2.5695,2.5695,2.5695,2.5695,2.5695,2.5731,2.6025,2.6135,2.6282,2.7053,2.7897,2.8631,2.9145,3.0063,3.1127,3.2155,3.2889,3.3576,3.4739,3.4587,3.4358,3.5506,3.6177,3.6934,3.8206,3.8646,3.8931,3.9431,3.9546,3.9546,3.9546,3.8854,3.8469,3.8969,0.0,3.743,3.843,3.9161,3.9854,4.0739,4.2316,4.347,4.3816,4.4316,4.4662,4.4662,4.4932,4.5086,4.5086,4.5432,4.5624,4.568,4.5712,4.5765,4.5911,4.5969,4.5958,4.6013,4.6668,4.7068,4.7301,4.7908,4.8663,4.9531,4.9922,5.0391,5.0976,5.1289,5.1719,5.2226,5.2226,5.3086,5.4336,5.4687,5.5351,5.6133,2.5341,2.6149,2.6879,2.6879,2.6879,2.6879,2.6879,2.7995,2.7956,2.561,2.7341,2.8302,2.7033,2.8994,3.0379,3.0379,3.0379,3.0379,3.0379,3.0379,3.0379,3.0379,2.9648,2.9225,2.9225,2.889,2.8121,2.7005,2.6913,2.6465,2.569,2.5957,2.5505,2.4475,2.4668,2.4889,2.5111,2.5585,2.6098,2.6612,2.6612,2.6612,2.6612,2.6612,2.6612,2.6686,2.7163,2.7346,2.753,2.8558,2.9292,2.9843,3.0393,3.1311,3.2412,3.377,3.4357,3.4835,3.5973,3.6399,3.6504,3.6596,3.7401,3.8498,3.9699,4.0227,4.0662,4.12,4.1316,4.1316,4.1316,4.0854,4.0585,4.0854,4.0162,3.9892,4.0777,4.1354,4.1931,4.2508,4.3855,4.4701,4.4701,4.524,4.5586,4.5586,4.5586,4.5586,4.5586,4.5586,4.5586,4.5586,4.5586,4.5624,4.5757,4.5841,4.5847,4.582,4.659,4.7169,4.7572,4.8214,4.9195,5.036,5.0385,5.0781,5.1406,5.1719,5.2148,5.2734,5.3008,5.4023,5.5312,5.5312,5.5859,5.664,2.5365,2.8044,3.0379,3.0379,3.0379,3.0379,3.0379,2.7533,2.5341,2.5341,2.5303,2.661,3.0033,3.0379,3.0379,3.0379,3.0379,3.0379,3.0379,3.0379,3.0379,3.0379,3.0379,3.0379,3.0379,3.0379,2.9583,2.7928,2.765,2.7386,2.7188,2.6595,2.6018,2.549,2.5828,2.5804,2.5577,2.6277,2.6612,2.6612,2.6649,2.6649,2.6649,2.6649,2.6649,2.6869,2.8448,2.9012,2.9232,3.087,3.1384,3.1384,3.1421,3.2522,3.399,3.477,3.5642,3.6303,3.634,3.7514,3.878,3.9036,3.9402,4.0185,4.2079,4.2794,4.3085,4.3085,4.3085,4.3085,4.3124,4.3124,4.2816,4.197,4.2547,4.2816,4.197,4.3278,4.4316,4.4316,4.5047,4.5586,4.5586,4.5586,4.5586,4.5586,4.5586,4.5586,4.5586,4.5586,4.5586,4.5586,4.5586,4.5586,4.5586,4.5757,4.5849,4.5918,4.5911,4.674,4.8298,4.8472,4.9471,5.1086,5.1185,5.1289,5.1484,5.2344,5.2695,5.2812,5.3672,5.4531,5.5312,5.5312,5.5859,5.6719,2.5598,2.6255,2.7572,2.9994,3.0379,3.0379,3.0379,2.9533,2.8879,2.8879,2.6802,2.661,3.0033,3.0379,3.0379,3.0379,3.0379,3.0379,3.0379,3.0379,3.0379,3.0379,3.0379,3.0379,3.0379,3.0379,3.0037,2.9303,2.8717,2.7781,2.6576,2.7006,2.6453,2.5185,2.5508,2.5932,2.6428,2.6837,2.751,2.8315,2.8925,2.9145,2.9182,2.9732,2.9953,3.0026,3.0503,3.0687,3.076,3.1237,3.1788,3.2449,3.3587,3.4688,3.5716,3.6523,3.7331,3.8102,3.8652,3.9606,4.0152,3.9098,3.9937,4.1226,4.2068,4.2476,4.2757,4.3052,4.3085,4.3278,4.3855,4.3932,4.4047,4.4393,4.4662,4.4739,4.4509,4.4893,4.5201,4.5201,4.5432,4.5586,4.5586,4.5586,4.5586,4.5586,4.5586,4.5586,4.5586,4.5586,4.5586,4.5586,4.6201,4.6509,4.6509,4.6047,4.6078,4.6615,4.7255,4.8125,4.9086,4.976,5.0394,5.0991,5.1686,5.2034,5.2266,5.3203,5.3984,5.4531,5.4805,5.543,5.6289,5.6914,5.7305,5.7656,2.5703,2.5468,2.5956,2.8033,2.9494,3.0379,3.0379,3.0379,3.0379,3.0379,2.861,2.811,3.0148,3.0379,3.0379,3.0379,3.1648,3.2417,3.2417,3.2417,3.1802,3.0456,3.1686,3.1763,3.0417,3.0267,3.0122,2.9954,2.932,2.8427,2.7303,2.7585,2.7049,2.5917,2.612,2.6599,2.7244,2.7528,2.8385,2.9512,2.9989,3.0393,3.0723,3.1201,3.1384,3.1458,3.2118,3.2339,3.2449,3.3109,3.366,3.4247,3.5202,3.6303,3.7331,3.7808,3.8762,3.9753,4.023,4.0965,4.1332,4.0377,4.1095,4.2192,4.2752,4.3199,4.3594,4.3829,4.3978,4.4239,4.4701,4.4816,4.497,4.5509,4.5586,4.5586,4.5586,4.5586,4.5586,4.5586,4.5586,4.5586,4.5586,4.5586,4.5586,4.5586,4.5586,4.5586,4.5586,4.5586,4.574,4.6086,4.6624,4.7048,4.7355,4.6932,4.6932,4.7394,4.7971,4.8817,4.9933,5.0471,5.1145,5.1934,5.2485,5.2806,5.301,5.3951,5.4713,5.5273,5.5586,5.6094,5.6719,5.7578,5.789,5.8086,2.5703,2.5489,2.5321,2.5313,2.7879,3.0033,3.034,3.0379,3.0379,3.0379,3.0379,3.0379,3.0379,3.0379,3.0533,3.084,3.3686,3.5493,3.5493,3.5493,3.407,3.084,3.366,3.3801,3.0662,3.0333,3.0152,3.0122,2.9664,2.9222,2.8808,2.8139,2.7672,2.7345,2.7276,2.7487,2.7926,2.8291,2.9123,3.021,3.0356,3.0907,3.1604,3.1678,3.1751,3.2008,3.3513,3.4027,3.4247,3.5789,3.634,3.6413,3.6486,3.7551,3.8836,3.8909,4.001,4.1222,4.1222,4.1809,4.2396,4.2396,4.2649,4.3036,4.3849,4.4535,4.5011,4.5094,4.5323,4.5568,4.5586,4.5586,4.5586,4.5586,4.5586,4.5586,4.5586,4.5586,4.5586,4.5586,4.5586,4.5586,4.5586,4.5586,4.5624,4.5701,4.5701,4.574,4.5817,4.5817,4.6201,4.6971,4.7086,4.7471,4.8202,4.8279,4.8279,4.824,4.8317,4.9202,5.0818,5.0894,5.1838,5.3397,5.3474,5.358,5.3763,5.4657,5.5077,5.5267,5.6051,5.6523,5.6797,5.7656,5.8047,5.8359,2.5703,2.5659,2.5566,2.5339,2.5918,2.7302,2.9994,3.0379,3.0379,3.0379,3.0379,3.0379,3.0379,3.0379,3.1455,3.4147,3.507,3.5493,3.5493,3.5493,3.4762,3.3109,3.3314,3.3018,3.208,3.2352,3.1972,3.0941,3.0219,2.9575,2.8913,2.7912,2.752,2.7675,2.7063,2.7241,2.7933,2.8649,2.9422,3.032,3.1568,3.2559,3.333,3.399,3.4651,3.5275,3.5642,3.5752,3.5789,3.6193,3.6707,3.7331,3.7991,3.8836,3.9753,4.0414,4.1295,4.2029,4.2029,4.2616,4.324,4.324,4.3272,4.3439,4.3869,4.4117,4.4401,4.4988,4.5159,4.5283,4.555,4.5586,4.5586,4.5586,4.5586,4.5586,4.5586,4.5586,4.5586,4.5586,4.5586,4.5586,4.5586,4.5586,4.5893,4.6586,4.6624,4.6894,4.7509,4.7548,4.7625,4.7817,4.8509,4.8933,4.9125,4.9779,4.9779,4.9125,4.9817,5.0664,5.1664,5.2356,5.2856,5.328,5.407,5.4438,5.4534,5.5538,5.5941,5.6001,5.6163,5.6753,5.7578,5.8398,5.918,6.0,2.5498,2.5605,2.5607,2.5357,2.5303,2.6456,2.9879,3.0379,3.0379,3.0379,3.0379,3.1032,3.2648,3.1379,3.1763,3.5185,3.6969,3.7199,3.5622,3.6238,3.6315,3.5468,3.4917,3.4366,3.3734,3.3696,3.2968,3.1512,3.0748,3.0107,2.9531,2.8743,2.8356,2.8349,2.8152,2.8442,2.906,2.969,3.0505,3.1458,3.2669,3.366,3.4468,3.5312,3.5899,3.634,3.6707,3.7367,3.8028,3.8028,3.8542,3.9276,3.9717,4.0414,4.1111,4.1552,4.2249,4.2873,4.2873,4.3167,4.3497,4.3497,4.3497,4.3566,4.3726,4.3881,4.4117,4.4508,4.5138,4.5617,4.538,4.6167,4.6663,4.6278,4.6547,4.6778,4.6778,4.6471,4.6201,4.6201,4.6201,4.6355,4.674,4.6778,4.6971,4.7432,4.7471,4.7663,4.8086,4.8086,4.8279,4.8702,4.9163,4.9779,5.0587,5.1048,5.1241,5.1202,5.1241,5.1933,5.3164,5.3626,5.4049,5.4434,5.4934,5.5186,5.5224,5.5763,5.5994,5.6092,5.6497,5.7028,5.7712,5.9012,6.0156,6.1091,2.5303,2.5503,2.5613,2.5413,2.5321,2.6456,2.9879,3.0379,3.0379,3.0379,3.0917,3.234,3.5185,3.2955,3.2417,3.5262,3.8584,3.9238,3.6276,3.7276,3.7738,3.7161,3.6778,3.6102,3.5054,3.447,3.3492,3.2017,3.1273,3.0749,3.0344,2.9725,2.935,2.9197,2.9489,2.9819,3.0264,3.0859,3.1756,3.2889,3.3697,3.4578,3.5532,3.6229,3.6597,3.6817,3.7624,3.8836,4.012,4.012,4.0561,4.1148,4.1258,4.1772,4.2323,4.247,4.2983,4.3497,4.3497,4.3608,4.3718,4.3718,4.3791,4.3901,4.3901,4.4022,4.4129,4.4191,4.5391,4.6252,4.5627,4.6914,4.7894,4.7201,4.7663,4.8086,4.8086,4.7548,4.7124,4.7124,4.7124,4.7355,4.8048,4.8086,4.8163,4.8317,4.8317,4.8394,4.8548,4.8663,4.9086,4.9817,4.9971,5.0741,5.2125,5.2125,5.2549,5.3395,5.2702,5.3087,5.4511,5.4626,5.5049,5.5703,5.5703,5.5703,5.5703,5.5703,5.578,5.5934,5.6819,5.7335,5.7832,5.9709,6.0932,6.166,2.5303,2.5503,2.5703,2.5658,2.5434,2.6456,2.9879,3.0379,3.0379,3.0379,3.2955,3.5007,3.5455,3.507,3.4993,3.5455,3.8584,3.9892,3.843,3.8123,3.7623,3.6815,3.6663,3.6027,3.4773,3.4383,3.3753,3.2858,3.1815,3.1253,3.1126,2.9696,2.9403,2.9939,2.973,2.9819,3.03,3.1427,3.2592,3.3697,3.4504,3.5789,3.7147,3.7294,3.7771,3.8469,3.9276,4.0157,4.0965,4.0965,4.1038,4.1222,4.1919,4.2213,4.2433,4.313,4.3387,4.3497,4.3497,4.4011,4.4562,4.4562,4.5076,4.559,4.559,4.5075,4.4697,4.4984,4.6035,4.6947,4.7143,4.766,4.8048,4.7971,4.8048,4.8086,4.8086,4.8009,4.7932,4.7932,4.7932,4.7971,4.8086,4.8086,4.8394,4.9163,4.9202,4.9548,5.0317,5.101,5.1433,5.1548,5.2279,5.2779,5.301,5.301,5.3472,5.4318,5.4203,5.428,5.4511,5.5203,5.5588,5.5703,5.5703,5.5703,5.5703,5.5703,5.5703,5.5818,5.6665,5.7588,5.8603,6.0573,6.14,6.1523,2.7764,2.6707,2.6135,2.824,2.8494,2.8851,3.0205,3.0379,3.0379,3.0379,3.3378,3.5493,3.5493,3.7161,3.8277,3.8277,3.9662,4.0277,3.9777,3.9508,3.9122,3.8532,3.7927,3.7263,3.6503,3.5776,3.5198,3.4829,3.2967,3.2004,3.1971,3.0795,3.0378,3.0722,3.1081,3.1557,3.2175,3.2785,3.3853,3.5238,3.5569,3.645,3.7588,3.8469,3.9056,3.946,4.0267,4.1111,4.1772,4.1772,4.2066,4.2506,4.2873,4.2947,4.302,4.3387,4.3497,4.3608,4.4048,4.4452,4.4819,4.5259,4.5626,4.5883,4.5883,4.5993,4.6027,4.5946,4.6869,4.7716,4.7586,4.8639,4.9394,4.8894,4.924,4.9548,4.9548,4.9125,4.8817,4.8817,4.8817,4.9009,4.951,4.9548,4.9702,5.0087,5.0548,5.0971,5.1356,5.2164,5.2626,5.2626,5.301,5.3433,5.3933,5.3933,5.4357,5.5164,5.5665,5.5626,5.5203,5.6049,5.6165,5.5742,5.6203,5.6126,5.5742,5.6242,5.6434,5.6549,5.7857,5.9088,6.0157,6.1074,6.144,6.1458]},{"header":{"parameterUnit":"m.s-1","parameterCategory":1,"la1":30.6,"la2":28.766,"lo1":-90.7593,"lo2":-88.6598,"dy":0.0162,"dx":0.0183,"nx":116,"ny":114,"refTime":"2024-03-28T06:00:00:Z","depth":0,"parameterNumber":3,"parameterNumberName":"V-component_of_WINDS"},"data":[0.0,0.0,0.0,0.0,0.0,0.0,0.0,0.0,0.0,0.0,0.0,0.0,0.0,0.0,0.0,0.0,0.0,0.0,0.0,0.0,0.0,0.0,0.0,0.0,0.0,0.0,0.0,0.0,0.0,0.0,0.0,0.0,0.0,0.0,0.0,0.0,0.0,0.0,0.0,0.0,0.0,0.0,0.0,0.0,0.0,0.0,0.0,0.0,0.0,0.0,0.0,0.0,0.0,0.0,0.0,0.0,0.0,0.0,0.0,0.0,0.0,0.0,0.0,0.0,0.0,0.0,0.0,0.0,0.0,0.0,0.0,0.0,0.0,0.0,0.0,0.0,0.0,0.0,0.0,0.0,0.0,0.0,0.0,0.0,0.0,0.0,0.0,0.0,0.0,0.0,0.0,0.0,0.0,0.0,0.0,0.0,0.0,0.0,0.0,0.0,0.0,0.0,0.0,0.0,0.0,0.0,0.0,0.0,0.0,0.0,0.0,0.0,0.0,0.0,0.0,0.0,0.0,0.0,0.0,0.0,0.0,0.0,0.0,0.0,0.0,0.0,0.0,0.0,0.0,0.0,0.0,0.0,0.0,0.0,0.0,0.0,0.0,0.0,0.0,0.0,0.0,0.0,0.0,0.0,0.0,0.0,0.0,0.0,0.0,0.0,0.0,0.0,0.0,0.0,0.0,0.0,0.0,0.0,0.0,0.0,0.0,0.0,0.0,0.0,0.0,0.0,0.0,0.0,0.0,0.0,0.0,0.0,0.0,0.0,0.0,0.0,0.0,0.0,0.0,0.0,0.0,0.0,0.0,0.0,0.0,0.0,0.0,0.0,0.0,0.0,0.0,0.0,0.0,0.0,0.0,0.0,0.0,0.0,0.0,0.0,0.0,0.0,0.0,0.0,0.0,0.0,0.0,0.0,0.0,0.0,0.0,0.0,0.0,0.0,0.0,0.0,0.0,0.0,0.0,0.0,0.0,0.0,0.0,0.0,0.0,0.0,0.0,0.0,0.0,0.0,0.0,0.0,0.0,0.0,0.0,0.0,0.0,0.0,0.0,0.0,0.0,0.0,0.0,0.0,0.0,0.0,0.0,0.0,0.0,0.0,0.0,0.0,0.0,0.0,0.0,0.0,0.0,0.0,0.0,0.0,0.0,0.0,0.0,0.0,0.0,0.0,0.0,0.0,0.0,0.0,0.0,0.0,0.0,0.0,0.0,0.0,0.0,0.0,0.0,0.0,0.0,0.0,0.0,0.0,0.0,0.0,0.0,0.0,0.0,0.0,0.0,0.0,0.0,0.0,0.0,0.0,0.0,0.0,0.0,0.0,0.0,0.0,0.0,0.0,0.0,0.0,0.0,0.0,0.0,0.0,0.0,0.0,0.0,0.0,0.0,0.0,0.0,0.0,0.0,0.0,0.0,0.0,0.0,0.0,0.0,0.0,0.0,0.0,0.0,0.0,0.0,0.0,0.0,0.0,0.0,0.0,0.0,0.0,0.0,0.0,0.0,0.0,0.0,0.0,0.0,0.0,0.0,0.0,0.0,0.0,0.0,0.0,0.0,0.0,0.0,0.0,0.0,0.0,0.0,0.0,0.0,0.0,0.0,0.0,0.0,0.0,0.0,0.0,0.0,0.0,0.0,0.0,0.0,0.0,0.0,0.0,0.0,0.0,0.0,0.0,0.0,0.0,0.0,0.0,0.0,0.0,0.0,0.0,0.0,0.0,0.0,0.0,0.0,0.0,0.0,0.0,0.0,0.0,0.0,0.0,0.0,0.0,0.0,0.0,0.0,0.0,0.0,0.0,0.0,0.0,0.0,0.0,0.0,0.0,0.0,0.0,0.0,0.0,0.0,0.0,0.0,0.0,0.0,0.0,0.0,0.0,0.0,0.0,0.0,0.0,0.0,0.0,0.0,0.0,0.0,0.0,0.0,0.0,0.0,0.0,0.0,0.0,0.0,0.0,0.0,0.0,0.0,0.0,0.0,0.0,0.0,0.0,0.0,0.0,0.0,0.0,0.0,0.0,0.0,0.0,0.0,0.0,0.0,0.0,0.0,0.0,0.0,0.0,0.0,0.0,0.0,0.0,0.0,0.0,0.0,0.0,0.0,0.0,0.0,0.0,0.0,0.0,0.0,0.0,0.0,0.0,0.0,0.0,0.0,0.0,0.0,0.0,0.0,0.0,0.0,0.0,0.0,0.0,0.0,0.0,0.0,0.0,0.0,0.0,0.0,0.0,0.0,0.0,0.0,0.0,0.0,0.0,0.0,0.0,0.0,0.0,0.0,0.0,0.0,0.0,0.0,0.0,0.0,0.0,0.0,0.0,0.0,0.0,0.0,0.0,0.0,0.0,0.0,0.0,0.0,0.0,0.0,0.0,0.0,0.0,0.0,0.0,0.0,0.0,0.0,0.0,0.0,0.0,0.0,0.0,0.0,0.0,0.0,0.0,0.0,0.0,0.0,0.0,0.0,0.0,0.0,0.0,0.0,0.0,0.0,0.0,0.0,0.0,0.0,0.0,0.0,0.0,0.0,0.0,0.0,0.0,0.0,0.0,0.0,0.0,0.0,0.0,0.0,0.0,0.0,0.0,0.0,0.0,0.0,0.0,0.0,0.0,0.0,0.0,0.0,0.0,0.0,0.0,0.0,0.0,0.0,0.0,0.0,0.0,0.0,0.0,0.0,0.0,0.0,0.0,0.0,0.0,0.0,0.0,0.0,0.0,0.0,0.0,0.0,0.0,0.0,0.0,0.0,0.0,0.0,0.0,0.0,0.0,0.0,0.0,0.0,0.0,0.0,0.0,0.0,0.0,0.0,0.0,0.0,0.0,0.0,0.0,0.0,0.0,0.0,0.0,0.0,0.0,0.0,0.0,0.0,0.0,0.0,0.0,0.0,0.0,0.0,0.0,0.0,0.0,0.0,0.0,0.0,0.0,0.0,0.0,0.0,0.0,0.0,0.0,0.0,0.0,0.0,0.0,0.0,0.0,0.0,0.0,0.0,0.0,0.0,0.0,0.0,0.0,0.0,0.0,0.0,0.0,0.0,0.0,0.0,0.0,0.0,0.0,0.0,0.0,0.0,0.0,0.0,0.0,0.0,0.0,0.0,0.0,0.0,0.0,0.0,0.0,0.0,0.0,0.0,0.0,0.0,0.0,0.0,0.0,0.0,0.0,0.0,0.0,0.0,0.0,0.0,0.0,0.0,0.0,0.0,0.0,0.0,0.0,0.0,0.0,0.0,0.0,0.0,0.0,0.0,0.0,0.0,0.0,0.0,0.0,0.0,0.0,0.0,0.0,0.0,0.0,0.0,0.0,0.0,0.0,0.0,0.0,0.0,0.0,0.0,0.0,0.0,0.0,0.0,0.0,0.0,0.0,0.0,0.0,0.0,0.0,0.0,0.0,0.0,0.0,0.0,0.0,0.0,0.0,0.0,0.0,0.0,0.0,0.0,0.0,0.0,0.0,0.0,0.0,0.0,0.0,0.0,0.0,0.0,0.0,0.0,0.0,0.0,0.0,0.0,0.0,0.0,0.0,0.0,0.0,0.0,0.0,0.0,0.0,0.0,0.0,0.0,0.0,0.0,0.0,0.0,0.0,0.0,0.0,0.0,0.0,0.0,0.0,0.0,0.0,0.0,0.0,0.0,0.0,0.0,0.0,0.0,0.0,0.0,0.0,0.0,0.0,0.0,0.0,0.0,0.0,0.0,0.0,0.0,0.0,0.0,0.0,0.0,0.0,0.0,0.0,0.0,0.0,0.0,0.0,0.0,0.0,0.0,0.0,0.0,0.0,0.0,0.0,0.0,0.0,0.0,0.0,0.0,0.0,0.0,0.0,0.0,0.0,0.0,0.0,0.0,0.0,0.0,0.0,0.0,0.0,0.0,0.0,0.0,0.0,0.0,0.0,0.0,0.0,0.0,0.0,0.0,0.0,0.0,0.0,0.0,0.0,0.0,0.0,0.0,0.0,0.0,0.0,0.0,0.0,0.0,0.0,0.0,0.0,0.0,0.0,0.0,0.0,0.0,0.0,0.0,0.0,0.0,0.0,0.0,0.0,0.0,0.0,0.0,0.0,0.0,0.0,0.0,0.0,0.0,0.0,0.0,0.0,0.0,0.0,0.0,0.0,0.0,0.0,0.0,0.0,0.0,0.0,0.0,0.0,0.0,0.0,0.0,0.0,0.0,0.0,0.0,0.0,0.0,0.0,0.0,0.0,0.0,0.0,0.0,0.0,0.0,0.0,0.0,0.0,0.0,0.0,0.0,0.0,0.0,0.0,0.0,0.0,0.0,0.0,0.0,0.0,0.0,0.0,0.0,0.0,0.0,0.0,0.0,0.0,0.0,0.0,0.0,0.0,0.0,0.0,0.0,0.0,0.0,0.0,0.0,0.0,0.0,0.0,0.0,0.0,0.0,0.0,0.0,0.0,0.0,0.0,0.0,0.0,0.0,0.0,0.0,0.0,0.0,0.0,0.0,0.0,0.0,0.0,0.0,0.0,0.0,0.0,0.0,0.0,0.0,0.0,0.0,0.0,0.0,0.0,0.0,0.0,0.0,0.0,0.0,0.0,0.0,0.0,0.0,0.0,0.0,0.0,0.0,0.0,0.0,0.0,0.0,0.0,0.0,0.0,0.0,0.0,0.0,0.0,0.0,0.0,0.0,0.0,0.0,0.0,0.0,0.0,0.0,0.0,0.0,0.0,0.0,0.0,0.0,0.0,0.0,0.0,0.0,0.0,0.0,0.0,0.0,0.0,0.0,0.0,0.0,0.0,0.0,0.0,0.0,0.0,0.0,0.0,0.0,0.0,0.0,0.0,0.0,0.0,0.0,0.0,0.0,0.0,0.0,0.0,0.0,0.0,0.0,0.0,0.0,0.0,0.0,0.0,0.0,0.0,0.0,0.0,0.0,0.0,0.0,0.0,0.0,0.0,0.0,0.0,0.0,0.0,0.0,0.0,0.0,0.0,0.0,0.0,0.0,0.0,0.0,0.0,0.0,0.0,0.0,0.0,0.0,0.0,0.0,0.0,0.0,0.0,0.0,0.0,0.0,0.0,0.0,0.0,0.0,0.0,0.0,0.0,0.0,0.0,0.0,0.0,0.0,0.0,0.0,0.0,0.0,0.0,0.0,0.0,0.0,0.0,0.0,0.0,0.0,0.0,0.0,0.0,0.0,0.0,0.0,0.0,0.0,0.0,0.0,0.0,0.0,0.0,0.0,0.0,0.0,0.0,0.0,0.0,0.0,0.0,0.0,0.0,0.0,0.0,0.0,0.0,0.0,0.0,0.0,0.0,0.0,0.0,0.0,0.0,0.0,0.0,0.0,0.0,0.0,0.0,0.0,0.0,0.0,0.0,0.0,0.0,0.0,0.0,0.0,0.0,0.0,0.0,0.0,0.0,0.0,0.0,0.0,0.0,0.0,0.0,0.0,0.0,0.0,0.0,0.0,0.0,0.0,0.0,0.0,0.0,0.0,0.0,0.0,0.0,0.0,0.0,0.0,0.0,0.0,0.0,0.0,0.0,0.0,0.0,0.0,0.0,0.0,0.0,0.0,0.0,0.0,0.0,0.0,0.0,0.0,0.0,0.0,0.0,0.0,0.0,0.0,0.0,0.0,0.0,0.0,0.0,0.0,0.0,0.0,0.0,0.0,0.0,0.0,0.0,0.0,0.0,0.0,0.0,0.0,0.0,0.0,0.0,0.0,0.0,0.0,0.0,0.0,0.0,0.0,0.0,0.0,0.0,0.0,0.0,0.0,0.0,0.0,0.0,0.0,0.0,0.0,0.0,0.0,0.0,0.0,0.0,0.0,0.0,0.0,0.0,0.0,0.0,0.0,0.0,0.0,0.0,0.0,0.0,0.0,0.0,0.0,0.0,0.0,0.0,0.0,0.0,0.0,0.0,0.0,0.0,0.0,0.0,0.0,0.0,0.0,0.0,0.0,0.0,0.0,0.0,0.0,0.0,0.0,0.0,0.0,0.0,0.0,0.0,0.0,0.0,0.0,0.0,0.0,0.0,0.0,0.0,0.0,0.0,0.0,0.0,0.0,0.0,0.0,0.0,0.0,0.0,0.0,0.0,0.0,0.0,0.0,0.0,0.0,0.0,0.0,0.0,0.0,0.0,0.0,0.0,0.0,0.0,0.0,0.0,0.0,0.0,0.0,0.0,0.0,0.0,0.0,0.0,0.0,0.0,0.0,0.0,0.0,0.2014,0.2014,0.2014,0.2014,0.2014,0.2014,0.0,0.0,0.0,0.0,0.0,0.3575,0.3588,0.3595,0.3595,0.2422,0.1852,0.1899,0.3066,0.3792,0.4212,0.0,0.0,0.0,0.0,0.0,0.0,0.0,0.0,0.0,0.0,0.0,0.0,0.0,0.0,0.0,0.0,0.0,0.0,0.0,0.0,0.0,0.0,0.0,0.0,0.0,0.0,0.0,0.0,0.0,0.0,0.0,0.0,0.0,0.0,0.0,0.0,0.0,0.0,0.0,0.0,0.0,0.0,0.0,0.0,0.0,0.0,0.0,0.0,0.0,0.0,0.0,0.0,0.0,0.0,0.0,0.0,0.0,0.0,0.0,0.0,0.0,0.0,0.0,0.0,0.0,0.0,0.0,0.0,0.0,0.0,0.0,0.0,0.0,0.0,0.0,0.0,0.0,0.0,0.0,0.0,0.0,0.0,0.0,0.0,0.0,0.0,0.0,0.0,0.0,0.0,0.0,0.0,0.0,0.0269,0.0983,0.1087,0.1059,0.1066,0.1059,0.1087,0.1087,0.1792,0.0,0.0,0.3198,0.3477,0.3581,0.3595,0.3404,0.297,0.0984,0.0,0.0043,0.2048,0.3251,0.3816,0.4932,0.0,0.0,0.0,0.0,0.0,0.0,0.0,0.0,0.0,0.0,0.0,0.0,0.0,0.0,0.0,0.0,0.0,0.0,0.0,0.0,0.0,0.0,0.0,0.0,0.0,0.0,0.0,0.0,0.0,0.0,0.0,0.0,0.0,0.0,0.0,0.0,0.0,0.0,0.0,0.0,0.0,0.0,0.0,0.0,0.0,0.0,0.0,0.0,0.0,0.0,0.0,0.0,0.0,0.0,0.0,0.0,0.0,0.0,0.0,0.0,0.0,0.0,0.0,0.0,0.0,0.0,0.0,0.0,0.0,0.0,0.0,0.0,0.0,0.0,0.0,0.0,0.0,0.0,0.0,0.0,0.0,0.0,0.0,0.0,0.0,0.0,0.0,0.0,0.0,0.0,0.0,0.0,0.0034,0.0144,0.018,0.0184,0.0153,0.0185,0.018,0.018,0.0279,0.1175,0.2966,0.2887,0.3052,0.3575,0.3595,0.2592,0.0462,0.0168,0.0,0.0,0.0347,0.1858,0.4415,0.5586,0.7503,0.9931,0.0,0.0,0.0,0.0,0.0,0.0,0.0,0.0,0.0,0.0,0.0,0.0,0.0,0.0,0.0,0.0,0.0,0.0,0.0,0.0,0.0,0.0,0.0,0.0,0.0,0.0,0.0,0.0,0.0,0.0,0.0,0.0,0.0,0.0,0.0,0.0,0.0,0.0,0.0,0.0,0.0,0.0205,0.0,0.0,0.0,0.0,0.0,0.0,0.0,0.0,0.0,0.0,0.0,0.0,0.0,0.0,0.0,-0.0616,-0.0616,-0.0419,0.0,0.0,0.0,0.0,0.0,0.0,0.0,0.0,0.0,0.0,0.0,0.0,0.0,0.0,0.0,0.0,0.0,0.0,0.0,0.0,0.0,0.0,0.0,0.0,0.0,0.0,0.0,0.0,0.0,0.0,0.0,0.0,0.0,0.0,0.0,0.0,0.0,0.0,0.0,0.0879,0.2806,0.3083,0.3311,0.3575,0.3595,0.2397,0.0,0.0,0.0,0.005,0.2088,0.3736,0.5023,0.5152,0.6379,0.8234,0.7915,0.0,0.0,0.0,0.0,0.0,0.0,0.0,0.0,0.0,0.0,0.0,0.0,0.0,0.0,0.0,0.0,0.0,0.0,0.0,0.0,0.0,0.0,0.0,0.0,0.0,0.0,0.0,0.0,0.0,0.0,0.0,0.0,0.0,0.0,0.0,0.0,0.0,0.0,0.0,0.1922,0.0,0.0,0.0,0.0,0.0,0.0,0.0,0.0,0.0,0.0,0.0,0.0,0.0,-0.449,-0.3246,-0.1739,-0.0,0.0,0.0,0.0,0.0,0.0,0.0,0.0,0.0,0.0,0.0,0.0,0.0,0.0,0.0,0.0,0.0,0.0,0.0,0.0,0.0,0.0,0.0,0.0,0.0,0.0,0.0,0.0,0.0,0.0,0.0,0.0,0.0,0.0,0.0,0.0,-0.0293,-0.1096,-0.0437,0.0,0.0,0.0,0.086,0.2862,0.3357,0.3585,0.3581,0.2988,0.1803,0.0,0.0,0.0,0.0054,0.3688,0.5403,0.537,0.4924,0.5345,0.6312,0.5354,0.5188,0.5473,0.0,0.0,0.0,0.0,0.0,0.0,0.0,0.0,0.0,0.0,0.0,0.0,0.0,0.0,0.0,0.0,0.0,0.0,0.0,0.0,0.0,0.0,0.0,0.0,0.0,0.0,0.0,0.0,0.0,0.0,0.0,0.0,0.0,0.0,0.0,0.0,0.0,0.1426,0.0,0.0,0.0,0.0,0.0,0.0,0.0,0.0,0.0,0.0,-0.3339,-0.3002,-0.2959,-0.3324,-0.3343,-0.2254,-0.0,0.0,0.0,0.0,0.0,0.0,0.0,0.0,0.0,0.0,0.0,0.0,0.0,0.0,0.0,0.0,0.0,0.0,0.0,0.0,0.0,0.0,0.0,0.0,0.0,0.0,0.0,0.0,0.0,0.0,0.0,0.0,0.0,0.0,0.0,0.0,-0.1143,-0.4038,-0.1639,0.0,0.0,0.0,0.1063,0.3435,0.3588,0.3616,0.3619,0.1346,0.01,0.0,0.0,0.0,0.0066,0.3687,0.5403,0.5377,0.5396,0.51,0.4582,0.3934,0.3391,0.2868,0.2447,0.0,0.0,0.0,0.0,0.0,0.0,0.0,0.0,0.0,0.0,0.0,0.0,0.0,0.0,0.0,0.0,0.0,0.0,0.0,0.0,0.0,0.0,0.0,0.0,0.0,0.0,0.0,0.0,0.0,0.0,0.0,0.0,0.0,0.0,0.0,0.0,0.0,0.0,0.0,0.0,0.0,0.0,0.0,0.0,0.0,-0.0168,-0.0238,-0.02,-0.2885,-0.3134,-0.0339,-0.02,-0.0156,-0.0,0.0,0.0,0.0,0.0,0.0,0.0,0.0,0.0,0.0,0.0,0.0,0.0,0.0,0.0,0.0,0.0,0.0,0.0,0.0,0.0,0.0,0.0,0.0,0.0,0.0,0.0,0.0,0.0,0.0,0.0,0.0,0.0,-0.0464,-0.1612,-0.2454,-0.3335,-0.4414,-0.1751,0.0,0.0,0.0,0.1083,0.3501,0.3612,0.2877,0.13,0.0425,0.0,0.0,0.2361,0.3656,0.4066,0.5406,0.587,0.5644,0.5645,0.5452,0.5018,0.4457,0.3918,0.3526,0.3357,0.4439,0.0,0.0,0.0,0.0,0.0,0.0,0.0,0.0,0.0,0.0,0.0,0.0,0.0,0.0,0.0,0.0,0.0,0.0,0.0,0.0,0.0,0.0,0.0,0.0,0.0,0.0,0.0,0.0,0.0,0.0,0.0,0.0,0.0,0.0,0.0,0.0,0.0,0.0,0.0,0.0,0.0,0.0,0.0,0.0,0.0,0.0,0.0,-0.0991,-0.1119,-0.0,0.0,0.0,0.0,0.0,0.0,0.0,0.0,0.0,0.0,0.0,0.0,0.0,0.0,0.0,0.0,0.0,0.0,0.0,0.0,0.1902,0.4236,0.1127,0.0,0.0,0.0,0.0,0.0,0.0,0.0,0.0,0.0,0.0,0.0,0.0,-0.071,-0.1753,-0.3136,-0.4036,-0.4601,-0.479,-0.188,0.0,0.0,0.0,0.0694,0.2331,0.2401,0.1621,0.0055,0.0,0.0,0.0,0.3799,0.593,0.6294,0.622,0.6044,0.5874,0.5827,0.5691,0.5474,0.5032,0.4622,0.42,0.4363,0.5135,0.6177,0.0,0.0,0.0,0.0,0.0,0.0,0.0,0.0,0.0,0.0,0.0,0.0,0.0,0.0,0.0,0.0,0.0,0.0,0.0,0.0,0.0,0.0,0.0,0.0,0.0,0.0,0.0,0.0,0.0,0.0,0.0,0.0,0.0,0.0,0.0,0.0,0.0,0.0,0.0,0.0,0.0,0.0,0.0,0.0,0.0,0.0,0.0,0.0,0.0,0.0,0.0,0.0,0.0,0.0,0.0,0.0,0.0,0.0,0.0,0.0,0.0,0.0,0.0,0.0,0.0,0.0,0.0165,0.173,0.4342,0.6737,0.3601,0.2383,0.2391,0.0,0.0,0.0,0.0302,0.0,0.0,0.0,0.0,0.0,0.0,-0.2086,-0.3825,-0.4439,-0.454,-0.4787,-0.5343,-0.2084,0.0,0.0,0.0,0.0,0.0,0.0,0.0,0.0,0.0,0.0,0.0,0.4195,0.6257,0.6317,0.6061,0.5981,0.6037,0.5888,0.582,0.5813,0.5677,0.5241,0.4641,0.5287,0.6263,0.7364,0.0,0.0,0.0,0.0,0.0,0.0,0.0,0.0,0.0,0.0,0.0,0.0,0.0,0.0,0.0,0.0,0.0,0.0,0.0,0.0,0.0,0.0,0.0,0.0,0.0,0.0,0.0,0.0,0.0,0.0,0.0,0.0,0.0,0.0436,0.0,0.0,0.0,0.0,0.0,0.0,0.0,0.0,0.0,0.0,0.0,0.0,0.0,0.0,0.0,0.0,0.0,0.0,0.0,0.0,0.0,0.0,0.0,0.0,0.0,0.0101,0.0201,0.028,0.027,0.018,0.018,0.027,0.0721,0.5335,0.7121,0.7143,0.7143,0.7101,0.7065,0.0,0.0,0.2119,0.0301,0.0,0.0,0.0,0.0,0.0,0.0,-0.1723,-0.3363,-0.4399,-0.49,-0.5228,-0.5388,-0.212,0.0,0.0,0.0,0.0,0.0,0.0,0.0,0.0,0.0,0.0,0.0,0.2685,0.4785,0.6311,0.6132,0.6112,0.6349,0.6308,0.6288,0.6288,0.6247,0.6471,0.6831,0.6258,0.6445,0.7084,0.0,0.0,0.0,0.0,0.0,0.0,0.0,0.0,0.0,0.0,0.0,0.0,0.0,0.0,0.0,0.0,0.0,0.0,0.0,0.0,0.0,0.0,0.0,0.0,0.0,0.0,0.0,0.0,0.0,0.0,0.0,0.0,0.3457,0.0418,0.0,0.0,0.0,0.0,0.0,0.0,0.0,0.0,0.0,0.0,0.0,0.0,0.0,0.0,0.0,0.0,0.0,0.0,0.0,0.0,0.0,0.0,0.0,0.0,0.0,0.2115,0.5817,0.5796,0.5561,0.5176,0.5176,0.5363,0.5909,0.6781,0.7068,0.7143,0.7143,0.7068,0.7081,0.0,0.2686,0.2353,0.1305,0.0502,0.0,0.0,0.0,-0.0349,-0.137,-0.2209,-0.3169,-0.4345,-0.4832,-0.4498,-0.3223,-0.1241,0.0,0.0,0.0,0.0,0.0,0.0,0.0,0.0,0.0,0.0,0.0,0.1185,0.3421,0.6485,0.6297,0.6331,0.6566,0.6566,0.6566,0.6566,0.6566,0.7138,0.7979,0.7687,0.7887,0.8427,0.8857,0.8841,0.8669,0.8808,0.7652,0.6093,0.6295,0.0,0.0,0.0,0.0,0.0,0.0,0.0,0.0,0.0,0.0,0.0,0.0,0.0,0.0,0.0,0.0,0.0,0.0,0.0,0.0,0.0,0.0,0.0,0.0,0.3426,0.1986,0.0242,0.0,0.0,0.0,0.0,0.0,0.0,0.0,0.0,0.0,0.0,0.0,0.0,0.0,0.0,0.0,0.0,0.0,0.0,0.0,0.0,0.0,0.0,0.0,0.0101,0.2316,0.5022,0.0,0.8038,0.7841,0.7516,0.7516,0.7726,0.0,0.0,0.0,0.0,0.0,0.7299,0.7516,0.0,0.2686,0.2693,0.27,0.1208,0.0,0.0,0.0,-0.0878,-0.3286,-0.3096,-0.3169,-0.4361,-0.4496,-0.3299,-0.0275,0.0,0.0,0.0,0.0,0.0,0.0,0.0,0.0,0.0,0.0,0.0,0.0,0.0,0.2012,0.5984,0.6402,0.6646,0.6729,0.6729,0.6749,0.6776,0.6776,0.7447,0.8613,0.9349,0.9906,1.0447,1.064,0.9896,0.8775,0.9115,0.7583,0.551,0.6011,0.0,0.0,0.0,0.0,0.0,0.0,0.0,0.0,0.0,0.0,0.0,0.0,0.0,0.0,0.0,0.0,0.0,0.0,0.0,0.0,0.0,0.0,0.0,0.0,0.173,0.0,0.0,0.0,0.0,0.0,0.0,0.0,0.0,0.0,0.0,0.0,0.0,0.0,0.0,0.0,0.0,0.0,0.0,0.0,0.0,0.0,0.0,0.0,0.0,0.0,0.0202,0.5532,0.8045,0.8038,0.8038,0.8038,0.8038,0.8038,0.8038,0.8038,0.8038,0.7692,0.7197,0.7231,0.7584,0.0,0.0,0.2712,0.2686,0.2693,0.1204,0.0,0.0,0.0,-0.0879,-0.3271,-0.306,-0.3152,-0.4378,-0.4517,-0.329,-0.0256,0.0,0.0,0.0,0.0,0.0,0.0,0.0,0.0,0.0,0.0,0.0,0.0,0.0,0.0419,0.134,0.4959,0.6719,0.6813,0.6813,0.694,0.7244,0.7244,0.8625,1.0662,1.0317,1.0375,1.0622,1.137,1.1152,1.0507,1.0601,0.9794,0.8636,0.7685,0.6963,0.6178,0.4852,0.4094,0.0,0.0,0.0,0.0,0.0,0.0,0.0,0.0,0.0,0.0,0.0,0.0,0.0,0.0,0.0,0.0,0.0,0.0,0.0,0.1411,0.0421,0.0,0.0,0.0,0.0,0.0,0.0,0.0,0.0,0.0,0.0,0.0,0.0,0.0,0.0,0.0,0.0,0.0,0.0,0.0,0.0,0.0,0.0,0.0,0.0,0.0,0.0202,0.5569,0.7999,0.8038,0.8038,0.8038,0.8038,0.8038,0.8038,0.8038,0.8038,0.7821,0.7536,0.778,0.7936,0.8038,0.0,0.2686,0.2686,0.2693,0.1204,0.0,0.0,0.0,-0.076,-0.2887,-0.314,-0.3364,-0.3979,-0.3796,-0.2631,-0.023,0.0,0.0,0.0,0.0,0.0,0.0,0.0,0.0,0.0,0.0,0.0,0.0,0.0,0.0,0.0087,0.2339,0.4008,0.5282,0.6511,0.7251,0.7394,0.7455,0.8991,1.1263,1.095,1.1497,1.258,1.2553,1.197,1.1053,1.0987,0.9835,0.825,0.7455,0.665,0.577,0.4848,0.4467,0.4282,0.0,0.0,0.0,0.0,0.0,0.0,0.0,0.0,0.0,0.0,0.0,0.0,0.0,0.0,0.3727,0.3586,0.0,0.6119,0.4291,0.1708,0.0,0.0,0.0,0.0,0.0,0.0,0.0,0.0,0.0,0.0,0.0,0.0,0.0,0.0,0.0,0.0,0.0,0.0,0.0,0.0,0.0,0.0,0.0,0.275,0.4038,0.4135,0.677,0.7979,0.8038,0.8038,0.8038,0.8038,0.8038,0.8038,0.8038,0.8038,0.795,0.7834,0.7984,0.7848,0.7631,0.0,0.2686,0.2686,0.2693,0.1204,0.0,0.0,0.0,-0.0643,-0.2478,-0.3215,-0.3581,-0.3589,-0.2744,-0.1578,-0.0126,0.0,-0.0241,-0.0831,-0.0989,-0.113,-0.1191,-0.0446,0.0,0.0,0.0,0.0,0.0,0.0,0.0,0.0,0.0,0.0995,0.2984,0.5064,0.6525,0.7495,0.7604,0.9059,1.1404,1.1364,1.2666,1.4522,1.3694,1.2514,1.1229,1.0976,0.936,0.7315,0.6876,0.603,0.5175,0.4841,0.4735,0.4649,0.4213,0.4219,0.0,0.0,0.0,0.0,0.0,0.0,0.0,0.0,0.0,0.5246,0.5734,0.5819,0.5538,0.4686,0.6047,0.7395,0.7781,0.408,0.0778,0.01,0.0,0.0,0.0,0.0,0.0,0.0,0.0,0.0,0.0,0.0,0.0,0.0,0.0,0.0,0.0,0.0,0.0,0.0,0.0,0.0,0.0104,0.5422,0.8019,0.7992,0.7952,0.8038,0.8038,0.8038,0.8038,0.8038,0.8038,0.8038,0.8038,0.8038,0.8038,0.8038,0.8038,0.7733,0.738,0.0,0.2686,0.2686,0.2693,0.1204,0.0,0.0,0.0,-0.0641,-0.245,-0.3211,-0.359,-0.361,-0.1625,-0.023,-0.0,0.0,-0.114,-0.3843,-0.4515,-0.5061,-0.5584,-0.2015,0.0,0.0,0.0,0.0,0.0,0.0,0.0,0.0,0.0,0.0189,0.0378,0.0663,0.3346,0.7697,0.7711,0.9324,1.1849,1.1552,1.2825,1.4843,1.4229,1.3054,1.1635,1.1274,1.0005,0.824,0.7104,0.6634,0.6324,0.5243,0.4891,0.4863,0.4649,0.4402,0.3855,0.2168,0.0612,0.0,0.2101,0.4418,0.6051,0.0,0.0,0.6108,0.5974,0.6721,0.7175,0.6538,0.718,0.7829,0.747,0.5955,0.3695,0.0402,0.0,0.0,0.0,0.0,0.0,0.0,0.0,0.0,0.0,0.0,0.0,0.0,0.0,0.0,0.0,0.0,0.0,0.0,0.0,0.0,0.0106,0.5467,0.8032,0.7992,0.7952,0.8038,0.8038,0.8038,0.8038,0.8038,0.8038,0.8038,0.8038,0.8038,0.8038,0.8038,0.8038,0.7997,0.795,0.0,0.0,0.2693,0.2706,0.1208,0.0,0.0,-0.0906,-0.1837,-0.2606,-0.2912,-0.3061,-0.3061,-0.2167,-0.1562,-0.1564,-0.1903,-0.2761,-0.4368,-0.5081,-0.5805,-0.6749,-0.5105,-0.2854,-0.0087,0.0,0.0,0.0,0.0,0.0,0.0,0.0,0.0,0.0,0.0,0.1152,0.3421,0.6536,0.8517,0.9598,1.0963,1.2232,1.3498,1.3723,1.259,1.0865,1.0273,0.92,0.0,0.6191,0.5678,0.5532,0.4949,0.4782,0.4775,0.4707,0.4529,0.3855,0.156,0.0754,0.0975,0.2756,0.4863,0.6433,0.6101,0.641,0.6824,0.6921,0.7152,0.7325,0.7382,0.7602,0.791,0.0,0.7335,0.6369,0.4904,0.4669,0.3513,0.0397,0.1409,0.1757,0.0107,0.0,0.0,0.0,0.0,0.0,0.0,0.0,0.0,0.0,0.0,0.0,0.0,0.0,0.0,0.0107,0.5422,0.8046,0.8026,0.7965,0.8038,0.8038,0.8038,0.8038,0.8038,0.8038,0.8038,0.8038,0.8038,0.8038,0.8038,0.8038,0.8038,0.8038,0.0,0.0,0.0,0.2713,0.1208,0.0,0.0,-0.111,-0.2123,-0.2631,-0.2708,-0.2807,-0.3018,-0.3047,-0.3206,-0.3629,-0.363,-0.4204,-0.5597,-0.6431,-0.6856,-0.6887,-0.6856,-0.4684,-0.0086,0.0,0.0,0.0,0.0,0.0,0.0,0.0,0.0,0.0,0.0,0.0,0.0296,0.4872,0.7113,0.7849,1.005,1.1289,1.1824,1.2265,1.1352,0.9638,0.9217,0.8271,0.6917,0.5314,0.4796,0.4782,0.4714,0.4721,0.4748,0.4707,0.4592,0.4045,0.2056,0.214,0.3136,0.4151,0.5676,0.681,0.6563,0.6905,0.7296,0.7665,0.7534,0.7428,0.7753,0.7814,0.7889,0.8119,0.8113,0.7811,0.74,0.7655,0.6537,0.2665,0.3174,0.3445,0.232,0.0856,0.0,0.0,0.0,0.0,0.0,0.0,0.0784,0.2354,0.2491,0.2494,0.2699,0.2494,0.247,0.251,0.6364,0.8262,0.8261,0.8079,0.8038,0.8038,0.8038,0.8038,0.8038,0.8038,0.8038,0.8038,0.8038,0.8038,0.8038,0.8038,0.8038,0.8038,0.0,0.0,0.0,0.0,0.1211,0.0,0.0,-0.0033,-0.0701,-0.2466,-0.2693,-0.3018,-0.386,-0.3947,-0.4526,-0.5977,-0.4566,-0.5052,-0.8433,-0.9769,-0.9202,-0.6462,-0.6303,-0.4343,-0.0086,0.0,0.0,0.0,0.0,0.0,0.0,0.0,0.0,0.0,0.0,0.0,0.0201,0.2661,0.5262,0.7828,0.8942,0.9789,1.038,0.9852,0.9001,0.808,0.8366,0.7316,0.5702,0.4804,0.4539,0.4518,0.4646,0.4736,0.4776,0.4735,0.4599,0.4622,0.5111,0.6493,0.7564,0.6749,0.6935,0.7293,0.7135,0.7346,0.7611,0.7753,0.7787,0.7794,0.7807,0.7814,0.7814,0.7821,0.7943,0.7434,0.5727,0.6948,0.7972,0.7779,0.5349,0.4678,0.0,0.3008,0.0,0.0,0.0,0.0,0.0,0.0,0.269,0.8457,0.8575,0.8864,0.9453,0.8977,0.868,0.8673,0.8811,0.8852,0.8888,0.8285,0.8038,0.8038,0.8038,0.8038,0.8038,0.8038,0.8038,0.8038,0.8038,0.8038,0.8038,0.8038,0.8038,0.8038,0.0,0.0,0.0,0.0,0.0,0.0,0.0,-0.1009,-0.2019,-0.2633,-0.3714,0.0,0.0,0.0,0.0,0.0,-0.5987,-0.6368,-0.7523,-0.8747,-0.8502,-0.6612,-0.6135,-0.5301,-0.3876,-0.1286,0.0,0.0,0.0,-0.1457,-0.4094,-0.1333,0.0,0.0,0.0,0.0,0.0097,0.0854,0.3612,0.7313,0.7473,0.7501,0.7582,0.8413,0.8323,0.7581,0.0,0.6307,0.5448,0.4591,0.4395,0.4298,0.3144,0.3604,0.4576,0.4579,0.4513,0.469,0.5732,0.6714,0.7427,0.7319,0.7426,0.7542,0.7543,0.7665,0.7726,0.7678,0.7434,0.7224,0.7224,0.7224,0.7326,0.7624,0.7807,0.7878,0.7345,0.7795,0.8147,0.8055,0.7235,0.0,0.0,0.0,0.0,0.0,0.0,0.0,0.0,0.0,0.2723,0.8686,0.8863,0.9151,0.9553,0.9546,0.9349,0.8856,0.8863,0.8872,0.8883,0.8235,0.8038,0.8038,0.8038,0.8038,0.8038,0.8038,0.8038,0.8038,0.8038,0.8038,0.8038,0.8038,0.8038,0.8038,0.0,0.0,0.0,0.0,0.0,0.0,0.0,0.0,0.0,0.0,0.0,0.0,0.0,0.0,0.0,0.0,0.0,-0.6679,-0.6797,-0.746,-0.7442,-0.6518,-0.5994,-0.5647,-0.5577,-0.3088,-0.1238,0.0,0.0,-0.1948,-0.5568,-0.284,-0.1341,-0.096,-0.0961,-0.0622,0.0,0.0265,0.1957,0.4651,0.5254,0.5708,0.6036,0.6966,0.6981,0.0,0.5538,0.5219,0.5054,0.4476,0.4014,0.345,0.2288,0.2747,0.3772,0.434,0.4729,0.5062,0.5408,0.6346,0.7362,0.7636,0.766,0.7767,0.7801,0.7773,0.7665,0.7414,0.7041,0.6736,0.6627,0.6607,0.6756,0.7204,0.7506,0.7773,0.8126,0.8147,0.8092,0.811,0.8113,0.8147,0.0,0.0,0.0,0.0107,0.0,0.0992,0.3362,0.3532,0.515,0.8858,0.9023,0.9063,0.9291,0.9467,0.9384,0.894,0.894,0.894,0.8927,0.8533,0.8364,0.8364,0.8364,0.8241,0.8038,0.8038,0.8038,0.8038,0.8038,0.8038,0.8038,0.8038,0.8038,0.8038,0.0,0.0,0.0,0.0,0.0,0.0,0.0,0.0,0.0,0.0,0.0,0.0,0.0,0.0,0.0,0.0,0.0,0.0,-0.6481,-0.631,-0.6179,-0.6167,-0.5819,-0.5474,-0.5109,-0.5053,-0.3432,-0.0199,-0.0137,-0.1595,-0.4469,-0.4446,-0.3869,-0.2792,-0.2795,-0.1832,-0.0166,0.0473,0.0451,0.0144,0.2446,0.4187,0.5405,0.5226,0.4816,0.4229,0.394,0.4037,0.4311,0.4421,0.3411,0.2069,0.2073,0.2076,0.2395,0.3853,0.5051,0.5673,0.4503,0.5894,0.7731,0.7616,0.7834,0.7997,0.7834,0.7678,0.7434,0.6987,0.6634,0.6322,0.0,0.0,0.6083,0.6614,0.6837,0.721,0.795,0.7929,0.7957,0.0,0.0,0.0,0.0,0.0,0.0,0.0828,0.0,0.2976,0.9259,0.9653,0.9595,0.9191,0.9191,0.9184,0.915,0.9211,0.9137,0.894,0.894,0.894,0.894,0.894,0.894,0.894,0.8906,0.8567,0.8038,0.8038,0.8038,0.8038,0.8038,0.8038,0.8038,0.8038,0.8058,0.8085,0.0,0.0,0.0,0.0,0.0,0.0,0.0,0.0,0.0,0.0,0.0,0.0,0.0,0.0,0.0,0.0,0.0,0.0,-0.6239,-0.6078,-0.5983,-0.5953,-0.6023,-0.5748,-0.509,-0.4503,-0.3785,-0.2929,-0.185,-0.232,-0.4302,-0.419,-0.4167,-0.4287,-0.4102,-0.382,-0.3283,-0.1718,-0.1195,-0.1278,-0.018,0.0454,0.0864,0.1457,0.1592,0.144,0.1257,0.1219,0.161,0.3782,0.2736,0.0583,0.0538,0.0551,0.0631,0.1003,0.4133,0.7328,0.6854,0.7293,0.7956,0.7875,0.7984,0.797,0.7712,0.7366,0.6973,0.6525,0.6075,0.567,0.0,0.0,0.0,0.6125,0.6767,0.0,0.8119,0.8269,0.0,0.8418,0.0,0.8513,0.8438,0.8407,0.0,0.0,0.45,0.414,0.603,0.8487,0.9571,0.9191,0.9178,0.9171,0.9157,0.9211,0.9137,0.894,0.894,0.894,0.894,0.894,0.894,0.8913,0.8465,0.818,0.8038,0.8038,0.8038,0.8038,0.8038,0.8038,0.8038,0.8038,0.8323,0.871,0.0,0.0,0.0,0.0,0.0,0.0,0.0,0.0,0.0,0.0,0.0,0.0,0.0,0.0,0.0,0.0,0.0,0.0,0.0,-0.5711,-0.5759,-0.5963,-0.604,-0.5883,-0.5439,-0.5005,-0.4489,-0.3876,-0.3224,-0.3374,-0.4186,-0.4718,-0.4941,-0.4833,-0.5047,-0.5032,-0.4774,-0.3773,-0.3332,0.0,0.0,-0.2837,-0.2742,-0.1753,-0.1437,-0.153,-0.1492,-0.1616,-0.1331,0.2306,0.195,0.0,0.0,0.0,0.0,0.0,0.2986,0.6472,0.7517,0.783,0.7966,0.8004,0.7991,0.7828,0.74,0.7101,0.6803,0.6054,0.5666,0.5088,0.4146,0.3903,0.0,0.0,0.0,0.0,0.8065,0.8241,0.8364,0.0,0.8655,0.0,0.8587,0.8622,0.8742,0.0,0.7523,0.6816,0.7054,0.8851,0.9724,0.9374,0.9339,0.9285,0.9191,0.9137,0.9049,0.894,0.894,0.894,0.894,0.894,0.894,0.892,0.0,0.8431,0.8411,0.8147,0.8038,0.8038,0.8038,0.8201,0.8431,0.8431,0.8648,0.894,0.0,0.0,0.0,0.0,0.0,0.0,0.0,0.0,0.0,0.0,-0.2964,0.0,0.0,0.0,0.0,0.0,0.0,0.0,0.0,0.0,-0.5666,-0.6131,-0.6056,-0.5982,-0.5999,-0.5927,-0.5299,-0.4057,-0.4439,-0.4509,-0.4274,-0.5565,-0.576,-0.4986,-0.5689,-0.5756,-0.5324,-0.5464,-0.545,-0.5418,-0.551,-0.551,-0.5355,0.0,-0.4066,-0.4203,-0.3868,-0.4093,-0.3893,-0.0,0.0738,0.0,0.0,0.0,0.0,0.0,0.1675,0.4169,0.7156,0.7959,0.7875,0.8011,0.7896,0.7604,0.7121,0.6962,0.6608,0.5363,0.5192,0.469,0.2824,0.2187,0.2547,0.4375,0.0,0.6805,0.7909,0.8072,0.8228,0.8662,0.8743,0.8764,0.8743,0.8899,0.9049,0.9171,0.936,0.9557,0.9792,0.9808,0.9751,0.9612,0.9571,0.9442,0.9232,0.9035,0.894,0.894,0.894,0.894,0.894,0.894,0.894,0.894,0.0,0.0,0.8899,0.8377,0.816,0.816,0.816,0.8431,0.8832,0.8906,0.894,0.894,0.0,0.0,0.0,0.0,0.0,0.0,0.0,0.0,0.0,0.0,-0.3953,-0.5077,0.0,0.0,0.0,0.0,0.0,0.0,0.0,0.0,0.0,-0.6416,-0.6399,-0.6384,-0.6387,-0.6024,-0.5691,-0.5454,-0.5697,-0.5573,-0.5099,-0.5794,-0.5793,-0.5242,-0.5837,-0.5781,-0.534,-0.6232,-0.6379,-0.6019,-0.6465,-0.6532,-0.6348,-0.5859,0.0,0.0,-0.4857,-0.459,-0.4388,-0.3623,-0.1875,0.0,0.0,0.0,0.0,0.0,0.0363,0.1782,0.6707,0.7943,0.7939,0.7959,0.7753,0.7416,0.7303,0.6718,0.5686,0.3867,0.4107,0.4515,0.4176,0.2056,0.0512,0.0879,0.3189,0.5616,0.772,0.816,0.835,0.0,0.8927,0.9028,0.8913,0.0,0.0,0.0,0.0,0.0,0.9578,0.9605,0.9612,0.9612,0.9361,0.9211,0.9171,0.9015,0.894,0.894,0.894,0.894,0.894,0.894,0.894,0.894,0.0,0.0,0.8927,0.8825,0.8784,0.8784,0.8784,0.854,0.8255,0.8757,0.894,0.894,0.0,0.0,0.0,0.0,0.0,0.0,0.0,-0.3045,-0.318,-0.2743,-0.369,-0.4637,-0.5232,-0.528,-0.5952,0.0,0.0,0.0,0.0,0.0,0.0,-0.7113,-0.6927,-0.682,-0.682,-0.6715,-0.6497,-0.6167,0.0,-0.6492,-0.5935,-0.6737,-0.6868,-0.6544,-0.7155,-0.7321,-0.7113,-0.7638,-0.768,-0.7473,-0.7747,-0.7768,-0.7603,0.0,0.0,0.0,-0.4943,-0.4623,-0.4251,-0.4465,-0.3028,-0.1027,-0.0216,0.0,0.0,0.0,0.0,0.085,0.4822,0.6305,0.6848,0.7766,0.776,0.7489,0.7118,0.6826,0.6043,0.4219,0.2928,0.2132,0.2132,0.0991,0.0,0.0,0.1246,0.344,0.7289,0.8049,0.8435,0.8648,0.8974,0.9123,0.0,0.0,0.0,0.0,0.0,0.0,0.9612,0.9612,0.9612,0.9612,0.9469,0.9354,0.9273,0.9157,0.9042,0.894,0.8777,0.8784,0.894,0.894,0.894,0.894,0.894,0.0,0.894,0.894,0.894,0.894,0.894,0.8764,0.854,0.8832,0.894,0.894,0.0,0.0,0.0,0.0,0.0,0.0,-0.2603,-0.2666,-0.2727,-0.289,-0.3323,-0.4085,-0.5358,-0.5691,-0.6262,0.0,0.0,0.0,0.0,0.0,0.0,0.0,0.0,-0.7237,-0.7237,0.0,0.0,0.0,-0.7448,0.0,0.0,0.0,0.0,0.0,0.0,-0.8805,-0.8724,-0.8967,-0.895,0.0,0.0,-0.9001,0.0,0.0,0.0,0.0,0.0,-0.4654,-0.4172,-0.4429,-0.3477,-0.1914,-0.0494,0.0,0.0,0.0,0.0,0.0751,0.3946,0.5413,0.6331,0.7633,0.7736,0.7454,0.7029,0.6881,0.6093,0.3983,0.1625,0.0,0.0,0.0,0.0,0.0,0.0,0.1564,0.6198,0.7609,0.8376,0.0,0.8981,0.0,0.9157,0.0,0.0,0.0,0.0,0.0,0.9659,0.9598,0.9591,0.9652,0.9591,0.9503,0.9381,0.9273,0.9123,0.8933,0.8696,0.8635,0.875,0.8879,0.894,0.894,0.894,0.0,0.0,0.894,0.894,0.894,0.894,0.894,0.894,0.894,0.894,0.8954,0.0,0.0,0.0,0.0,0.0,0.0,-0.2261,-0.2514,-0.289,-0.3437,-0.3566,-0.4256,-0.5938,-0.6931,-0.723,0.0,0.0,0.0,0.0,0.0,0.0,0.0,0.0,0.0,0.0,0.0,0.0,0.0,0.0,0.0,0.0,0.0,0.0,0.0,0.0,0.0,0.0,-0.9725,0.0,0.0,0.0,0.0,0.0,0.0,0.0,0.0,0.0,-0.5116,-0.4646,-0.4556,-0.3487,-0.1951,-0.0445,0.0,0.0,0.0,0.0,0.1146,0.6274,0.77,0.7753,0.7929,0.7605,0.7244,0.7735,0.6684,0.4607,0.1138,0.0168,0.0,0.0,0.0,0.0,0.0,0.0,0.1014,0.3936,0.6501,0.8139,0.8431,0.0,0.0,0.9164,0.0,0.0,0.0,0.0,0.0,0.0,0.9551,0.9523,0.9795,0.9544,0.9395,0.9381,0.9232,0.9089,0.894,0.8913,0.8628,0.814,0.8689,0.894,0.894,0.0,0.0,0.0,0.894,0.894,0.894,0.894,0.894,0.894,0.894,0.894,0.9015,0.0,0.0,0.0,0.0,0.0,0.0,-0.3296,-0.3831,-0.3971,-0.318,-0.3368,-0.3734,-0.4048,-0.5807,-0.6835,-0.6517,0.0,0.0,0.0,0.0,0.0,0.0,0.0,0.0,0.0,0.0,-0.8233,-0.8606,0.0,0.0,0.0,0.0,0.0,0.0,0.0,0.0,0.0,0.0,0.0,0.0,0.0,0.0,0.0,0.0,0.0,0.0,0.0,0.0,-0.4619,-0.4122,-0.3198,-0.1965,-0.0456,0.0,0.0,0.0,0.0,0.0808,0.4557,0.6819,0.7952,0.8007,0.7812,0.6834,0.3847,0.2673,0.1719,0.0283,0.0,0.0,0.0,0.0,0.0,0.0,0.0,0.0397,0.1475,0.4961,0.7775,0.8499,0.8751,0.0,0.0,0.0,0.0,0.0,0.0,0.0,0.0,0.9361,0.934,0.9551,0.9354,0.9259,0.9293,0.9117,0.8994,0.894,0.8818,0.8696,0.8587,0.8703,0.8825,0.894,0.0,0.0,0.0,0.894,0.894,0.894,0.894,0.894,0.894,0.894,0.9164,0.9503,0.0,0.0,0.0,0.0,0.0,-0.38,-0.4309,-0.4903,-0.4671,-0.294,-0.3061,-0.3387,-0.3462,-0.5046,-0.6241,-0.6595,-0.6768,0.0,0.0,0.0,0.0,0.0,0.0,0.0,0.0,0.0,-0.8553,-0.9001,-0.8653,0.0,0.0,0.0,0.0,0.0,0.0,0.0,0.0,0.0,0.0,0.0,0.0,0.0,0.0,0.0,0.0,0.0,0.0,0.0,0.0,0.0,0.0,-0.1833,-0.0424,0.0,0.0,0.0,0.0,0.0418,0.2321,0.5378,0.7973,0.7986,0.8005,0.6599,0.1221,0.0,0.0,0.0,0.0,0.0,0.0,0.0,0.0,0.0,0.0,0.0,0.0,0.3392,0.6453,0.0,0.0,0.0,0.0,0.0,0.0,0.0,0.0,0.0,0.0,0.9171,0.9198,0.9442,0.9259,0.9191,0.9279,0.9096,0.8981,0.894,0.875,0.8757,0.8933,0.873,0.875,0.894,0.0,0.0,0.0,0.9035,0.9022,0.894,0.894,0.894,0.894,0.894,0.9313,0.9822,0.0,0.0,0.0,0.0,0.0,0.0,-0.5023,-0.5281,-0.4664,-0.2916,-0.2706,-0.3352,-0.51,-0.5227,-0.566,-0.6802,-0.7381,0.0,0.0,0.0,0.0,0.0,0.0,0.0,0.0,0.0,-0.8674,-0.9485,-0.9094,-0.9327,-1.0184,-1.0184,0.0,0.0,0.0,0.0,0.0,0.0,0.0,0.0,0.0,0.0,-1.1653,0.0,0.0,0.0,0.0,0.0,0.0,0.0,0.0,0.0,0.0,0.0,0.0,0.0,0.0,0.0,0.0,0.3933,0.804,0.804,0.8026,0.6618,0.1195,0.0,0.0,0.0,0.0,0.0,0.0,0.0,0.0,0.0,0.0,0.0,0.0,0.1832,0.4135,0.0,0.0,0.0,0.0,0.0,0.0,0.0,0.0,0.0,0.0,0.9022,0.9144,0.9591,0.9313,0.9225,0.9374,0.9225,0.9083,0.894,0.8784,0.8791,0.8933,0.873,0.875,0.0,0.0,0.0,0.0,0.9252,0.9205,0.894,0.894,0.894,0.894,0.894,0.9313,0.9822,0.0,0.0,0.0,0.0,0.0,0.0,-0.4528,-0.4318,-0.4154,-0.443,-0.3069,-0.2604,-0.3934,-0.4741,-0.5406,-0.5896,-0.6471,0.0,0.0,0.0,0.0,0.0,0.0,0.0,0.0,-0.9278,-0.9845,-1.0326,-1.0003,-1.0135,-1.0656,-1.0362,-1.0234,-1.0332,0.0,0.0,0.0,0.0,0.0,0.0,0.0,-1.1909,-1.1726,0.0,0.0,0.0,0.0,0.0,0.0,0.0,0.0,0.0,0.0,0.0,0.0,0.0,0.0,0.0,0.0,0.1257,0.341,0.7049,0.5267,0.2062,0.0382,0.0,0.0,0.0,0.0,0.0,0.0,0.0,0.0,0.0,0.0,0.0,0.0,0.3577,0.0,0.7315,0.0,0.0,0.0,0.0,0.0,0.0,0.0,0.0,0.0,0.0,0.9049,0.9293,0.911,0.9076,0.9225,0.9083,0.8981,0.894,0.8784,0.8737,0.8777,0.8608,0.0,0.0,0.0,0.0,0.0,0.9259,0.9327,0.9259,0.9462,0.9293,0.8988,0.9395,0.9659,0.9822,0.0,0.0,0.0,0.0,0.0,0.0,-0.4301,-0.4289,-0.4301,-0.457,-0.2979,-0.207,-0.2776,-0.4064,-0.5086,-0.5599,-0.5983,0.0,0.0,0.0,0.0,0.0,0.0,0.0,-0.8778,-0.9373,-1.0006,-1.0734,-1.0276,-1.0342,-1.0938,-1.0453,-1.0283,-1.0312,-1.0981,-1.1319,0.0,0.0,0.0,0.0,-1.2401,-1.2186,-1.1982,0.0,0.0,0.0,0.0,0.0,0.0,0.0,0.0,0.0,0.0,0.0,0.0,0.0,0.0,0.0,0.0,0.0,0.0808,0.4122,0.2479,0.0,0.0,0.0,0.0,0.0,0.0,0.0,0.0,0.0,0.0,0.0,0.0,0.0,0.0,0.0,0.0,0.0,0.0,0.0,0.0,0.0,0.0,0.0,0.0,0.0,0.0,0.0,0.8981,0.9069,0.8988,0.9008,0.915,0.9008,0.8906,0.8852,0.8696,0.8621,0.8615,0.8411,0.0,0.0,0.0,0.0,0.0,0.9171,0.9347,0.9456,0.9639,0.953,0.9293,0.9435,0.9625,0.9822,0.0,0.0,0.0,0.0,0.0,0.0,0.0,-0.4738,-0.4635,-0.3535,-0.2452,-0.1844,-0.1916,-0.3337,-0.4704,-0.5717,-0.5833,0.0,0.0,0.0,0.0,0.0,0.0,0.0,-0.875,-0.8822,-0.9465,-1.0689,-1.0026,-1.0144,-1.0939,-1.0545,-1.0332,-1.0351,-1.14,-1.1881,0.0,0.0,0.0,0.0,-1.2198,-1.2113,0.0,0.0,0.0,0.0,0.0,0.0,0.0,0.0,0.0,0.0,0.0,0.0,0.0,0.0,0.0,0.0,0.0,-0.0256,-0.0329,-0.0311,-0.0245,-0.0181,-0.0171,-0.0056,0.0,0.0,0.0,0.0,0.0,0.0,0.0,0.0,0.0,0.0,0.0,0.0,0.0,0.0,0.0,0.0,0.0,0.0,0.0,0.0,0.0,0.0,0.0,0.0,0.8927,0.894,0.892,0.8981,0.9137,0.8994,0.8859,0.8723,0.8554,0.8472,0.8472,0.8174,0.0,0.0,0.0,0.0,0.0,0.9028,0.9293,0.951,0.9517,0.9639,0.9734,0.9198,0.9334,0.9795,0.0,0.0,0.0,0.0,0.0,0.0,0.0,0.0,0.0,0.0,-0.1966,-0.2138,-0.3018,-0.3822,-0.4462,0.0,0.0,0.0,0.0,0.0,0.0,0.0,0.0,0.0,-0.8432,-0.9071,-0.9588,-0.9875,-1.0422,-1.0641,-1.0551,-1.1065,-1.0959,-1.0371,-1.1668,-1.2496,0.0,0.0,0.0,0.0,-1.2579,-1.2186,0.0,0.0,0.0,0.0,-0.7389,-0.6012,0.0,0.0,0.0,0.0,0.0,0.0,0.0,0.0,-0.1697,-0.1681,-0.1707,0.0,-0.346,-0.3467,-0.2581,-0.1707,0.0,-0.0837,0.0,0.0,0.0,0.0,0.0,0.0,0.0,0.0,0.0,0.0,0.0,0.0,0.0,0.0,0.0,0.0,0.0,0.0,0.0,0.0,0.0,0.0,0.0,0.0,0.8818,0.8933,0.871,0.8716,0.8988,0.8838,0.8804,0.8879,0.8499,0.8377,0.8472,0.8174,0.0,0.0,0.0,0.0,0.8567,0.8981,0.9259,0.9422,0.9496,0.9551,0.9591,0.9605,0.9557,0.9517,0.0,0.0,0.0,0.0,0.0,0.0,0.0,0.0,0.0,0.0,-0.1804,-0.2241,-0.3387,-0.3982,-0.4548,0.0,0.0,0.0,0.0,0.0,0.0,0.0,0.0,-0.8119,-0.829,-0.8753,-0.9285,-0.9911,-1.0216,-1.0599,-1.0998,-1.1005,-1.084,-1.0606,-1.1647,-1.2551,0.0,0.0,0.0,-1.3129,-1.2473,0.0,0.0,0.0,0.0,0.0,-0.7348,-0.6066,0.0,-0.4055,-0.386,-0.39,0.0,0.0,0.0,0.0,-0.3144,-0.3229,-0.3229,-0.3324,-0.3593,-0.433,-0.3872,-0.3244,-0.3244,-0.2627,-0.1676,-0.0279,0.0,0.0,0.0,0.0,0.0,0.0,0.0,0.0,0.0,0.0,0.0,0.0,0.0,0.0,0.0,0.0,0.0,0.0,0.0,0.0,0.0,0.0,0.8689,0.8832,0.8608,0.8594,0.8832,0.8682,0.8615,0.8628,0.8384,0.8275,0.8275,0.8113,0.0,0.0,0.0,0.0,0.8513,0.8893,0.9144,0.9286,0.9408,0.9456,0.9469,0.9578,0.9605,0.9585,0.0,0.0,0.0,0.0,0.0,0.0,0.0,0.0,0.0,0.0,0.0,0.0,0.0,0.0,0.0,0.0,0.0,0.0,0.0,0.0,0.0,0.0,-0.7705,-0.79,-0.8309,-0.8247,-0.8821,-1.0113,-0.9835,-1.0329,-1.1487,-1.0965,-1.0842,-1.1142,-1.1518,-1.2198,0.0,0.0,0.0,-1.3025,-1.2054,0.0,0.0,0.0,0.0,0.0,0.0,0.0,0.0,-0.4367,-0.3997,-0.3792,-0.3875,0.0,0.0,0.0,0.0,0.0,-0.4598,-0.3599,-0.2845,-0.415,-0.449,-0.449,-0.449,-0.449,-0.3755,-0.1228,0.0,-0.0335,-0.0338,-0.0175,0.0,0.0,0.0,0.0,0.0,0.0,0.0,0.0,0.0,0.0,0.0,0.0,0.0,0.0,0.0,0.0,0.0,0.0,0.0,0.8676,0.8506,0.8486,0.8642,0.8513,0.8397,0.8303,0.8255,0.818,0.8072,0.8052,0.0,0.0,0.0,0.0,0.8506,0.8784,0.9001,0.9164,0.9273,0.9327,0.9347,0.9374,0.9537,0.9727,0.0,0.0,0.0,0.0,0.0,0.0,0.0,0.0,0.0,0.0,0.0,0.0,0.0,0.0,0.0,0.0,0.0,0.0,0.0,0.0,0.0,-0.7686,-0.7705,-0.792,-0.8355,-0.8,-0.8267,-0.9207,-0.9873,-1.0291,-1.0528,-1.1861,-1.2337,-1.2068,-1.1397,-1.1689,-1.2579,-1.2186,0.0,-1.2508,-1.1542,0.0,0.0,0.0,0.0,0.0,0.0,0.0,0.0,-0.4738,-0.4228,-0.3826,-0.3953,0.0,0.0,0.0,0.0,0.0,-0.5032,-0.467,-0.4187,-0.4421,-0.4477,-0.4525,-0.4525,-0.4477,-0.4366,-0.3916,0.0,0.0,0.0,-0.0855,0.0,0.0,0.0,0.0,0.0,0.0,0.0,0.0,0.0,0.0,0.0,0.0,0.0,0.0,0.0,0.0,0.0,0.0,0.0,0.8322,0.8153,0.818,0.8336,0.8316,0.835,0.8445,0.8194,0.8133,0.8235,0.8099,0.8038,0.0,0.0,0.835,0.8499,0.8669,0.8906,0.9144,0.9042,0.9083,0.9205,0.9334,0.9408,0.9476,0.0,0.0,0.0,0.0,0.0,0.0,0.0,0.0,0.0,0.0,0.0,0.0,0.0,0.0,0.0,0.0,0.0,0.0,0.0,0.0,-0.7746,-0.7686,-0.7705,-0.793,-0.8391,-0.8184,-0.8613,-0.9687,-1.0098,-1.0645,-1.1348,-1.1914,-1.1987,-1.1588,-1.1169,-1.1431,-1.2113,-1.1872,-1.1909,-1.2054,0.0,0.0,0.0,0.0,0.0,0.0,0.0,0.0,0.0,0.0,-0.4597,-0.4501,-0.4579,0.0,0.0,0.0,0.0,0.0,-0.5174,-0.5125,-0.5062,-0.5062,-0.4794,-0.4519,-0.4519,-0.4519,-0.447,-0.4477,0.0,0.0,0.0,0.0,-0.2304,0.0,0.0,0.0,0.0,0.0,0.0,0.0,0.0,0.0,0.0,0.0,0.0,0.0,0.0,0.0,0.0,0.0,0.0,0.0,0.8073,0.8085,0.8147,0.8147,0.818,0.8241,0.8106,0.8079,0.814,0.8072,0.8038,0.8045,0.0,0.8275,0.8486,0.856,0.8764,0.9028,0.896,0.8981,0.9069,0.9354,0.9523,0.9639,0.0,0.0,0.0,0.0,0.0,0.0,0.0,0.0,0.0,0.0,0.0,0.0,0.0,0.0,0.0,0.0,0.0,0.0,0.0,-0.7863,-0.7932,-0.7715,-0.7705,-0.7958,-0.8516,-0.8469,-0.9097,-1.043,-1.043,-1.1055,-1.218,-1.1624,-1.1217,-1.0974,-1.0871,-1.1132,-1.1616,-1.1505,-1.1505,-1.1542,0.0,0.0,0.0,0.0,0.0,0.0,0.0,0.0,0.0,0.0,0.0,0.0,0.0,0.0,0.0,-0.5148,-0.549,-0.5936,-0.5493,-0.5449,-0.5538,-0.571,-0.5117,-0.4525,-0.4567,-0.4545,-0.4529,0.0,0.0,0.0,0.0,-0.5114,0.0,0.0,0.0,0.0,0.0,0.0,0.0,0.0,0.0,0.0,0.0,0.0,0.0,0.0,0.0,0.0,0.0,0.0,0.0,0.0,0.7717,0.7965,0.8038,0.8038,0.8038,0.8038,0.8038,0.8038,0.8038,0.8038,0.8038,0.8038,0.8038,0.8208,0.8479,0.8479,0.8662,0.894,0.894,0.8981,0.9076,0.9381,0.9632,0.9822,0.0,0.0,0.0,0.0,0.0,0.0,0.0,0.0,0.0,0.0,0.0,0.0,0.0,0.0,0.0,0.0,0.0,0.0,0.0,-0.7175,-0.7352,-0.7686,-0.7705,-0.8094,-0.8945,-0.8574,-0.9199,-1.0859,-1.0859,-1.1328,-1.218,-1.1176,-1.0773,-1.0881,-1.0528,-1.0621,-1.1019,-1.0582,-1.0659,-1.0981,-1.0021,0.0,0.0,0.0,0.0,0.0,0.0,0.0,0.0,0.0,0.0,0.0,0.0,0.0,-0.5508,-0.5343,-0.5626,-0.6026,-0.6279,-0.5924,-0.5647,-0.6372,-0.55,-0.4553,-0.464,-0.4611,0.0,-0.4991,0.0,0.0,0.0,0.0,0.0,0.0,0.0,0.0,0.0,0.0,0.0,0.0,0.0,0.0,0.0,0.0,0.0,0.0,0.0,0.0,0.0,0.0,0.0,0.0,0.0,0.7965,0.8038,0.8038,0.8038,0.8038,0.8038,0.8038,0.8038,0.8038,0.8038,0.8038,0.8038,0.8208,0.8479,0.8479,0.8662,0.894,0.894,0.911,0.9354,0.9381,0.9571,0.9822,0.0,0.0,0.0,0.0,0.0,0.0,0.0,0.0,0.0,0.0,0.0,-0.3396,-0.3981,0.0,0.0,0.0,0.0,0.0,0.0,-0.7452,-0.753,-0.7686,-0.7705,-0.8094,-0.8984,-0.8848,-0.9329,-1.0401,-1.0299,-1.033,-1.0383,-1.031,-1.0209,-1.0028,-1.0234,-1.039,-1.0544,-1.004,-0.9922,-1.0021,-0.927,-0.9007,0.0,0.0,0.0,0.0,0.0,0.0,0.0,0.0,-0.5115,-0.4921,-0.5405,-0.597,-0.6409,-0.5908,-0.6237,-0.6762,-0.6483,-0.5986,-0.5655,-0.6426,-0.5555,0.0,0.0,-0.475,-0.4789,-0.4863,-0.5098,0.0,0.0,0.0,0.0,0.0,0.0,0.0,0.0,0.0,0.0,0.0,0.0,0.0,0.0,0.0,0.0,0.0,0.0,0.0,0.0,0.0,0.0,0.0,0.0,0.7979,0.7959,0.8045,0.8038,0.8038,0.8038,0.8038,0.8038,0.8038,0.8038,0.8038,0.8038,0.8208,0.8479,0.8479,0.8662,0.894,0.894,0.9178,0.951,0.9415,0.9564,0.9822,0.0,0.0,0.0,0.0,0.0,0.0,0.0,0.0,-0.1985,0.0,0.0,0.0,0.0,-0.4301,0.0,0.0,0.0,0.0,-0.7377,-0.7579,-0.7705,-0.7705,-0.7705,-0.8055,-0.8867,-0.8795,-0.917,-1.0107,-0.9737,-0.9469,-0.9298,-0.9623,-0.9683,-0.9527,-1.004,-1.0273,-1.0235,-0.9725,-0.9527,-0.9448,-0.8724,-0.8439,0.0,0.0,0.0,0.0,0.0,0.0,0.0,0.0,-0.487,-0.487,-0.5599,-0.6368,-0.6824,-0.6326,-0.6701,-0.7085,-0.6288,-0.5729,-0.5569,-0.6051,0.0,0.0,-0.4782,-0.4952,-0.506,-0.5047,-0.5372,0.0,0.0,0.0,0.0,0.0,0.0,0.0,0.0,0.0,0.0,0.0,0.0,0.0,0.0,0.0,0.0,0.0,0.0,0.0,0.0,0.0,0.0,0.0,0.0,0.0,0.7898,0.7984,0.7977,0.797,0.8018,0.8045,0.8052,0.8052,0.7952,0.7952,0.7952,0.8113,0.8492,0.8486,0.8662,0.894,0.894,0.9184,0.9523,0.9422,0.9564,0.9822,0.0,0.0,0.0,0.0,0.0,0.0,0.0,0.0,-0.0437,-0.1629,-0.2033,0.0,0.0,0.0,0.0,0.0,0.0,0.0,-0.6712,-0.7339,-0.7705,-0.7705,-0.7705,-0.7978,-0.8594,-0.8307,-0.88,-1.0089,-0.9289,-0.9019,-0.9281,-0.9169,-0.9224,-0.9527,-1.004,-1.0293,-1.0235,-0.9725,-0.9487,-0.9408,-0.8316,-0.7878,-0.7874,0.0,0.0,0.0,0.0,0.0,0.0,0.0,-0.4387,-0.4586,-0.5823,-0.639,-0.6579,-0.6597,-0.6843,-0.6818,-0.5636,-0.5276,-0.5284,-0.5284,0.0,0.0,-0.5067,-0.5257,-0.546,-0.5745,-0.58,-0.58,-0.5806,0.0,0.0,0.0,0.0,0.0,0.0,0.0,0.0,0.0,0.0,0.0,0.0,0.0,0.0,0.0,0.0,0.0,0.0,0.0,0.0,0.0,0.0,0.0,0.7544,0.7848,0.7931,0.7814,0.797,0.7952,0.7972,0.7972,0.7979,0.7992,0.7979,0.8139,0.8295,0.8492,0.8662,0.894,0.894,0.9123,0.9381,0.9381,0.9564,0.9822,0.0,0.0,0.0,0.0,0.0,0.0,0.0,0.0,-0.1395,-0.1205,-0.1781,0.0,0.0,0.0,0.0,0.0,0.0,0.0,-0.6955,-0.7181,-0.7403,-0.7686,-0.7705,-0.7799,-0.8033,-0.7767,-0.7928,-0.8558,-0.7888,-0.7616,-0.7702,-0.828,-0.8477,-0.8414,-0.9139,-0.9371,-0.9151,-0.8602,-0.8136,-0.7694,-0.6972,-0.6689,-0.6761,0.0,0.0,0.0,0.0,0.0,0.0,0.0,0.0,0.0,-0.4866,-0.5329,-0.5528,-0.5417,-0.5681,-0.5886,-0.5397,-0.5006,-0.4907,-0.552,0.0,0.0,0.0,-0.525,0.0,0.0,-0.5874,-0.5867,-0.6084,0.0,0.0,0.0,0.0,0.0,0.0,0.0,0.0,0.0,0.0,0.0,0.0,0.0,0.0,0.0,0.0,0.0,0.0,0.0,0.0,0.0,0.0,0.0,0.23,0.594,0.7758,0.7938,0.7997,0.7972,0.7972,0.7972,0.6954,0.5231,0.5227,0.6321,0.8157,0.8454,0.8818,0.9083,0.8981,0.9184,0.953,0.9422,0.9564,0.9822,0.0,0.0,0.0,0.0,0.0,0.0,-0.1798,-0.1773,-0.1634,-0.1299,-0.1703,-0.2276,0.0,0.0,0.0,-0.4684,-0.5325,0.0,-0.639,-0.6851,-0.7148,-0.7225,-0.7539,-0.7504,-0.7121,-0.7625,-0.7738,-0.7385,-0.7127,-0.6985,-0.7027,-0.7903,-0.8134,-0.7934,-0.8749,-0.8971,-0.8683,-0.8265,-0.7631,-0.6959,-0.6545,-0.6273,-0.6264,0.0,0.0,0.0,0.0,0.0,0.0,0.0,0.0,0.0,-0.4521,-0.5029,-0.528,-0.5078,-0.5249,-0.5455,-0.4919,-0.4532,0.0,-0.5098,-0.5108,-0.4999,-0.5298,0.0,0.0,0.0,0.0,-0.5969,0.0,0.0,0.0,0.0,0.0,0.0,0.0,0.0,0.0,0.0,0.0,0.0,0.0,0.0,0.0,0.0,0.0,0.0,0.0,0.0,0.0,0.0,0.0,0.0,0.0,0.3044,0.517,0.6222,0.74,0.7977,0.8028,0.8045,0.5952,0.2515,0.3543,0.5519,0.7988,0.8421,0.8757,0.8967,0.8879,0.9083,0.9415,0.9327,0.9483,0.9727,0.0,0.0,-0.0179,-0.0714,0.0,0.0,-0.1798,-0.1508,-0.1401,-0.1753,-0.1798,-0.2118,0.0,0.0,0.0,-0.4316,-0.4997,-0.5413,-0.5426,-0.6407,-0.685,-0.6518,-0.7166,-0.7113,-0.6246,-0.7706,-0.7879,-0.6746,-0.6935,-0.6985,-0.7027,-0.786,-0.812,-0.7896,-0.8637,-0.8818,-0.8585,-0.8235,-0.7615,-0.6842,-0.6514,-0.6313,-0.6214,-0.6677,0.0,0.0,0.0,0.0,0.0,0.0,0.0,0.0,-0.4567,-0.5172,-0.5533,-0.5162,-0.5339,-0.5376,-0.4353,-0.4022,-0.4111,-0.4409,-0.4735,0.0,-0.5338,-0.5718,-0.6051,-0.6207,0.0,0.0,0.0,0.0,0.0,0.0,0.0,0.0,0.0,0.0,0.0,0.0,0.0,0.0,0.0,0.0,0.0,0.0,0.0,0.0,0.0,0.0,0.0,0.0,0.0,0.0,0.0,0.0,0.1106,0.0,0.6452,0.8,0.7991,0.7997,0.5056,0.0101,0.2866,0.5569,0.7981,0.8307,0.856,0.871,0.871,0.8893,0.915,0.915,0.934,0.9571,0.0,0.0,-0.0045,-0.0178,0.0,0.0,-0.184,-0.1869,-0.1879,-0.1811,-0.1798,-0.1989,-0.2502,-0.3058,0.0,-0.4204,-0.492,-0.5448,-0.577,-0.6029,-0.6244,-0.6488,-0.6366,-0.661,-0.7243,-0.69,-0.7064,-0.7769,-0.7238,-0.6985,-0.7027,-0.7453,-0.765,-0.7595,-0.7739,-0.7828,-0.7713,-0.6972,-0.6331,-0.5776,-0.511,-0.5183,-0.5641,-0.5674,-0.6198,0.0,0.0,0.0,0.0,0.0,0.0,0.0,-0.3929,-0.4439,-0.4912,-0.4815,-0.4901,-0.5017,-0.4621,-0.4363,0.0,-0.4565,-0.5047,-0.5494,-0.5671,-0.5779,-0.5895,-0.6051,0.0,0.0,0.0,0.0,0.0,0.0,0.0,0.0,0.0,0.0,0.0,0.0,0.0,0.0,0.0,0.0,0.0,0.0,0.0,0.0,0.0,0.0,0.0,0.0,0.0,0.0,0.0,0.0,0.0277,0.0,0.5711,0.802,0.7991,0.7997,0.5056,0.0101,0.2826,0.551,0.8001,0.8213,0.8472,0.871,0.871,0.8893,0.915,0.915,0.9273,0.9422,0.0,0.0,0.0,0.0,0.0,0.0,0.0,0.0,-0.184,-0.1551,-0.1758,-0.2069,-0.2371,-0.3003,0.0,0.0,-0.4731,-0.5209,-0.5578,-0.5797,-0.6029,-0.6305,-0.5859,-0.5996,-0.6783,-0.6397,-0.6601,-0.7368,-0.7247,-0.7127,-0.6985,-0.7321,-0.7432,-0.7255,-0.7446,-0.7432,-0.7211,-0.6708,-0.6088,-0.5457,-0.4941,-0.5033,-0.5484,-0.5345,-0.5996,-0.6846,-0.5696,0.0,0.0,0.0,0.0,0.0,0.0,0.0,-0.4537,-0.4537,-0.4604,-0.468,-0.468,-0.4341,0.0,-0.449,0.0,-0.5325,-0.5542,-0.5589,-0.565,-0.5874,0.0,0.0,0.0,0.0,0.0,0.0,0.0,0.0,0.0,0.0,0.0,0.0,0.0,0.0,0.0,0.0,0.0,0.0,0.0,0.0,0.0,0.0,0.0,0.0,0.0,0.0,0.0,0.0,0.0,0.009,0.5403,0.6661,0.4208,0.4132,0.2691,0.01,0.1503,0.4347,0.8004,0.8086,0.8343,0.8601,0.8601,0.8784,0.9049,0.9049,0.9144,0.9259,0.0,0.0,0.0,0.0,0.0,0.0,0.0,0.0,0.0,-0.1208,-0.1718,-0.219,-0.2365,-0.2999,-0.3609,0.0,0.0,0.0,-0.5295,-0.5609,-0.5859,-0.5952,-0.5515,-0.5484,-0.586,-0.6035,-0.625,-0.6466,-0.7001,-0.7133,-0.6934,-0.7371,-0.7412,-0.7108,-0.7308,-0.7238,-0.692,-0.6684,-0.6107,-0.5396,-0.5035,-0.5097,-0.5394,-0.5361,-0.5901,-0.6592,-0.5653,-0.5221,-0.5005,-0.3972,0.0,0.0,0.0,0.0,-0.4387,-0.4387,-0.4387,-0.442,-0.4579,-0.4275,-0.3968,-0.4415,-0.4694,0.0,-0.523,-0.5284,-0.5352,0.0,0.0,0.0,0.0,0.0,0.0,0.0,0.0,0.0,0.0,0.0,0.0,0.0,0.0,0.0,0.0,0.0,0.0,0.0,0.0,0.0,0.0,0.0,0.0,0.0,0.0,0.0,0.0,0.0,0.0,0.0087,0.4516,0.4274,0.0,0.0,0.0,0.0,0.0,0.2814,0.7372,0.7772,0.8221,0.8445,0.8445,0.8615,0.8866,0.8893,0.8974,0.9062,0.0,0.0,0.0,0.0,0.0,0.0,0.0,0.0,0.0,0.0,-0.1662,-0.2244,-0.2388,-0.3187,-0.3821,-0.4029,-0.4771,-0.5237,-0.5309,0.0,0.0,-0.5404,-0.534,-0.5424,-0.5731,-0.5758,-0.5838,-0.5994,-0.6449,-0.6638,-0.6572,-0.7457,-0.7674,-0.7446,-0.7174,-0.6898,-0.6609,-0.5938,-0.5405,-0.4922,-0.4356,-0.4496,-0.4995,-0.5357,-0.548,-0.5524,-0.5351,-0.4952,-0.4439,-0.3796,-0.3581,0.0,0.0,0.0,-0.4387,-0.4387,-0.4387,-0.4395,-0.442,0.0,-0.418,0.0,-0.4694,-0.4931,0.0,0.0,-0.4992,0.0,0.0,0.0,0.0,0.0,0.0,0.0,0.0,0.0,0.0,0.0,0.0,0.0,0.0,0.0,0.0,0.0,0.0,0.0,0.0,0.0,0.0,0.0,0.0,0.0,0.0,0.0,0.0,0.0,0.0,0.0,0.0694,0.071,0.0,0.0,0.0,0.0,0.0,0.1708,0.4722,0.7054,0.816,0.8296,0.8296,0.8397,0.856,0.8696,0.875,0.8784,0.0,0.0,0.0,0.0,0.0,0.0,0.0,0.0,0.0,0.0,0.0,-0.1884,-0.2334,-0.306,-0.3556,-0.3616,-0.421,-0.4576,-0.4576,-0.5023,-0.5182,-0.4928,-0.5151,-0.5411,-0.5705,-0.5558,-0.5731,-0.6303,-0.6645,-0.6828,0.0,-0.7527,-0.7659,-0.7214,-0.7255,-0.6949,-0.6378,-0.6044,-0.5506,-0.4857,-0.4264,-0.4311,-0.478,-0.4861,-0.5005,-0.5178,-0.5019,-0.4806,-0.4456,-0.3796,-0.3581,-0.3581,-0.3581,0.0,0.0,0.0,-0.4176,-0.3965,-0.3965,-0.3965,-0.4009,0.0,-0.4253,-0.4457,-0.4626,0.0,0.0,0.0,0.0,0.0,0.0,0.0,0.0,0.0,0.0,0.0,0.0,0.0,0.0,0.0,0.0,0.0,0.0,0.0,0.0,0.0,0.0,0.0,0.0,0.0,0.0,0.0,0.0,0.0,0.0,0.0,0.0,0.0,0.0,0.0,0.0,0.0,0.0,0.0,0.0,0.0704,0.2109,0.6247,0.8059,0.8173,0.8269,0.8357,0.8492,0.856,0.8581,0.8608,0.0,0.0,0.0,0.0,0.0,0.0,0.0,0.0,0.0,0.0,0.0,-0.135,-0.2367,0.0,0.0,0.0,-0.3723,-0.3993,-0.3993,-0.4704,-0.496,-0.4596,-0.5055,-0.5384,-0.5598,-0.5397,-0.5638,-0.6373,-0.6657,-0.682,-0.6921,-0.7404,-0.7447,0.0,-0.7146,-0.6767,-0.5967,-0.5917,-0.5435,-0.4597,-0.4151,-0.4149,-0.4405,-0.4351,-0.4488,-0.4627,-0.4635,0.0,0.0,0.0,0.0,0.0,0.0,-0.3581,0.0,0.0,0.0,-0.3626,-0.3751,0.0,-0.3792,-0.3792,-0.3907,-0.4077,0.0,0.0,0.0,0.0,0.0,0.0,0.0,0.0,0.0,0.0,0.0,0.0,0.0,0.0,0.0,0.0,0.0,0.0,0.0,0.0,0.0,0.0,0.0,0.0,0.0,0.0,0.0,0.0,0.0,0.0,0.0,0.0,0.0,0.0,0.0,0.0,0.0,0.0,0.0,0.0,0.0,0.0,0.0402,0.5035,0.7421,0.8024,0.8214,0.8275,0.8377,0.8411,0.8431,0.8452,0.0,0.0,0.0,0.0,0.0,0.0,0.0,0.0,0.0,0.0,0.0,-0.0735,-0.248,-0.2706,-0.2896,-0.3257,-0.3723,-0.3993,-0.3993,-0.4415,-0.4628,-0.4596,-0.5055,0.0,-0.5336,-0.5322,-0.5438,-0.5758,-0.6098,-0.6382,-0.6613,-0.6894,-0.7027,-0.6985,-0.6615,-0.6046,-0.5348,0.0,-0.4665,-0.3866,-0.3961,-0.3846,-0.3707,-0.4085,-0.3888,-0.3468,0.0,0.0,0.0,0.0,0.0,0.0,0.0,0.0,0.0,0.0,0.0,0.0,0.0,-0.4078,0.0,-0.3792,-0.3907,-0.4022,0.0,0.0,0.0,0.0,0.0,0.0,0.0,0.0,0.0,0.0,0.0,0.0,0.0,0.0,0.0,0.0,0.0,0.0,0.0,0.0,0.0,0.0,0.0,0.0,0.0,0.0,0.0,0.0,0.0,0.0,0.0,0.0,0.0,0.0,0.0,0.0,0.0,0.0,0.0,0.0,0.0,0.0,0.0201,0.3012,0.5737,0.7979,0.8058,0.8058,0.8079,0.8228,0.8282,0.8303,0.0,0.0,0.0,0.0,0.0,0.0,0.0,0.0,0.0,0.0,0.0,0.0,0.0,-0.2693,-0.2753,-0.2918,-0.3298,-0.3482,-0.3301,-0.3875,-0.4221,-0.4221,-0.4628,-0.4992,-0.5277,-0.5464,-0.5705,-0.6035,-0.633,-0.6587,-0.6867,-0.6974,-0.6985,-0.6985,-0.6659,-0.6146,-0.5425,-0.529,0.0,-0.4045,-0.3942,-0.3704,-0.3439,-0.358,0.0,0.0,0.0,0.0,0.0,0.0,0.0,0.0,0.0,0.0,0.0,0.0,0.0,0.0,0.0,0.0,0.0,-0.3747,-0.3697,-0.3758,-0.3853,0.0,0.0,0.0,0.0,0.0,0.0,0.0,0.0,0.0,0.0,0.0,0.0,0.0,0.0,0.0,0.0,0.0,0.0,0.0,0.0,0.0,0.0,0.0,0.0,0.0,0.0,0.0,0.0,0.0,0.0,0.0,0.0,0.0,0.0,0.0,0.0,0.0,0.0,0.0,0.0,0.0,0.0101,0.1006,0.4021,0.7985,0.7965,0.7952,0.8045,0.8099,0.8126,0.8147,0.0,0.0,0.0,0.0468,0.0,0.0435,0.0435,0.0183,0.0,0.0,0.0,0.0,0.0,0.0,-0.2773,-0.27,-0.2996,-0.3083,-0.2864,-0.3466,-0.3832,-0.3765,-0.4383,-0.482,-0.5055,-0.5399,-0.5758,-0.6196,-0.6384,-0.664,-0.6985,-0.6985,-0.6985,-0.6985,-0.6399,-0.589,0.0,0.0,0.0,-0.3976,0.0,-0.3649,-0.3383,0.0,0.0,0.0,0.0,0.0,0.0,0.0,0.0,0.0,0.0,0.0,0.0,0.0,0.0,0.0,-0.3861,0.0,0.0,0.0,-0.35,-0.348,-0.3676,0.0,0.0,0.0,0.0,0.0,0.0,0.0,0.0,0.0,0.0,0.0,0.0,0.0,0.0,0.0,0.0,0.0,0.0,0.0,0.0,0.0,0.0,0.0,0.0,0.0,0.0,0.0,0.0,0.0,0.0,0.0,0.0,0.0,0.0,0.0,0.0,0.0,0.0,0.0,0.0,0.0,0.0,0.0,0.2613,0.6753,0.7666,0.7959,0.8038,0.8038,0.8038,0.8052,0.2128,0.2273,0.219,0.145,0.1354,0.1348,0.1348,0.0612,0.0067,0.0,0.0,0.0,0.0,0.0,0.0,-0.272,-0.2835,-0.2856,-0.2713,-0.3248,-0.3499,-0.3315,-0.4298,-0.4796,-0.4631,-0.5081,-0.5585,-0.6209,-0.6209,-0.6505,-0.6985,-0.6985,-0.6985,-0.693,-0.5825,-0.5308,-0.5261,0.0,-0.3988,-0.3646,0.0,-0.3704,-0.3548,0.0,0.0,0.0,-0.2825,-0.3043,0.0,0.0,0.0,0.0,0.0,0.0,0.0,0.0,0.0,0.0,0.0,0.0,0.0,0.0,0.0,0.0,-0.35,0.0,0.0,0.0,0.0,0.0,0.0,0.0,0.0,0.0,0.0,0.0,0.0,0.0,0.0,0.0,0.0,0.0,0.0,0.0,0.0,0.0,0.0,0.0,0.0,0.0,0.0,0.0,0.0,0.0,0.0,0.0,0.0,0.0,0.0,0.0,0.0,0.0,0.0,0.0,0.0,0.0,0.0,0.0,0.1506,0.4117,0.6954,0.7959,0.8038,0.8038,0.8038,0.8038,0.2374,0.2401,0.2372,0.2312,0.2315,0.231,0.231,0.2099,0.147,0.0,0.0,0.0,0.0,-0.0493,-0.1449,-0.3011,-0.3036,-0.3023,-0.3122,-0.3215,-0.3377,-0.3663,-0.3868,-0.4322,-0.5084,-0.5335,-0.5799,-0.6466,-0.668,-0.6867,-0.6985,-0.6985,-0.6985,-0.693,-0.5825,-0.5308,-0.5241,-0.4283,0.0,-0.4204,-0.3809,-0.3622,0.0,0.0,0.0,0.0,0.0,-0.1984,-0.323,0.0,-0.0215,-0.0503,0.0,0.0,0.0,0.0,0.0,0.0,-0.3695,0.0,0.0,0.0,0.0,0.0,-0.3229,-0.3256,0.0,0.0,0.0,0.0,0.0,0.0,0.0,0.0,0.0,0.0,0.0,0.0,0.0,0.0,0.0,0.0,0.0,0.0,0.0,0.0,0.0,0.0,0.0,0.0,0.0,0.0,0.0,0.0,0.0,0.0,0.0,0.0,0.0,0.0,0.0,0.0,0.0,0.0,0.0,0.0,0.0,0.0,0.0398,0.1607,0.6147,0.7979,0.7959,0.8045,0.8038,0.8038,0.2561,0.255,0.2557,0.2684,0.2691,0.2712,0.2776,0.2798,0.2264,0.0,0.0,0.0,0.0,0.0,-0.0536,-0.1793,-0.2754,-0.3282,-0.3303,-0.3236,-0.3267,-0.3513,-0.3673,-0.4045,-0.4651,-0.5141,-0.5571,-0.5899,-0.6517,-0.6783,-0.6689,-0.6901,-0.6985,-0.693,-0.5825,-0.5308,-0.5231,0.0,0.0,0.0,-0.3961,0.0,0.0,-0.3554,-0.2403,0.0,0.0,0.0,-0.0462,0.043,0.0761,0.0,0.0,0.0,0.0,0.0,0.0,0.0,0.0,0.0,0.0,0.0,0.0,0.0,-0.3068,-0.3102,-0.3208,0.0,0.0,0.0,0.0,0.0,0.0,0.0,0.0,0.0,0.0,0.0,0.0,0.0,0.0,0.0,0.0,0.0,0.0,0.0,0.0,0.0,0.0,0.0,0.0,0.0,0.0,0.0,0.0,0.0,0.0,0.0,0.0,0.0,0.0,0.0,0.0,0.0,0.0,0.0,0.0,0.0,0.0,0.0402,0.4626,0.7059,0.7972,0.8045,0.8038,0.8038,0.0,0.2726,0.2706,0.2706,0.272,0.2774,0.291,0.2973,0.2652,0.0,0.0634,0.0,0.0,0.0,0.0,0.0,-0.198,-0.3248,-0.332,-0.3351,-0.3276,-0.3174,-0.364,-0.3899,-0.3879,-0.4739,-0.5114,-0.4933,-0.6027,-0.6448,-0.6221,-0.6774,-0.6985,-0.693,-0.5825,-0.5308,-0.5231,0.0,0.0,-0.3805,-0.4052,-0.4016,0.0,0.0,-0.1832,0.0,0.2733,0.3594,0.3455,0.2347,0.1996,0.0,0.0,0.0,0.0,0.0,0.039,0.0,0.0,0.0,0.0,0.0,0.0,0.0,-0.3052,-0.2998,-0.2968,0.0,0.0,0.0,0.0,0.0,0.0,0.0,0.0,0.0,0.0,0.0,0.0,0.0,0.0,0.0,0.0,0.0,0.0,0.0,0.0,0.0,0.0,0.0,0.0,0.0,0.0,0.0,0.0,0.0,0.0,0.0,0.0,0.0,0.0,0.0,0.0,0.0,0.0,0.0,0.0,0.0,0.0,0.0201,0.2609,0.5331,0.7972,0.7952,0.8038,0.8038,0.2712,0.2781,0.2862,0.2862,0.2957,0.3046,0.3073,0.317,0.3115,0.2812,0.1157,0.0,0.0,0.0,0.0,0.0,-0.044,-0.1494,-0.3407,-0.352,-0.352,-0.3493,-0.344,-0.3719,-0.4286,-0.435,-0.4697,-0.5247,-0.5927,-0.6259,-0.6221,-0.6774,-0.6985,-0.693,-0.5825,-0.5308,-0.5231,0.0,0.0,-0.3792,-0.3934,0.0,-0.0813,-0.0728,0.0762,0.2908,0.3417,0.358,0.358,0.0,0.3048,0.2882,0.0,0.0,0.0,0.0,0.0,0.0,0.0,0.0,0.0,0.0,0.0,0.0,-0.2815,-0.293,-0.3028,0.0,0.0,0.0,0.0,0.0,0.0,0.0,0.0,0.0,0.0,0.0,0.0,0.0,0.0,0.0,0.0,0.0,0.0,0.0,0.0,0.0,0.0,0.0,0.0,0.0,0.0,0.0,0.0,0.0,0.0,0.0,0.0,0.0,0.0,0.0,0.0,0.0,0.0,0.0,0.0,0.0,0.0,0.0099,0.06,0.372,0.7985,0.7972,0.7952,0.8038,0.3246,0.3236,0.3285,0.3405,0.3263,0.3108,0.3182,0.3242,0.3303,0.3331,0.1414,0.0448,0.0,0.0,0.0,0.0,0.0,-0.0507,-0.1704,-0.3006,-0.3758,-0.3758,-0.3611,-0.3771,-0.4206,-0.4272,-0.4388,-0.4529,-0.5674,-0.5879,-0.5308,-0.6209,-0.6391,-0.602,-0.5325,-0.4923,-0.4806,0.0,-0.3866,-0.3852,-0.3913,0.0,-0.0898,0.1044,0.2558,0.3602,0.3588,0.3578,0.3595,0.3475,0.3459,0.0,0.0,0.3571,0.367,0.0,0.2726,0.1514,0.0,0.0,0.0,-0.1515,0.0,0.0,0.0,-0.3025,-0.303,-0.3022,0.0,0.0,0.0,0.0,0.0,0.0,0.0,0.0,0.0,0.0,0.0,0.0,0.0,0.0,0.0,0.0,0.0,0.0,0.0,0.0,0.0,0.0,0.0,0.0,0.0,0.0,0.0,0.0,0.0,0.0,0.0,0.0,0.0,0.0,0.0,0.0,0.0,0.0,0.0,0.0,0.0,0.0,0.0,0.1609,0.4325,0.7054,0.7965,0.7952,0.4054,0.384,0.3771,0.3992,0.3582,0.3249,0.3329,0.335,0.3396,0.3561,0.1484,0.0,0.0,0.0,0.0,0.0,0.0,0.0,0.0,-0.1992,-0.3366,-0.3896,-0.3845,-0.3873,-0.3934,-0.4207,-0.4199,-0.3792,-0.5237,-0.5433,-0.4495,-0.5566,-0.5727,-0.5219,-0.4826,-0.4579,0.0,0.0,0.0,-0.3859,0.0,-0.315,-0.2034,0.1727,0.3347,0.3591,0.3595,0.3581,0.3568,0.3423,0.0,0.3751,0.3463,0.3622,0.0,0.0,0.0,0.0,0.0,0.0,0.0,0.0,0.0,-0.256,0.0,0.0,0.0,-0.3232,0.0,0.0,0.0,0.0,0.0,0.0,0.0,0.0,0.0,0.0,0.0,0.0,0.0,0.0,0.0,0.0,0.0,0.0,0.0,0.0,0.0,0.0,0.0,0.0,0.0,0.0,0.0,0.0,0.0,0.0,0.0,0.0,0.0,0.0,0.0,0.0,0.0,0.0,0.0,0.0,0.0,0.0,0.0,0.0,0.05,0.4822,0.7153,0.7972,0.4947,0.4421,0.4149,0.4175,0.3814,0.3534,0.3554,0.3554,0.3561,0.3581,0.0,0.0,0.0,0.0,0.0,0.0,0.0,0.0,0.0,0.0,-0.152,-0.3894,-0.3961,-0.3852,-0.3636,-0.401,-0.4066,-0.3792,-0.4516,-0.4871,-0.4832,-0.5221,-0.55,-0.5691,-0.4816,0.0,0.0,0.0,-0.3859,0.0,-0.2567,-0.2623,0.0,0.0272,0.2425,0.3591,0.3584,0.3581,0.3595,0.0,0.3765,0.3785,0.0,0.386,0.3941,0.0,0.0,0.0,0.0,0.0,0.0,0.0,0.0472,0.0,0.0,0.0,-0.344,-0.3195,0.0,0.0,0.0,0.0,0.0,0.0,0.0,0.0,0.0,0.0,0.0,0.0,0.0,0.0,0.0,0.0,0.0,0.0,0.0,0.0,0.0,0.0,0.0,0.0,0.0,0.0,0.0,0.0,0.0,0.0,0.0,0.0,0.0,0.0,0.0,0.0,0.0,0.0,0.0,0.0,0.0,0.0,0.0,0.0,0.0098,0.0699,0.392,0.7972,0.5626,0.4993,0.4656,0.481,0.4216,0.3704,0.3704,0.3778,0.3819,0.3818,0.28,0.0,0.0,0.0,0.0,0.0,0.0,0.0,0.0,0.0,0.0,-0.1621,-0.2503,-0.3054,-0.3267,-0.3667,-0.3859,-0.3921,-0.4345,-0.4421,-0.4263,-0.4721,-0.4822,-0.4637,-0.4313,0.0,-0.4286,0.0,-0.3997,0.0,0.0,0.0,0.0,0.1326,0.2438,0.3579,0.3602,0.3581,0.3602,0.0,0.3853,0.0,0.0,0.0,0.0,0.0,0.0,0.0,0.0,0.0,0.0,0.0,0.0,0.0,0.0,0.0,-0.3557,0.0,0.0,0.0,0.0,0.0,0.0,0.0,0.0,0.0,0.0,0.0,0.0,0.0,0.0,0.0,0.0,0.0,0.0,0.0,0.0,0.0,0.0,0.0,0.0,0.0,0.0,0.0,0.0,0.0,0.0,0.0,0.0,0.0,0.0,0.0,0.0,0.0,0.0,0.0,0.0,0.0,0.0,0.0,0.0,0.0,0.0,0.0,0.3422,0.7999,0.625,0.5558,0.5074,0.5277,0.4455,0.3812,0.388,0.4002,0.4056,0.4031,0.3949,0.0,0.2713,0.2883,0.0,0.0,0.0658,0.0,0.0,0.0,0.0,0.0,-0.1023,0.0,-0.2191,-0.3273,-0.3873,-0.3982,-0.4234,-0.4204,-0.4024,-0.4367,-0.4326,-0.3975,0.0,-0.3988,-0.3983,0.0,0.0,-0.3853,-0.3853,-0.0839,0.352,0.2645,0.2821,0.352,0.3561,0.3581,0.3609,0.3792,0.3927,0.0,0.4022,0.0,0.0,0.0,0.0,0.0,0.3928,0.0,0.0,0.0,0.0,0.0,0.0,0.0,0.0,0.0,0.0,0.0,0.0,0.0,0.0,0.0,0.0,0.0,0.0,0.0,0.0,0.0,0.0,0.0,0.0,0.0,0.0,0.0,0.0,0.0,0.0,0.0,0.0,0.0,0.0,0.0,0.0,0.0,0.0,0.0,0.0,0.0,0.0,0.0,0.0,0.0,0.0,0.0,0.0,0.0,0.0,0.0,0.0,0.0,0.0,0.0,0.2922,0.6888,0.6972,0.6058,0.5298,0.5308,0.4455,0.3873,0.4161,0.4199,0.4167,0.4216,0.0,0.0,0.0,0.0,0.0,0.0,0.0,0.0,0.0,0.0,0.0,0.0,-0.0053,-0.0053,0.0,-0.2971,-0.4293,-0.3884,-0.4128,-0.43,-0.4491,-0.4144,-0.4165,-0.4484,-0.4144,-0.4046,-0.4174,-0.4198,-0.3452,-0.2381,-0.3894,-0.1209,0.3584,0.0,0.343,0.3336,0.3527,0.0,0.0,0.3914,0.4016,0.0,0.0,0.0,0.0,0.0,0.0,0.0,0.0,0.0,0.0,0.3832,0.0,0.0,0.0,0.0,-0.0426,0.0,0.0,0.0,0.0,0.0,0.0,0.0,0.0,0.0,0.0,0.0,0.0,0.0,0.0,0.0,0.0,0.0,0.0,0.0,0.0,0.0,0.0,0.0,0.0,0.0,0.0,0.0,0.0,0.0,0.0,0.0,0.0,0.0,0.0,0.0,0.0,0.0,0.0,0.0,0.0,0.0,0.0,0.0,0.0,0.0,0.0,0.0,0.1715,0.4131,0.6985,0.6081,0.5305,0.541,0.4918,0.4485,0.4428,0.4375,0.4382,0.0,0.0,0.0,0.0,0.0,0.4009,0.0,0.0,0.0,0.0,0.0,0.0,0.0,0.0,0.0,0.0,0.0,0.0,-0.4319,-0.4216,-0.4237,-0.4321,-0.4167,-0.4273,-0.4512,-0.426,-0.4151,0.0,0.0,0.0,0.0,0.0,0.1366,0.3837,0.0,0.0,0.4011,0.3686,0.3913,0.0,0.4094,0.4033,0.4133,0.428,0.4436,0.447,0.4165,0.4113,0.0,0.0,0.0,0.4107,0.4053,0.0,0.0,0.0,0.0,0.0,0.0,0.0,0.0,0.0,0.0,0.0,0.0,0.0,0.0,0.0,0.0,0.0,0.0,0.0,0.0,0.0,0.0,0.0,0.0,0.0,0.0,0.0,0.0,0.0,0.0,0.0,0.0,0.0,0.0,0.0,0.0,0.0,0.0,0.0,0.0,0.0,0.0,0.0,0.0,0.0,0.0,0.0,0.0,0.0,0.0,0.0,0.0,0.0606,0.1816,0.7277,0.6716,0.608,0.57,0.0,0.462,0.4532,0.0,0.0,0.0,0.4477,0.0,0.4519,0.0,0.4334,0.0,0.2005,0.0443,0.0049,0.0,0.0,0.0,0.0,0.0,0.0,0.0,0.0,0.0,0.0,-0.4292,-0.4328,-0.4328,-0.4375,-0.4512,-0.4368,-0.4219,-0.4136,0.0,-0.3691,0.0,0.0,0.2609,0.0,0.0,0.4227,0.4495,0.0,0.4662,0.5032,0.4915,0.4723,0.4681,0.5045,0.5015,0.4812,0.4658,0.465,0.4588,0.4374,0.4328,0.0,0.4207,0.4127,0.0,0.3907,0.0,0.0,0.0,0.0,0.0,0.0,0.0,0.0,0.0,0.0,0.0,0.0,-0.3865,0.0,0.0,0.0,0.0,0.0,0.0,-0.0449,-0.1513,-0.0617,0.0,0.0,0.0,0.0,0.0,0.0,0.0,0.0,0.0,0.0,0.0,0.0,0.0,0.0,0.0,0.0,0.0,0.0,0.0,0.0,0.0,0.0,0.0,0.0,0.0,0.0,0.0,0.0,0.0605,0.7869,0.7888,0.7457,0.0,0.4957,0.0,0.0,0.0,0.4519,0.0,0.4519,0.4519,0.4519,0.4341,0.4312,0.4485,0.2844,0.0,0.0101,0.0,0.0,0.0,0.0,0.0,0.0,0.0,0.0,0.0,0.0,-0.4421,-0.4477,-0.4525,-0.4519,-0.4519,-0.4519,0.0,-0.4022,-0.3993,-0.3093,-0.1517,0.0848,0.2603,0.3816,0.4621,0.0,0.4836,0.5513,0.5698,0.5779,0.6207,0.5845,0.5397,0.6061,0.5933,0.545,0.5335,0.5411,0.5382,0.4732,0.4519,0.4429,0.4241,0.0,0.0,0.0,0.0,0.3838,0.0,0.0,0.0,0.0,0.0,0.0,0.0,0.0,0.0,0.0,0.0,0.0,0.0,0.0,0.0,0.0,0.0,-0.1233,-0.4287,-0.1852,-0.0168,0.0,0.0,0.0,0.0,0.0,0.0,0.0,0.0,0.0,0.0,0.0,0.0,0.0,0.0,0.0,0.0,0.0,0.0,0.0,0.0,0.0,0.0,0.0,0.0,0.0,0.0,0.0,0.0402,0.7875,0.7888,0.7538,0.0,0.5183,0.4457,0.0,0.0,0.0,0.0,0.4519,0.4519,0.4519,0.4429,0.4422,0.4485,0.3027,0.0,0.0,0.0,0.0,0.0,0.0,0.0,0.0,0.0,0.0,-0.0,0.0,0.0,-0.4477,-0.4525,-0.4519,-0.4519,-0.4519,-0.43,-0.4022,-0.3993,-0.2608,-0.0314,0.1387,0.3482,0.0,0.0,0.53,0.5848,0.5983,0.6083,0.6037,0.5705,0.521,0.4729,0.4946,0.5241,0.5475,0.5487,0.545,0.5483,0.5273,0.4897,0.4512,0.4416,0.4328,0.422,0.0,0.0,0.0,0.0,0.0,0.0,0.0,0.0,0.0,0.0,0.0,0.0,0.0,0.0,0.0,0.0,0.0,0.0,-0.0056,0.0,-0.1233,-0.4287,-0.3772,0.0,0.0,0.0,0.0,0.0,0.0,0.0,0.0,0.0,0.0,0.0,0.0,0.0,0.0,0.0,0.0,0.0,0.0,0.0,0.0,0.0,0.0,0.0,0.0,0.0,0.0,0.0,0.0,0.0403,0.8283,0.831,0.0,0.7434,0.0,0.0,0.4519,0.0,0.0,0.4519,0.4519,0.0,0.4519,0.4519,0.4491,0.4523,0.3696,0.0,0.0,0.0,0.0,0.0,0.0,0.0,0.0,0.0,0.0,-0.0,0.0,0.0,-0.4497,-0.4477,-0.4525,-0.4525,-0.4519,-0.4334,-0.4066,-0.3346,-0.187,0.0142,0.147,0.0,0.0,0.5121,0.5307,0.5878,0.6625,0.6574,0.6154,0.5948,0.5462,0.5007,0.5336,0.5655,0.5982,0.5982,0.6199,0.6298,0.5647,0.5218,0.4842,0.4574,0.4402,0.4362,0.4498,0.4402,0.4375,0.0,0.0,0.0,0.0,0.0,0.0,0.0,0.0,0.0,0.0,0.0,0.0,0.0,-0.1008,0.0,0.0,0.0,-0.0728,-0.2411,0.0,0.0,0.0,0.0,0.0,0.0,0.0,0.0,0.0,0.0,0.0,0.0,0.0,0.0,0.0,0.0,0.0,0.0,0.0,0.0,0.0,0.0,0.0,0.0,0.0,0.0,0.0,0.0,0.0,0.0202,0.8751,0.0,0.0,0.0,0.0,0.0,0.0,0.4519,0.0,0.4519,0.0,0.4519,0.4519,0.4519,0.4519,0.4477,0.0,0.3409,0.078,0.0217,0.0,0.0,0.0,0.0,0.0,0.0,0.0,0.0,0.0,0.0,-0.394,-0.4089,-0.4311,-0.4477,-0.4525,0.0,0.0,-0.2658,-0.1007,0.0656,0.1513,0.3006,0.4704,0.4923,0.5166,0.5492,0.6839,0.6776,0.6162,0.6625,0.6199,0.5655,0.6362,0.6642,0.675,0.675,0.7182,0.7396,0.6036,0.5592,0.5328,0.4677,0.4519,0.4519,0.4519,0.4519,0.4519,0.4519,0.4457,0.0,0.0,0.0,0.0,0.0,0.0,0.0,0.0,0.0,0.0,0.0,0.0,0.0,0.0,0.0,0.0,0.0,0.0,0.0,0.0,0.0,0.0,0.0,0.0,0.0,0.0,0.0,0.0,0.0,0.0,0.0,0.0,0.0,0.0,0.0,0.0,0.0,0.0,0.0,0.0,0.0,0.0,0.0,0.0,0.0,0.0,0.0,0.0,0.0,0.0,0.0,0.0,0.7235,0.4842,0.4519,0.4519,0.4519,0.4519,0.4519,0.4519,0.4519,0.4519,0.4519,0.4505,0.0,0.0,0.0,0.0,0.0,0.0,0.0,0.0,0.0,0.0,0.0,0.0,0.0,-0.0838,-0.2007,-0.3294,-0.4477,-0.449,0.0,-0.4379,-0.3607,0.0,0.3616,0.253,0.3551,0.5553,0.4877,0.4985,0.5441,0.5156,0.5311,0.582,0.7106,0.6632,0.5655,0.6362,0.702,0.7503,0.7503,0.761,0.7503,0.6642,0.5982,0.5328,0.4677,0.4519,0.4519,0.4519,0.4519,0.4519,0.4519,0.4368,0.4267,0.4368,0.0,0.0,0.0,0.0,0.0,0.0,0.0,0.0,0.0,0.0,0.0,0.0,0.0,0.0,0.0,0.0,0.0,0.0,0.0,0.0,0.0,0.0,0.0,0.0,0.0,0.0,0.0,0.0,0.0,0.0,0.0,0.0,0.0,0.0,0.0,0.0,0.0,0.0,0.0,0.0,0.0,0.0,0.0,0.0,0.0,0.0,0.0,0.0,0.0,0.0,0.0,0.0,0.4519,0.0,0.4519,0.4519,0.4519,0.4519,0.4519,0.4519,0.4519,0.4525,0.447,0.4477,0.3128,0.1952,0.1172,0.1116,0.0,0.0,0.0,0.0,0.0,0.0,0.0,-0.0,-0.0726,-0.2289,-0.4442,-0.3644,-0.3727,0.0,0.0,0.0,0.4414,0.3573,0.4028,0.5131,0.457,0.4613,0.5062,0.5445,0.5546,0.5592,0.6298,0.6081,0.5655,0.6362,0.7128,0.7717,0.7717,0.7717,0.7557,0.6804,0.6036,0.5328,0.4677,0.4519,0.4519,0.4519,0.4519,0.4519,0.4519,0.4409,0.4382,0.4463,0.2148,0.0,0.0,0.0,0.0,0.0,0.0,0.0,0.0,0.0,0.0,0.0,0.0,0.0,0.0,0.0,0.0,0.0,0.0,0.0,0.0,0.0,0.0,0.0,0.0,0.0,0.0,0.0,0.0,0.0,0.0,0.0,0.0,0.0,0.0,0.0,0.0,0.0,0.0,0.0,0.0,0.0,0.0,0.0,0.0,0.0,0.8804,0.0,0.0,0.6902,0.0,0.5171,0.4952,0.4732,0.4519,0.4519,0.4519,0.4519,0.4519,0.4519,0.4519,0.4519,0.4519,0.4477,0.4477,0.3971,0.2734,0.2679,0.2141,0.1008,0.0659,0.033,0.0,0.0,0.0,0.0,0.0,0.0,0.0,0.0,0.0,0.0,0.0,0.2348,0.4497,0.4308,0.4375,0.4463,0.4341,0.4362,0.4684,0.5928,0.5982,0.5538,0.5864,0.5973,0.6091,0.6858,0.745,0.7943,0.7943,0.7943,0.7729,0.6858,0.6199,0.5546,0.4732,0.4519,0.4519,0.4519,0.4519,0.4519,0.4519,0.4519,0.4519,0.4477,0.2567,0.0,0.0,0.0,0.0,0.0,0.0,0.0,0.0,0.0,0.0,0.0,0.0,0.0,0.0,0.0,0.0,0.0,0.0,0.0,0.0,0.0,0.0,0.0,0.0,0.0,0.0,0.0,0.0,0.0,0.0,0.0,0.0,0.0,0.0,0.0,0.0,0.0,0.0,0.0,0.0,0.0,0.0,0.0,0.0,0.0,0.0,0.0,0.0,0.0,0.0,0.0,0.6362,0.5492,0.4629,0.4519,0.4519,0.4519,0.4519,0.4519,0.4519,0.4519,0.4519,0.4519,0.4477,0.4421,0.4311,0.4262,0.4197,0.4108,0.2688,0.1317,0.0,0.0,0.0,0.0,0.0,0.0,0.0,0.0,0.0,0.0,0.394,0.4268,0.4484,0.4463,0.4463,0.4519,0.4505,0.4505,0.4574,0.5328,0.5538,0.5701,0.7063,0.7503,0.761,0.8368,0.8646,0.8699,0.8699,0.8699,0.8368,0.6966,0.6534,0.6154,0.4842,0.4519,0.4519,0.4519,0.4519,0.4519,0.4519,0.4519,0.4519,0.4477,0.4255,0.3183,0.0,0.0,0.0,0.0,0.0,0.0,0.0,0.0,0.0,0.0,0.0,0.0,0.0,0.0,0.0,0.0,0.0,0.0,-0.0,0.0,0.0,0.0,0.0,0.0,0.0,0.0,0.0,0.0,0.0,0.0,0.0,0.0,0.0,0.0,0.0,0.0,0.0,0.0,0.0,0.0,0.0,0.0,0.0,0.0,0.0,0.0,0.0,0.0,0.0,0.0,0.6199,0.5382,0.4629,0.4519,0.4519,0.4519,0.4519,0.4519,0.4519,0.4519,0.4519,0.4519,0.4525,0.4525,0.4525,0.4477,0.4505,0.4511,0.3886,0.3279,0.0,0.0,0.0,0.0,0.0,0.0,0.0,0.0,0.056,0.4511,0.4504,0.4497,0.4477,0.447,0.4519,0.4519,0.4519,0.4732,0.5218,0.5928,0.647,0.6956,0.7996,0.8049,0.7824,0.8593,0.8804,0.8804,0.8804,0.8487,0.7996,0.7396,0.6632,0.5819,0.5218,0.4787,0.4519,0.4519,0.4519,0.4519,0.4519,0.4538,0.4572,0.4539,0.4488,0.4125,0.0,0.0,0.0,0.0,0.0,0.0,0.0,0.0,0.0,0.0,0.0,0.0,0.0,0.0,0.0,0.0,0.0,0.0,0.0,0.0,0.0,0.0,0.0,0.0,0.0,0.0,0.0,0.0,0.0,0.0,0.0,0.0,0.0,0.0,0.0,0.0,0.0,0.0,0.0,0.0,0.0,0.0,0.0,0.8804,0.0,0.8804,0.0,0.8368,0.7836,0.7343,0.6416,0.5819,0.5764,0.5007,0.4519,0.4519,0.4519,0.4519,0.4519,0.4519,0.4519,0.4519,0.4519,0.4519,0.4519,0.4519,0.0,0.4477,0.4477,0.4484,0.4511,0.1899,0.0,0.0,0.0,0.0,0.0,0.0953,0.2244,0.3878,0.4324,0.4484,0.4477,0.4519,0.4519,0.4519,0.4732,0.5109,0.5647,0.6578,0.7235,0.7836,0.854,0.8474,0.8103,0.8646,0.8804,0.8804,0.8804,0.8421,0.7996,0.7771,0.6794,0.5773,0.5614,0.5037,0.4532,0.4573,0.4553,0.4519,0.4519,0.4585,0.4646,0.4546,0.4535,0.4538,0.4504,0.0,0.0,0.0,0.0,0.0,0.0,0.4511,0.4518,0.4497,0.0,0.0,0.0,0.0,0.0,0.0,0.0,0.0,0.0,0.0,0.0,0.0,0.0,0.0,0.0,0.0,0.0,0.0,0.0,0.0,0.0,0.0,0.0,0.0,0.0,0.0,0.0,0.0,0.0,0.0,0.0,0.0,0.0,0.8804,0.8804,0.8804,0.8804,0.8804,0.8804,0.8752,0.7503,0.7128,0.854,0.6253,0.4519,0.4519,0.4519,0.4519,0.4519,0.4519,0.4519,0.4519,0.4519,0.4519,0.0,0.0,0.4519,0.4519,0.4519,0.4477,0.4497,0.0,0.0,0.0,0.0,0.0,0.0112,0.3091,0.3593,0.2345,0.3855,0.447,0.4519,0.4519,0.4519,0.4574,0.5218,0.5483,0.5701,0.7171,0.7664,0.7836,0.854,0.8804,0.8804,0.8804,0.8804,0.8804,0.8804,0.8804,0.8646,0.7889,0.7128,0.6475,0.5954,0.5129,0.456,0.4653,0.4572,0.4519,0.4519,0.4585,0.4646,0.4546,0.4585,0.4646,0.4504,0.0,0.0,0.0,0.0,0.0,0.0,0.4606,0.464,0.4511,0.0,0.0,0.0,0.0,0.0,0.0,0.0,0.0,0.0,0.0,0.0,0.0,0.0,0.0,0.0,0.0,0.0,0.0,0.0,0.0,0.0,0.0,0.0,0.0,0.0,0.0,0.0,0.0,0.0,0.0,0.0,0.0,0.0,0.8804,0.8804,0.8804,0.8804,0.8804,0.8593,0.7943,0.7128,0.6426,0.5928,0.5062,0.4519,0.4519,0.4519,0.4519,0.0,0.4519,0.4519,0.0,0.4519,0.4519,0.4519,0.4519,0.4519,0.4519,0.4519,0.4525,0.4484,0.0,0.0,0.0,0.0,0.1121,0.3091,0.4058,0.4601,0.4732,0.5242,0.5344,0.5164,0.5164,0.5164,0.5218,0.5429,0.6136,0.7063,0.7557,0.8049,0.8487,0.8699,0.8804,0.8804,0.8804,0.8804,0.8804,0.8804,0.8951,0.8895,0.7937,0.7411,0.6894,0.6015,0.5312,0.4789,0.4836,0.4809,0.4741,0.464,0.4816,0.4911,0.4667,0.4741,0.4796,0.4646,0.0,0.0,0.0,0.0,0.0,0.0,0.0,0.4738,0.0,0.3273,0.0,0.0,0.0,0.0,0.0,0.0,0.0,0.0,0.0,0.0,0.0,0.0,0.0,0.0,0.0,0.0,0.0,0.0,0.0,0.0,0.0,0.0,0.0,0.0,0.0,0.0,0.0,0.0,0.0,0.0,0.0,0.0,0.9015,0.8804,0.8804,0.8804,0.8804,0.8593,0.7996,0.675,0.55,0.4629,0.4519,0.4519,0.4519,0.4519,0.0,0.4519,0.4519,0.4519,0.4519,0.4519,0.4519,0.4519,0.4519,0.4519,0.4519,0.0,0.0,0.447,0.2397,0.0894,0.0,0.1177,0.2695,0.4511,0.4504,0.5045,0.5909,0.5791,0.5828,0.5928,0.5928,0.5928,0.5928,0.6199,0.6902,0.7717,0.7996,0.8434,0.8804,0.8804,0.8804,0.8804,0.8804,0.8804,0.8831,0.8938,0.9044,0.9108,0.8588,0.7892,0.7161,0.6579,0.5659,0.4918,0.4918,0.4918,0.4891,0.4796,0.4965,0.506,0.4823,0.4857,0.487,0.4714,0.0,0.4519,0.4519,0.0,0.0,0.0,0.0,0.0,0.0,0.4041,0.0,0.0,0.0,0.0,0.0,0.0,0.0,0.0,0.0,0.0,0.0,0.0,0.0,0.0,0.0,0.0,0.0,0.0,0.0,0.0,0.0,0.0,0.0,0.0,0.0,0.0,0.0,0.0,0.0,0.0,0.0,0.0,0.9316,0.8804,0.0,0.0,0.8804,0.0,0.8804,0.6362,0.4519,0.4519,0.4519,0.4519,0.4519,0.4519,0.4519,0.4519,0.0,0.0,0.0,0.4519,0.4519,0.4519,0.4519,0.0,0.4519,0.4519,0.4519,0.4519,0.156,0.0168,0.0224,0.3147,0.4511,0.4511,0.4546,0.5085,0.5964,0.5719,0.6036,0.6696,0.6696,0.6696,0.675,0.745,0.7717,0.7889,0.854,0.8804,0.8804,0.8804,0.8804,0.8804,0.8804,0.8804,0.8871,0.9097,0.9203,0.9269,0.9548,0.8575,0.744,0.7459,0.6142,0.4952,0.4952,0.4952,0.4945,0.4938,0.5047,0.5101,0.4958,0.4925,0.487,0.4728,0.4572,0.4519,0.4519,0.0,0.0,0.0,0.0,0.0,0.0,0.5308,0.3967,0.0,0.0,0.0,0.0,0.0,0.0,0.0,0.0,0.0,0.0,0.0,0.0,0.0,0.0,0.0,0.0,0.0,0.0,0.0,0.0,0.0,0.0,0.0,0.0,0.0,0.0,0.0,0.0,0.0,0.0,0.0,0.0,0.0,0.8804,0.8804,0.8804,0.8804,0.8804,0.6362,0.4519,0.4519,0.4519,0.4519,0.4519,0.4519,0.4519,0.4519,0.4519,0.4519,0.4519,0.4519,0.4519,0.4519,0.4519,0.4519,0.4519,0.4519,0.4525,0.4477,0.2623,0.1673,0.1732,0.3593,0.4504,0.4546,0.525,0.59,0.649,0.6966,0.7289,0.745,0.745,0.745,0.745,0.761,0.8049,0.8593,0.8752,0.8804,0.8804,0.8804,0.8804,0.8804,0.8804,0.8804,0.8871,0.9097,0.9406,0.9477,0.9007,0.8847,0.848,0.7038,0.5958,0.5257,0.5257,0.5257,0.5223,0.5101,0.5203,0.5257,0.5108,0.4992,0.4904,0.487,0.464,0.4519,0.4519,0.4565,0.0,0.0,0.5026,0.5322,0.5329,0.5535,0.4615,0.0,0.0,0.0,0.0,0.0,0.0,0.0,0.0,0.0,0.0,0.0,0.0,0.0,0.0,0.0,0.0,0.0,0.0,0.0,0.0,0.0,0.0,0.0,0.0,0.0,0.0,0.0,0.0,0.0,0.0,0.0,0.9106,0.8804,0.8804,0.8804,0.8804,0.8804,0.8804,0.6362,0.4519,0.4519,0.4519,0.4519,0.4519,0.4519,0.4519,0.4519,0.4519,0.4519,0.4519,0.4519,0.4519,0.4519,0.4519,0.4519,0.4519,0.4519,0.4525,0.4477,0.3688,0.2901,0.223,0.3755,0.449,0.4532,0.5352,0.6046,0.6642,0.7396,0.7889,0.8209,0.8209,0.8209,0.8209,0.8209,0.8434,0.8804,0.8804,0.8804,0.8804,0.8804,0.8804,0.8804,0.8804,0.8804,0.8884,0.9312,0.9552,0.9655,0.936,0.9272,0.8849,0.6985,0.5944,0.5446,0.5447,0.5413,0.5372,0.5426,0.5454,0.544,0.5359,0.5223,0.5074,0.4938,0.4782,0.4646,0.4579,0.4701,0.0,0.4979,0.5216,0.544,0.5644,0.5748,0.5427,0.4433,0.0,0.0,0.3241,0.1171,0.0,0.0,0.0,0.0,0.0,0.0,0.0,0.0,0.0,0.0,0.0,0.0,0.0,0.0,0.0,0.0,0.0,0.0,0.0,0.0,0.0,0.0,0.0,0.0,0.0,0.0,0.8804,0.8804,0.8804,0.8804,0.8804,0.8646,0.8209,0.6091,0.4519,0.4519,0.4519,0.4519,0.4519,0.4601,0.4615,0.4525,0.4519,0.4519,0.4519,0.4519,0.4519,0.4519,0.4546,0.4553,0.4519,0.4519,0.4525,0.4477,0.4477,0.3855,0.2563,0.391,0.4532,0.4691,0.5391,0.6091,0.6804,0.7557,0.8209,0.8804,0.8804,0.8804,0.8804,0.8804,0.8804,0.8804,0.8804,0.8804,0.8804,0.8804,0.8831,0.8871,0.8871,0.8898,0.9031,0.9539,0.9713,0.982,1.01,0.9668,0.87,0.7118,0.6066,0.5433,0.5589,0.5521,0.5501,0.5752,0.5705,0.5623,0.5623,0.5481,0.5284,0.5053,0.4965,0.4877,0.4769,0.0,0.5087,0.5365,0.5521,0.5657,0.6057,0.6125,0.62,0.6335,0.496,0.0,0.0,0.288,0.0531,0.0,0.0,0.0,0.0,0.0,0.0,0.0,0.0,0.0,0.0,0.0,0.0,0.0,0.0,0.0,0.0,0.0,0.0,0.0,0.0,0.0,0.0,0.0,0.0,0.0,0.8804,0.8804,0.8804,0.8804,0.8804,0.7984,0.5546,0.4787,0.4519,0.4519,0.4519,0.4519,0.4519,0.4979,0.5082,0.456,0.4519,0.4519,0.4519,0.4519,0.4519,0.4519,0.4683,0.4697,0.4519,0.4519,0.4519,0.4519,0.4477,0.4359,0.4125,0.4359,0.4802,0.5382,0.6091,0.6858,0.7557,0.8315,0.8699,0.8804,0.8804,0.8804,0.8804,0.8804,0.8804,0.8804,0.8804,0.8804,0.8804,0.8804,0.8965,0.911,0.911,0.9339,0.9566,0.9659,0.986,1.0114,1.0408,0.936,0.7982,0.7259,0.6263,0.5589,0.5739,0.5752,0.5745,0.5793,0.5786,0.5766,0.5766,0.5549,0.5393,0.5474,0.5169,0.4952,0.5047,0.0,0.5359,0.5535,0.5888,0.6193,0.6383,0.6525,0.6614,0.6565,0.655,0.5906,0.4515,0.4378,0.2949,0.0094,0.0,0.0,0.0,0.0,0.0,0.0,0.0,0.0,0.0,0.0,0.0,0.0,0.0,0.0,0.0,0.0,0.0,0.0,0.0,0.0,0.0,0.0,0.0,0.0,0.8804,0.8804,0.8804,0.8804,0.7503,0.6036,0.4684,0.4793,0.4889,0.456,0.48,0.5006,0.5006,0.526,0.5185,0.4573,0.4519,0.4519,0.4519,0.4828,0.4862,0.4532,0.4707,0.4728,0.4525,0.4545,0.4545,0.4519,0.4525,0.4525,0.4519,0.4849,0.5226,0.5538,0.6686,0.7396,0.7729,0.8487,0.8804,0.8804,0.8804,0.8804,0.8804,0.8804,0.8804,0.8804,0.8804,0.8804,0.8831,0.8991,0.907,0.9216,0.9432,0.9579,0.9713,0.9873,1.0127,1.0421,1.0715,0.9561,0.8235,0.7944,0.6808,0.5766,0.5996,0.5983,0.5996,0.6234,0.622,0.6139,0.6064,0.5867,0.5691,0.5603,0.5345,0.0,0.0,0.5508,0.5684,0.5922,0.6274,0.6586,0.681,0.6898,0.7007,0.7088,0.7155,0.68,0.6007,0.6406,0.5914,0.4317,0.4342,0.4264,0.4288,0.1493,0.0,0.0,0.0,0.0,0.0,0.0,0.0,0.0,0.0,0.0,0.0,0.0,0.0,0.0,0.0,0.0,0.0,0.0,0.0,0.0,0.7771,0.8315,0.8593,0.7931,0.5982,0.4519,0.4519,0.4917,0.5047,0.458,0.5047,0.5425,0.5425,0.5425,0.524,0.4773,0.4731,0.4731,0.4731,0.5164,0.5185,0.4592,0.4816,0.4843,0.4663,0.466,0.4613,0.4519,0.4519,0.4574,0.4732,0.5273,0.5756,0.6288,0.7278,0.7877,0.8196,0.8633,0.8804,0.8804,0.8804,0.8804,0.8804,0.8804,0.8804,0.8818,0.8884,0.8911,0.8951,0.9245,0.9336,0.9429,0.9713,0.9873,1.0033,1.0261,1.0581,1.0915,1.0862,0.9926,0.8876,0.8529,0.7381,0.6279,0.6373,0.6268,0.6281,0.6627,0.6607,0.6491,0.6383,0.6234,0.6057,0.5833,0.0,0.0,0.0,0.5901,0.6112,0.6383,0.6675,0.6959,0.7224,0.7244,0.7346,0.7584,0.7349,0.7402,0.7724,0.7876,0.7952,0.7979,0.7384,0.739,0.8026,0.393,0.1208,0.0,0.0,0.0709,0.2033,0.061,0.0,0.0,0.0,0.0,0.0,0.0,0.0,0.0,0.0,0.0,0.0,0.0,0.0,0.0,0.4842,0.6956,0.7943,0.5281,0.4622,0.4519,0.4519,0.4553,0.4567,0.4525,0.5047,0.5425,0.5425,0.5425,0.5411,0.5363,0.5363,0.5363,0.5363,0.5404,0.5216,0.4897,0.4992,0.5102,0.5082,0.4802,0.4613,0.4519,0.4519,0.4842,0.5429,0.5483,0.6548,0.841,0.7919,0.8396,0.9614,0.9054,0.8804,0.8804,0.8804,0.8804,0.8804,0.8804,0.8804,0.8844,0.9057,0.915,0.919,0.9552,0.9833,1.006,1.0074,1.0461,1.0902,1.0929,1.1329,1.1629,1.0706,1.0196,0.9701,0.8394,0.7863,0.7451,0.6845,0.6661,0.6661,0.6695,0.6695,0.6681,0.6668,0.6539,0.643,0.641,0.0,0.0,0.6207,0.6458,0.6695,0.6858,0.7143,0.7387,0.755,0.7563,0.7577,0.7597,0.7712,0.7787,0.7814,0.7936,0.8031,0.7972,0.5622,0.5536,0.8026,0.761,0.4951,0.0,0.0,0.2854,0.8027,0.2486,0.0,0.0,0.0,0.0,0.0,0.0,0.0,0.0,0.0,0.0,0.0,0.0,0.0,0.0,0.4519,0.5382,0.5764,0.4677,0.4519,0.4519,0.4519,0.4841,0.4944,0.4567,0.5047,0.5281,0.4903,0.5198,0.5425,0.5425,0.5425,0.5425,0.5425,0.5425,0.5311,0.5196,0.5108,0.5123,0.5123,0.4911,0.4755,0.4606,0.4606,0.4945,0.5492,0.6101,0.7182,0.8685,0.8461,0.9044,1.0067,0.9343,0.9178,0.9352,0.9352,0.9352,0.9352,0.9352,0.9352,0.9365,0.9472,0.9512,0.9566,0.9846,1.0154,1.0421,1.0608,1.0942,1.1329,1.1703,1.1971,1.2138,1.2132,1.1489,1.0669,1.0097,0.9104,0.8104,0.7947,0.7337,0.6865,0.6953,0.6973,0.6973,0.6973,0.6851,0.6783,0.6871,0.0,0.66,0.6776,0.6905,0.7027,0.7183,0.7461,0.7665,0.7726,0.7814,0.7875,0.7875,0.7923,0.795,0.795,0.8011,0.8045,0.7952,0.7036,0.6942,0.7992,0.6358,0.483,0.3318,0.4802,0.5779,0.6122,0.567,0.351,0.0,0.0,0.0,0.0,0.0,0.0,0.0,0.0,0.0,0.0,0.0,0.0,0.0,0.4298,0.467,0.48,0.48,0.48,0.48,0.48,0.4999,0.4992,0.4573,0.4882,0.5054,0.4828,0.5178,0.5425,0.5425,0.5425,0.5425,0.5425,0.5425,0.5425,0.5425,0.5294,0.5219,0.5219,0.5094,0.4958,0.4762,0.5049,0.5505,0.6108,0.726,0.8472,0.9703,0.9531,0.993,1.0724,0.9757,0.9499,0.9686,0.9686,0.9686,0.9686,0.9686,0.9686,0.9713,0.9886,0.9953,1.002,1.0394,1.0661,1.0862,1.1062,1.1396,1.1797,1.2291,1.2505,1.2679,1.3093,1.2711,1.2037,1.1626,1.0284,0.8977,0.8983,0.8002,0.717,0.7265,0.7285,0.7285,0.7285,0.7204,0.7156,0.7204,0.7082,0.7034,0.719,0.7292,0.7394,0.7495,0.7733,0.7882,0.7882,0.7977,0.8038,0.8038,0.8038,0.8038,0.8038,0.8038,0.8038,0.8038,0.8038,0.8045,0.7965,0.6137,0.5122,0.5018,0.7483,0.7576,0.5841,0.796,0.6695,0.2639,0.077,0.0,0.0,0.0,0.0,0.0,0.0,0.0,0.0,0.0,0.0,0.0,0.3904,0.4945,0.5425,0.5425,0.5425,0.5425,0.5425,0.4917,0.4525,0.4525,0.4519,0.4752,0.5363,0.5425,0.5425,0.5425,0.5425,0.5425,0.5425,0.5425,0.5425,0.5425,0.5425,0.5425,0.5425,0.5425,0.5216,0.4925,0.5751,0.6575,0.7349,0.9028,1.0578,1.1886,1.123,1.1287,1.1791,1.0351,0.9686,0.9686,0.9699,0.9699,0.9699,0.9699,0.9699,0.978,1.0354,1.0631,1.0712,1.1236,1.1423,1.1423,1.1436,1.1837,1.2371,1.2741,1.2973,1.3213,1.3227,1.3654,1.3828,1.2589,1.1391,1.0299,0.9618,0.8512,0.7597,0.7597,0.7597,0.7597,0.7604,0.7604,0.755,0.74,0.7502,0.755,0.74,0.7631,0.7814,0.7814,0.7943,0.8038,0.8038,0.8038,0.8038,0.8038,0.8038,0.8038,0.8038,0.8038,0.8038,0.8038,0.8038,0.8038,0.8038,0.7965,0.6648,0.4017,0.6759,0.8241,0.8625,0.8765,0.8946,0.8549,0.2571,0.0,0.0,0.0,0.0,0.0,0.0,0.0,0.0,0.0,0.0,0.0,0.1174,0.3166,0.4924,0.5356,0.5425,0.5425,0.5425,0.5274,0.5157,0.5157,0.4786,0.4752,0.5363,0.5425,0.5425,0.5425,0.5425,0.5425,0.5425,0.5425,0.5425,0.5425,0.5425,0.5425,0.5425,0.5425,0.5771,0.6429,0.6366,0.7249,0.9086,0.963,1.0957,1.2694,1.2031,1.1955,1.2184,1.1254,1.0629,1.0376,1.0528,1.0608,1.0621,1.0822,1.0902,1.0929,1.1102,1.1169,1.1196,1.1369,1.157,1.181,1.2225,1.2625,1.2999,1.3293,1.3587,1.3868,1.4068,1.4416,1.4515,1.3749,1.2976,1.2114,1.0977,0.9806,0.8699,0.7785,0.7597,0.7631,0.7733,0.7746,0.7767,0.7828,0.7875,0.7889,0.7848,0.7916,0.797,0.797,0.8011,0.8038,0.8038,0.8038,0.8038,0.8038,0.8038,0.8038,0.8038,0.8038,0.8038,0.8038,0.8147,0.8201,0.8201,0.8119,0.7711,0.7071,0.8014,0.8486,0.8655,0.8886,0.8886,0.8647,0.4863,0.1931,0.0,0.0,0.0,0.0,0.0,0.0,0.0,0.0,0.0,0.0,0.0,0.2452,0.4635,0.5006,0.5267,0.5425,0.5425,0.5425,0.5425,0.5425,0.5109,0.502,0.5384,0.5425,0.5425,0.5425,0.5652,0.5789,0.5789,0.5789,0.5679,0.5439,0.5658,0.5672,0.5432,0.5815,0.6334,0.6915,0.7378,0.8421,1.0073,1.0866,1.2043,1.3492,1.3094,1.283,1.256,1.1827,1.1181,1.0742,1.0915,1.1062,1.1182,1.1356,1.1423,1.145,1.169,1.177,1.181,1.2051,1.2251,1.2465,1.2812,1.3213,1.3587,1.3761,1.4108,1.4469,1.4643,1.491,1.5044,1.4696,1.395,1.3101,1.2461,1.0971,0.9465,0.8718,0.8151,0.7801,0.7882,0.7902,0.7929,0.8024,0.8038,0.8038,0.8038,0.8038,0.8038,0.8038,0.8038,0.8038,0.8038,0.8038,0.8038,0.8038,0.8038,0.8038,0.8038,0.8038,0.8065,0.8126,0.8221,0.8296,0.835,0.8275,0.8275,0.8357,0.8459,0.8608,0.8804,0.8899,0.8903,0.8924,0.7143,0.462,0.1967,0.1884,0.1194,0.0,0.0,0.0,0.0,0.0,0.0,0.0,0.0,0.223,0.4181,0.4463,0.4979,0.5363,0.5418,0.5425,0.5425,0.5425,0.5425,0.5425,0.5425,0.5425,0.5452,0.5507,0.6016,0.6338,0.6338,0.6338,0.6084,0.5507,0.5935,0.6036,0.5614,0.6655,0.71,0.6885,0.8646,0.9919,1.0843,1.2381,1.3571,1.4387,1.435,1.3855,1.2948,1.2228,1.1545,1.0995,1.1049,1.1249,1.1503,1.153,1.1557,1.165,1.2198,1.2385,1.2465,1.3026,1.3227,1.3253,1.328,1.3667,1.4135,1.4162,1.4563,1.5003,1.5003,1.5217,1.5431,1.5431,1.4477,1.3673,1.3825,1.2037,1.0288,1.01,0.9015,0.8137,0.8038,0.8038,0.8038,0.8038,0.8038,0.8038,0.8038,0.8038,0.8038,0.8038,0.8038,0.8038,0.8038,0.8038,0.8045,0.8058,0.8058,0.8065,0.8079,0.8079,0.8147,0.8282,0.8303,0.837,0.8499,0.8513,0.8513,0.8506,0.852,0.8676,0.896,0.8974,0.9024,0.9175,0.9189,0.7769,0.5295,0.5383,0.361,0.0844,0.0611,0.0247,0.0,0.0,0.0,0.0,0.0,0.0504,0.1732,0.407,0.4628,0.4876,0.5356,0.5425,0.5425,0.5425,0.5425,0.5425,0.5425,0.5425,0.5617,0.6098,0.6263,0.6338,0.6338,0.6338,0.6208,0.5913,0.5874,0.6194,0.6892,0.7469,0.8046,0.8581,0.9892,1.1353,1.2948,1.3613,1.4556,1.5657,1.5311,1.4332,1.3025,1.3056,1.2262,1.1035,1.149,1.185,1.2131,1.2371,1.2612,1.2839,1.2973,1.3013,1.3026,1.3173,1.336,1.3587,1.3828,1.4135,1.4469,1.471,1.503,1.5297,1.5297,1.5511,1.5738,1.5738,1.5536,1.5063,1.4148,1.3488,1.2522,1.0386,0.9805,0.9213,0.8237,0.8038,0.8038,0.8038,0.8038,0.8038,0.8038,0.8038,0.8038,0.8038,0.8038,0.8038,0.8038,0.8038,0.8092,0.8214,0.8221,0.8269,0.8377,0.8384,0.8397,0.8431,0.8554,0.8628,0.8662,0.8777,0.8777,0.8662,0.8784,0.8933,0.911,0.9232,0.932,0.9395,0.9412,0.911,0.8515,0.8672,0.836,0.7373,0.479,0.223,0.0,0.0,0.0,0.0,-0.2119,-0.1006,0.095,0.3959,0.4519,0.4725,0.5336,0.5425,0.5425,0.5425,0.5425,0.5542,0.583,0.5603,0.5672,0.6283,0.6519,0.6559,0.6281,0.639,0.6403,0.6254,0.6866,0.7226,0.7556,0.8714,0.9453,0.9559,1.1115,1.2548,1.3849,1.4488,1.5396,1.6367,1.5685,1.4648,1.3474,1.3219,1.2402,1.145,1.1891,1.2251,1.2545,1.2852,1.3066,1.3227,1.336,1.3601,1.3841,1.3841,1.4028,1.4295,1.4456,1.471,1.4963,1.5124,1.5378,1.5605,1.5605,1.5712,1.5832,1.5832,1.5832,1.5642,1.4949,1.4364,1.3488,1.2134,1.0941,0.9904,0.913,0.8557,0.8228,0.816,0.8208,0.8248,0.8248,0.8194,0.8147,0.8147,0.8147,0.8174,0.8241,0.8248,0.8282,0.8364,0.837,0.8404,0.8479,0.8479,0.8513,0.8587,0.8669,0.8777,0.892,0.9001,0.9035,0.9028,0.9035,0.9157,0.9374,0.9456,0.953,0.9598,0.9686,0.9607,0.9613,0.9707,0.9747,0.9638,0.8066,0.6372,0.4542,0.1159,0.0,0.0533,-0.4519,-0.2063,0.0783,0.3289,0.4181,0.4725,0.5336,0.5425,0.5425,0.5425,0.5521,0.5775,0.6283,0.5885,0.5789,0.6297,0.6803,0.6919,0.6396,0.6573,0.6654,0.6552,0.7901,0.8418,0.8093,0.9884,1.056,1.0172,1.2161,1.353,1.4231,1.5227,1.6102,1.6772,1.5762,1.4867,1.4032,1.3178,1.2429,1.1971,1.2265,1.2585,1.2933,1.3186,1.332,1.34,1.3694,1.4135,1.4603,1.4603,1.4763,1.4977,1.5017,1.5204,1.5404,1.5458,1.5645,1.5832,1.5832,1.5872,1.5912,1.5912,1.5939,1.5979,1.5979,1.5051,1.4232,1.4039,1.2162,1.0466,1.022,0.9225,0.8445,0.8323,0.8404,0.8479,0.8479,0.8384,0.8309,0.8309,0.8309,0.835,0.8472,0.8479,0.8492,0.852,0.852,0.8533,0.856,0.8581,0.8655,0.8784,0.8811,0.8947,0.9191,0.9191,0.9266,0.9415,0.9293,0.9361,0.9612,0.9632,0.9707,0.9822,0.9822,0.9822,0.9822,0.9822,0.9836,0.9863,1.0019,1.0239,0.9418,0.2607,0.0798,0.2692,-0.4519,-0.2063,0.0112,0.056,0.2785,0.4725,0.5336,0.5425,0.5425,0.5425,0.5885,0.6173,0.6331,0.6263,0.6249,0.6331,0.6803,0.7034,0.6776,0.6722,0.6634,0.6491,0.7877,0.8732,0.9074,1.0185,1.0642,1.036,1.3016,1.4408,1.468,1.5956,1.6805,1.7285,1.5891,1.4867,1.4049,1.334,1.2756,1.2265,1.2559,1.3026,1.352,1.3574,1.3748,1.4001,1.4295,1.4616,1.491,1.491,1.4937,1.5003,1.5257,1.5364,1.5444,1.5698,1.5792,1.5832,1.5832,1.6019,1.6219,1.6219,1.6406,1.6593,1.6593,1.6295,1.5609,1.4508,1.32,1.1923,1.0776,0.948,0.8472,0.8459,0.8472,0.8479,0.8479,0.8465,0.8452,0.8452,0.8452,0.8459,0.8479,0.8479,0.8533,0.8669,0.8676,0.8737,0.8872,0.8994,0.9069,0.9089,0.9218,0.9306,0.9347,0.9347,0.9429,0.9578,0.9557,0.9571,0.9612,0.9734,0.9802,0.9822,0.9822,0.9822,0.9822,0.9822,0.9822,0.9842,0.9992,1.0154,0.9544,0.2512,0.389,0.9332,-0.4958,-0.3635,-0.1999,-0.0308,0.112,0.2778,0.5055,0.5425,0.5425,0.5425,0.5961,0.6338,0.6338,0.6552,0.6749,0.6749,0.6993,0.7102,0.7014,0.6966,0.7339,0.8102,0.9018,0.9897,1.0726,1.1624,1.212,1.1993,1.3909,1.4924,1.4993,1.6633,1.7539,1.7648,1.6008,1.5137,1.4833,1.3329,1.2742,1.2826,1.2946,1.3267,1.3681,1.4001,1.4215,1.4362,1.4656,1.4963,1.5204,1.5204,1.5311,1.5471,1.5605,1.5631,1.5658,1.5792,1.5832,1.5872,1.6032,1.6179,1.6313,1.6473,1.6607,1.67,1.67,1.674,1.6299,1.4707,1.355,1.2229,1.0768,0.9565,0.871,0.8621,0.8682,0.8737,0.8737,0.8662,0.8608,0.8608,0.8608,0.8642,0.873,0.8737,0.8764,0.8832,0.8913,0.8988,0.9055,0.9198,0.9279,0.9279,0.9347,0.9422,0.951,0.951,0.9585,0.9727,0.9815,0.9808,0.9734,0.9883,0.9903,0.9829,0.991,0.9897,0.9829,0.9917,0.9951,0.9971,1.0202,1.0419,1.0202,0.7093,0.7952,1.0699]}]]